[[{"header":{"parameterUnit":"m.s-1","parameterCategory":1,"la1":31.0,"la2":29.5877,"lo1":-88.7671,"lo2":-86.6584,"dy":0.0162,"dx":0.0185,"nx":115,"ny":88,"refTime":"2023-02-24T18:00:00:Z","depth":0,"parameterNumber":2,"parameterNumberName":"U-component_of_WINDS"},"data":[0.0,0.0,0.0,0.0,0.0,0.0,0.0,0.0,0.0,0.0,0.0,0.0,0.0,0.0,0.0,0.0,0.0,0.0,0.0,0.0,0.0,0.0,0.0,0.0,0.0,0.0,0.0,0.0,0.0,0.0,0.0,0.0,0.0,0.0,0.0,0.0,0.0,0.0,0.0,0.0,0.0,0.0,0.0,0.0,0.0,0.0,0.0,0.0,0.0,0.0,0.0,0.0,0.0,0.0,0.0,0.0,0.0,0.0,0.0,0.0,0.0,0.0,0.0,0.0,0.0,0.0,0.0,0.0,0.0,0.0,0.0,0.0,0.0,0.0,0.0,0.0,0.0,0.0,0.0,0.0,0.0,0.0,0.0,0.0,0.0,0.0,0.0,0.0,0.0,0.0,0.0,0.0,0.0,0.0,0.0,0.0,0.0,0.0,0.0,0.0,0.0,0.0,0.0,0.0,0.0,0.0,0.0,0.0,0.0,0.0,0.0,0.0,0.0,0.0,0.0,0.0,0.0,0.0,0.0,0.0,0.0,0.0,0.0,0.0,0.0,0.0,0.0,0.0,0.0,0.0,0.0,0.0,0.0,0.0,0.0,0.0,0.0,0.0,0.0,0.0,0.0,0.0,0.0,0.0,0.0,0.0,0.0,0.0,0.0,0.0,0.0,0.0,0.0,0.0,0.0,0.0,0.0,0.0,0.0,0.0,0.0,0.0,0.0,0.0,0.0,0.0,0.0,0.0,0.0,0.0,0.0,0.0,0.0,0.0,0.0,0.0,0.0,0.0,0.0,0.0,0.0,0.0,0.0,0.0,0.0,0.0,0.0,0.0,0.0,0.0,0.0,0.0,0.0,0.0,0.0,0.0,0.0,0.0,0.0,0.0,0.0,0.0,0.0,0.0,0.0,0.0,0.0,0.0,0.0,0.0,0.0,0.0,0.0,0.0,0.0,0.0,0.0,0.0,0.0,0.0,0.0,0.0,0.0,0.0,0.0,0.0,0.0,0.0,0.0,0.0,0.0,0.0,0.0,0.0,0.0,0.0,0.0,0.0,0.0,0.0,0.0,0.0,0.0,0.0,0.0,0.0,0.0,0.0,0.0,0.0,0.0,0.0,0.0,0.0,0.0,0.0,0.0,0.0,0.0,0.0,0.0,0.0,0.0,0.0,0.0,0.0,0.0,0.0,0.0,0.0,0.0,0.0,0.0,0.0,0.0,0.0,0.0,0.0,0.0,0.0,0.0,0.0,0.0,0.0,0.0,0.0,0.0,0.0,0.0,0.0,0.0,0.0,0.0,0.0,0.0,0.0,0.0,0.0,0.0,0.0,0.0,0.0,0.0,0.0,0.0,0.0,0.0,0.0,0.0,0.0,0.0,0.0,0.0,0.0,0.0,0.0,0.0,0.0,0.0,0.0,0.0,0.0,0.0,0.0,0.0,0.0,0.0,0.0,0.0,0.0,0.0,0.0,0.0,0.0,0.0,0.0,0.0,0.0,0.0,0.0,0.0,0.0,0.0,0.0,0.0,0.0,0.0,0.0,0.0,0.0,0.0,0.0,0.0,0.0,0.0,0.0,0.0,0.0,0.0,0.0,0.0,0.0,0.0,0.0,0.0,0.0,0.0,0.0,0.0,0.0,0.0,0.0,0.0,0.0,0.0,0.0,0.0,0.0,0.0,0.0,0.0,0.0,0.0,0.0,0.0,0.0,0.0,0.0,0.0,0.0,0.0,0.0,0.0,0.0,0.0,0.0,0.0,0.0,0.0,0.0,0.0,0.0,0.0,0.0,0.0,0.0,0.0,0.0,0.0,0.0,0.0,0.0,0.0,0.0,0.0,0.0,0.0,0.0,0.0,0.0,0.0,0.0,0.0,0.0,0.0,0.0,0.0,0.0,0.0,0.0,0.0,0.0,0.0,0.0,0.0,0.0,0.0,0.0,0.0,0.0,0.0,0.0,0.0,0.0,0.0,0.0,0.0,0.0,0.0,0.0,0.0,0.0,0.0,0.0,0.0,0.0,0.0,0.0,0.0,0.0,0.0,0.0,0.0,0.0,0.0,0.0,0.0,0.0,0.0,0.0,0.0,0.0,0.0,0.0,0.0,0.0,0.0,0.0,0.0,0.0,0.0,0.0,0.0,0.0,0.0,0.0,0.0,0.0,0.0,0.0,0.0,0.0,0.0,0.0,0.0,0.0,0.0,0.0,0.0,0.0,0.0,0.0,0.0,0.0,0.0,0.0,0.0,0.0,0.0,0.0,0.0,0.0,0.0,0.0,0.0,0.0,0.0,0.0,0.0,0.0,0.0,0.0,0.0,0.0,0.0,0.0,0.0,0.0,0.0,0.0,0.0,0.0,0.0,0.0,0.0,0.0,0.0,0.0,0.0,0.0,0.0,0.0,0.0,0.0,0.0,0.0,0.0,0.0,0.0,0.0,0.0,0.0,0.0,0.0,0.0,0.0,0.0,0.0,0.0,0.0,0.0,0.0,0.0,0.0,0.0,0.0,0.0,0.0,0.0,0.0,0.0,0.0,0.0,0.0,0.0,0.0,0.0,0.0,0.0,0.0,0.0,0.0,0.0,0.0,0.0,0.0,0.0,0.0,0.0,0.0,0.0,0.0,0.0,0.0,0.0,0.0,0.0,0.0,0.0,0.0,0.0,0.0,0.0,0.0,0.0,0.0,0.0,0.0,0.0,0.0,0.0,0.0,0.0,0.0,0.0,0.0,0.0,0.0,0.0,0.0,0.0,0.0,0.0,0.0,0.0,0.0,0.0,0.0,0.0,0.0,0.0,0.0,0.0,0.0,0.0,0.0,0.0,0.0,0.0,0.0,0.0,0.0,0.0,0.0,0.0,0.0,0.0,0.0,0.0,0.0,0.0,0.0,0.0,0.0,0.0,0.0,0.0,0.0,0.0,0.0,0.0,0.0,0.0,0.0,0.0,0.0,0.0,0.0,0.0,0.0,0.0,0.0,0.0,0.0,0.0,0.0,0.0,0.0,0.0,0.0,0.0,0.0,0.0,0.0,0.0,0.0,0.0,0.0,0.0,0.0,0.0,0.0,0.0,0.0,0.0,0.0,0.0,0.0,0.0,0.0,0.0,0.0,0.0,0.0,0.0,0.0,0.0,0.0,0.0,0.0,0.0,0.0,0.0,0.0,0.0,0.0,0.0,0.0,0.0,0.0,0.0,0.0,0.0,0.0,0.0,0.0,0.0,0.0,0.0,0.0,0.0,0.0,0.0,0.0,0.0,0.0,0.0,0.0,0.0,0.0,0.0,0.0,0.0,0.0,0.0,0.0,0.0,0.0,0.0,0.0,0.0,0.0,0.0,0.0,0.0,0.0,0.0,0.0,0.0,0.0,0.0,0.0,0.0,0.0,0.0,0.0,0.0,0.0,0.0,0.0,0.0,0.0,0.0,0.0,0.0,0.0,0.0,0.0,0.0,0.0,0.0,0.0,0.0,0.0,0.0,0.0,0.0,0.0,0.0,0.0,0.0,0.0,0.0,0.0,0.0,0.0,0.0,0.0,0.0,0.0,0.0,0.0,0.0,0.0,0.0,0.0,0.0,0.0,0.0,0.0,0.0,0.0,0.0,0.0,0.0,0.0,0.0,0.0,0.0,0.0,0.0,0.0,0.0,0.0,0.0,0.0,0.0,0.0,0.0,0.0,0.0,0.0,0.0,0.0,0.0,0.0,0.0,0.0,0.0,0.0,0.0,0.0,0.0,0.0,0.0,0.0,0.0,0.0,0.0,0.0,0.0,0.0,0.0,0.0,0.0,0.0,0.0,0.0,0.0,0.0,0.0,0.0,0.0,0.0,0.0,0.0,0.0,0.0,0.0,0.0,0.0,0.0,0.0,0.0,0.0,0.0,0.0,0.0,0.0,0.0,0.0,0.0,0.0,0.0,0.0,0.0,0.0,0.0,0.0,0.0,0.0,0.0,0.0,0.0,0.0,0.0,0.0,0.0,0.0,0.0,0.0,0.0,0.0,0.0,0.0,0.0,0.0,0.0,0.0,0.0,0.0,0.0,0.0,0.0,0.0,0.0,0.0,0.0,0.0,0.0,0.0,0.0,0.0,0.0,0.0,0.0,0.0,0.0,0.0,0.0,0.0,0.0,0.0,0.0,0.0,0.0,0.0,0.0,0.0,0.0,0.0,0.0,0.0,0.0,0.0,0.0,0.0,0.0,0.0,0.0,0.0,0.0,0.0,0.0,0.0,0.0,0.0,0.0,0.0,0.0,0.0,0.0,0.0,0.0,0.0,0.0,1.6044,0.0,0.0,0.0,0.0,0.0,0.0,0.0,0.0,0.0,0.0,0.0,0.0,0.0,0.0,0.0,0.0,0.0,0.0,0.0,0.0,0.0,0.0,0.0,0.0,0.0,0.0,0.0,0.0,0.0,0.0,0.0,0.0,0.0,0.0,0.0,0.0,0.0,0.0,0.0,0.0,0.0,0.0,0.0,0.0,0.0,0.0,0.0,0.0,0.0,0.0,0.0,0.0,0.0,0.0,0.0,0.0,0.0,0.0,0.0,0.0,0.0,0.0,0.0,0.0,0.0,0.0,0.0,0.0,0.0,0.0,0.0,0.0,0.0,0.0,0.0,0.0,0.0,0.0,0.0,0.0,0.0,0.0,0.0,0.0,0.0,0.0,0.0,0.0,0.0,0.0,0.0,0.0,0.0,0.0,0.0,0.0,0.0,0.0,0.0,0.0,0.0,0.0,0.0,0.0,0.0,0.0,0.0,0.0,0.0,0.0,1.5969,1.5969,1.5925,1.5881,1.5724,0.0,0.0,0.0,0.0,0.0,0.0,0.0,0.0,0.0,0.0,0.0,0.0,0.0,0.0,0.0,0.0,0.0,0.0,0.0,0.0,0.0,0.0,0.0,0.0,0.0,0.0,0.0,0.0,0.0,0.0,0.0,0.0,0.0,0.0,0.0,0.0,0.0,0.0,0.0,0.0,0.0,0.0,0.0,0.0,0.0,0.0,0.0,0.0,0.0,0.0,0.0,0.0,0.0,0.0,0.0,0.0,0.0,0.0,0.0,0.0,0.0,0.0,0.0,0.0,0.0,0.0,0.0,0.0,0.0,0.0,0.0,0.0,0.0,0.0,0.0,0.0,0.0,0.0,0.0,0.0,0.0,0.0,0.0,0.0,0.0,0.0,0.0,0.0,0.0,0.0,0.0,0.0,0.0,0.0,0.0,0.0,0.0,0.0,0.0,0.0,0.0,0.0,0.0,0.0,0.0,0.0,0.0,0.0,0.0,0.0,0.0,0.0,1.5659,1.557,1.5379,0.0,0.0,0.0,0.0,0.0,0.0,0.0,0.0,0.0,0.0,0.0,0.0,0.0,0.0,0.0,0.0,0.0,0.0,0.0,0.0,0.0,0.0,0.0,0.0,0.0,0.0,0.0,0.0,0.0,0.0,0.0,0.0,0.0,0.0,0.0,0.0,0.0,0.0,0.0,0.0,0.0,0.0,0.0,0.0,0.0,0.0,0.0,0.0,0.0,0.0,0.0,0.0,0.0,0.0,0.0,0.0,0.0,0.0,0.0,0.0,0.0,0.0,0.0,0.0,0.0,0.0,0.0,0.0,0.0,0.0,0.0,0.0,0.0,0.0,0.0,0.0,0.0,0.0,0.0,0.0,0.0,0.0,0.0,0.0,0.0,0.0,0.0,0.0,0.0,0.0,0.0,0.0,0.0,0.0,0.0,0.0,0.0,0.0,0.0,0.0,0.0,0.0,0.0,0.0,0.0,0.0,0.0,0.0,0.0,0.0,1.539,1.5501,1.5513,0.0,1.4949,0.0,0.0,0.0,0.0,0.0,0.0,0.0,0.0,0.0,0.0,0.0,0.0,0.0,0.0,0.0,0.0,0.0,0.0,0.0,0.0,0.0,0.0,0.0,0.0,0.0,0.0,0.0,0.0,0.0,0.0,0.0,0.0,0.0,0.0,0.0,0.0,0.0,0.0,0.0,0.0,0.0,0.0,0.0,0.0,0.0,0.0,0.0,0.0,0.0,0.0,0.0,0.0,0.0,0.0,0.0,0.0,0.0,0.0,0.0,0.0,0.0,0.0,0.0,0.0,0.0,0.0,0.0,0.0,0.0,0.0,0.0,0.0,0.0,0.0,0.0,0.0,0.0,0.0,0.0,0.0,0.0,0.0,0.0,0.0,0.0,0.0,0.0,0.0,0.0,0.0,0.0,0.0,0.0,0.0,0.0,0.0,0.0,0.0,0.0,0.0,0.0,0.0,0.0,0.0,0.0,0.0,0.0,0.0,0.0,0.0,1.4949,1.5085,1.4926,1.4731,0.0,0.0,0.0,0.0,0.0,0.0,0.0,0.0,0.0,0.0,0.0,0.0,0.0,0.0,0.0,0.0,0.0,0.0,0.0,0.0,0.0,0.0,0.0,0.0,0.0,0.0,0.0,0.0,0.0,0.0,0.0,0.0,0.0,0.0,0.0,0.0,0.0,0.0,0.0,0.0,0.0,0.0,0.0,0.0,0.0,0.0,0.0,0.0,0.0,0.0,0.0,0.0,0.0,0.0,0.0,0.0,0.0,0.0,0.0,0.0,0.0,0.0,0.0,0.0,0.0,0.0,0.0,0.0,0.0,0.0,0.0,0.0,0.0,0.0,0.0,0.0,0.0,0.0,0.0,0.0,0.0,0.0,0.0,0.0,0.0,0.0,0.0,0.0,0.0,0.0,0.0,0.0,0.0,0.0,0.0,0.0,0.0,0.0,0.0,0.0,0.0,0.0,0.0,0.0,0.0,0.0,0.0,0.0,0.0,0.0,1.4384,1.4534,1.4673,1.443,1.4298,1.4275,0.0,0.0,0.0,0.0,0.0,0.0,0.0,0.0,0.0,0.0,0.0,0.0,0.0,0.0,0.0,0.0,0.0,0.0,0.0,0.0,0.0,0.0,0.0,0.0,0.0,0.0,0.0,0.0,0.0,0.0,0.0,0.0,0.0,0.0,0.0,0.0,0.0,0.0,0.0,0.0,0.0,0.0,0.0,0.0,0.0,0.0,0.0,0.0,0.0,0.0,0.0,0.0,0.0,0.0,0.0,0.0,0.0,0.0,0.0,0.0,0.0,0.0,0.0,0.0,0.0,0.0,0.0,0.0,0.0,0.0,0.0,0.0,0.0,0.0,0.0,0.0,0.0,0.0,0.0,0.0,0.0,0.0,0.0,0.0,0.0,0.0,0.0,0.0,0.0,0.0,0.0,0.0,0.0,0.0,0.0,0.0,0.0,0.0,0.0,0.0,0.0,0.0,0.0,0.0,0.0,0.0,0.0,0.0,1.381,1.4082,1.4269,1.4395,1.4161,1.4185,0.0,0.0,0.0,0.0,0.0,0.0,0.0,0.0,0.0,0.0,0.0,0.0,0.0,0.0,0.0,0.0,0.0,0.0,0.0,0.0,0.0,0.0,0.0,0.0,0.0,0.0,0.0,0.0,0.0,0.0,0.0,0.0,0.0,0.0,0.0,0.0,0.0,0.0,0.0,0.0,0.0,0.0,0.0,0.0,0.0,0.0,0.0,0.0,0.0,0.0,0.0,0.0,0.0,0.0,0.0,0.0,0.0,0.0,0.0,0.0,0.0,0.0,0.0,0.0,0.0,0.0,0.0,0.0,0.0,0.0,0.0,0.0,0.0,0.0,0.0,0.0,0.0,0.0,0.0,0.0,0.0,0.0,0.0,0.0,0.0,0.0,0.0,0.0,0.0,0.0,0.0,0.0,0.0,0.0,0.0,0.0,0.0,0.0,0.0,0.0,0.0,0.0,0.0,0.0,0.0,0.0,0.0,0.0,0.0,1.3515,1.3705,1.3994,1.4338,1.4164,1.4173,0.0,0.0,0.0,0.0,0.0,0.0,0.0,0.0,0.0,0.0,0.0,0.0,0.0,0.0,0.0,0.0,0.0,0.0,0.0,0.0,0.0,0.0,0.0,0.0,0.0,0.0,0.0,0.0,0.0,0.0,0.0,0.0,0.0,0.0,0.0,0.0,0.0,0.0,0.0,0.0,0.0,0.0,0.0,0.0,0.0,0.0,0.0,0.0,0.0,0.0,0.0,0.0,0.0,0.0,0.0,0.0,0.0,0.0,0.0,0.0,0.0,0.0,0.0,0.0,0.0,0.0,0.0,0.0,0.0,0.0,0.0,0.0,0.0,0.0,0.0,0.0,0.0,0.0,0.0,0.0,0.0,0.0,0.0,0.0,0.0,0.0,0.0,0.0,0.0,0.0,0.0,0.0,0.0,0.0,0.0,0.0,0.0,0.0,0.0,0.0,0.0,0.0,0.0,0.0,0.0,0.0,0.0,0.0,0.0,1.3498,0.0,1.3912,0.0,1.4113,1.4116,0.0,0.0,0.0,0.0,0.0,0.0,0.0,0.0,0.0,0.0,0.0,0.0,0.0,0.0,0.0,0.0,0.0,0.0,0.0,0.0,0.0,0.0,0.0,0.0,0.0,0.0,0.0,0.0,0.0,0.0,0.0,0.0,0.0,0.0,0.0,0.0,0.0,0.0,0.0,0.0,0.0,0.0,0.0,0.0,0.0,0.0,0.0,0.0,0.0,0.0,0.0,0.0,0.0,0.0,0.0,0.0,0.0,0.0,0.0,0.0,0.0,0.0,0.0,0.0,0.0,0.0,0.0,0.0,0.0,0.0,0.0,0.0,0.0,0.0,0.0,0.0,0.0,0.0,0.0,0.0,0.0,0.0,0.0,0.0,0.0,0.0,0.0,0.0,0.0,0.0,0.0,0.0,0.0,0.0,0.0,0.0,0.0,0.0,0.0,0.0,0.0,0.0,0.0,0.0,0.0,0.0,0.0,0.0,1.3323,1.3659,1.3959,1.4038,1.4077,1.397,1.4128,0.0,0.0,0.0,0.0,0.0,0.0,0.0,0.0,0.0,0.0,0.0,0.0,0.0,0.0,0.0,0.0,0.0,0.0,0.0,0.0,0.0,0.0,0.0,0.0,0.0,0.0,0.0,0.0,0.0,0.0,0.0,0.0,0.0,0.0,0.0,0.0,0.0,0.0,0.0,0.0,0.0,0.0,0.0,0.0,0.0,0.0,0.0,0.0,0.0,0.0,0.0,0.0,0.0,0.0,0.0,0.0,0.0,0.0,0.0,0.0,0.0,0.0,0.0,0.0,0.0,0.0,0.0,0.0,0.0,0.0,0.0,0.0,0.0,0.0,0.0,0.0,0.0,0.0,0.0,0.0,0.0,0.0,0.0,0.0,0.0,0.0,0.0,0.0,0.0,0.0,0.0,0.0,0.0,0.0,0.0,0.0,0.0,0.0,0.0,0.0,0.0,0.0,0.0,0.0,0.0,0.0,0.0,0.0,0.0,1.371,1.3645,1.3789,1.4072,1.3905,1.3996,0.0,0.0,0.0,0.0,0.0,0.0,0.0,0.0,0.0,0.0,0.0,0.0,0.0,0.0,0.0,0.0,0.0,0.0,0.0,0.0,0.0,0.0,0.0,0.0,0.0,0.0,0.0,0.0,0.0,0.0,0.0,0.0,0.0,0.0,0.0,0.0,0.0,0.0,0.0,0.0,0.0,0.0,0.0,0.0,0.0,0.0,0.0,0.0,0.0,0.0,0.0,0.0,0.0,0.0,0.0,0.0,0.0,0.0,0.0,0.0,0.0,0.0,0.0,0.0,0.0,0.0,0.0,0.0,0.0,0.0,0.0,0.0,0.0,0.0,0.0,0.0,0.0,0.0,0.0,0.0,0.0,0.0,0.0,0.0,0.0,0.0,0.0,0.0,0.0,0.0,0.0,0.0,0.0,0.0,0.0,0.0,0.0,0.0,0.0,0.0,0.0,0.0,0.0,0.0,0.0,0.0,0.0,0.0,0.0,1.3754,1.367,1.3732,1.3987,1.3861,1.3861,1.3932,0.0,0.0,0.0,0.0,0.0,0.0,0.0,0.0,0.0,0.0,0.0,0.0,0.0,0.0,0.0,0.0,0.0,0.0,0.0,0.0,0.0,0.0,0.0,0.0,0.0,0.0,0.0,0.0,0.0,0.0,0.0,0.0,0.0,0.0,0.0,0.0,0.0,0.0,0.0,0.0,0.0,0.0,0.0,0.0,0.0,0.0,0.0,0.0,0.0,0.0,0.0,0.0,0.0,0.0,0.0,0.0,0.0,0.0,0.0,0.0,0.0,0.0,0.0,0.0,0.0,0.0,0.0,0.0,0.0,0.0,0.0,0.0,0.0,0.0,0.0,0.0,0.0,0.0,0.0,0.0,0.0,0.0,0.0,0.0,0.0,0.0,0.0,0.0,0.0,0.0,0.0,0.0,0.0,0.0,0.0,0.0,0.0,0.0,0.0,0.0,0.0,0.0,0.0,0.0,0.0,0.0,0.0,0.0,1.3778,1.389,1.3881,1.3761,1.3761,1.364,0.0,0.0,0.0,0.0,0.0,0.0,0.0,0.0,0.0,0.0,0.0,0.0,0.0,0.0,0.0,0.0,0.0,0.0,0.0,0.0,0.0,0.0,0.0,0.0,0.0,0.0,0.0,0.0,0.0,0.0,0.0,0.0,0.0,0.0,0.0,0.0,0.0,0.0,0.0,0.0,0.0,0.0,0.0,0.0,0.0,0.0,0.0,0.0,0.0,0.0,0.0,0.0,0.0,0.0,0.0,0.0,0.0,0.0,0.0,0.0,0.0,0.0,0.0,0.0,0.0,0.0,0.0,0.0,0.0,0.0,0.0,0.0,0.0,0.0,0.0,0.0,0.0,0.0,0.0,0.0,0.0,0.0,0.0,0.0,0.0,0.0,0.0,0.0,0.0,0.0,0.0,0.0,0.0,0.0,0.0,0.0,0.0,0.0,0.0,0.0,0.0,0.0,0.0,0.0,0.0,0.0,0.0,0.0,0.0,1.3224,1.3164,1.3172,1.3233,1.3103,1.2981,0.0,0.0,0.0,0.0,0.0,0.0,0.0,0.0,0.0,0.0,0.0,0.0,0.0,0.0,0.0,0.0,0.0,0.0,0.0,0.0,0.0,0.0,0.0,0.0,0.0,0.0,0.0,0.0,0.0,0.0,0.0,0.0,0.0,0.0,0.0,0.0,0.0,0.0,0.0,0.0,0.0,0.0,0.0,0.0,0.0,0.0,0.0,0.0,0.0,0.0,0.0,0.0,0.0,0.0,0.0,0.0,0.0,0.0,0.0,0.0,0.0,0.0,0.0,0.0,0.0,0.0,0.0,0.0,0.0,0.0,0.0,0.0,0.0,0.0,0.0,0.0,0.0,0.0,0.0,0.0,0.0,0.0,0.0,0.0,0.0,0.0,0.0,0.0,0.0,0.0,0.0,0.0,0.0,0.0,0.0,0.0,0.0,0.0,0.0,0.0,0.0,0.0,0.0,0.0,0.0,0.0,0.0,0.0,1.3042,1.2613,1.256,1.2436,1.2182,1.2375,1.2367,0.0,0.0,0.0,0.0,0.0,0.0,0.0,0.0,0.0,0.0,0.0,0.0,0.0,0.0,0.0,0.0,0.0,0.0,0.0,0.0,0.0,0.0,0.0,0.0,0.0,0.0,0.0,0.0,0.0,0.0,0.0,0.0,0.0,0.0,0.0,0.0,0.0,0.0,0.0,0.0,0.0,0.0,0.0,0.0,0.0,0.0,0.0,0.0,0.0,0.0,0.0,0.0,0.0,0.0,0.0,0.0,0.0,0.0,0.0,0.0,0.0,0.0,0.0,0.0,0.0,0.0,0.0,0.0,0.0,0.0,0.0,0.0,0.0,0.0,0.0,0.0,0.0,0.0,0.0,0.0,0.0,0.0,0.0,0.0,0.0,0.0,0.0,0.0,0.0,0.0,0.0,0.0,0.0,0.0,0.0,0.0,0.0,0.0,0.0,0.0,0.0,0.0,0.0,0.0,0.0,0.0,0.0,0.0,1.2506,1.2111,1.2041,1.1751,1.115,1.1722,1.1817,0.0,0.0,0.0,0.0,0.0,0.0,0.0,0.0,0.0,0.0,0.0,0.0,0.0,0.0,0.0,0.0,0.0,0.0,0.0,0.0,0.0,0.0,0.0,0.0,0.0,0.0,0.0,0.0,0.0,0.0,0.0,0.0,0.0,0.0,0.0,0.0,0.0,0.0,0.0,0.0,0.0,0.0,0.0,0.0,0.0,0.0,0.0,0.0,0.0,0.0,0.0,0.0,0.0,0.0,0.0,0.0,0.0,0.0,0.0,0.0,0.0,0.0,0.0,0.0,0.0,0.0,0.0,0.0,0.0,0.0,0.0,0.0,0.0,0.0,0.0,0.0,0.0,0.0,0.0,0.0,0.0,0.0,0.0,0.0,0.0,0.0,0.0,0.0,0.0,0.0,0.0,0.0,0.0,0.0,0.0,0.0,0.0,0.0,0.0,0.0,0.0,0.0,0.0,0.0,0.0,0.0,0.0,0.0,1.2313,1.2055,1.1804,1.1535,1.1364,1.1311,1.1122,0.0,0.0,0.0,0.0,0.0,0.0,0.0,0.0,0.0,0.0,0.0,0.0,0.0,0.0,0.0,0.0,0.0,0.0,0.0,0.0,0.0,0.0,0.0,0.0,0.0,0.0,0.0,0.0,0.0,0.0,0.0,0.0,0.0,0.0,0.0,0.0,0.0,0.0,0.0,0.0,0.0,0.0,0.0,0.0,0.0,0.0,0.0,0.0,0.9922,0.0,0.0,0.0,0.0,0.0,0.0,0.0,0.0,0.0,0.0,0.0,0.0,0.0,0.0,0.0,0.0,0.0,0.0,0.0,0.0,0.0,0.0,0.0,0.0,0.0,0.0,0.0,0.0,0.0,0.0,0.0,0.0,0.0,0.0,0.0,0.0,0.0,0.0,0.0,0.0,0.0,0.0,0.0,0.0,0.0,0.0,0.0,0.0,0.0,0.0,0.0,0.0,0.0,0.0,0.0,0.0,0.0,0.0,0.0,1.1931,1.1514,1.1455,1.1337,1.106,1.0855,1.064,0.0,0.0,0.0,0.0,0.0,0.0,0.0,0.0,0.0,0.0,0.0,0.0,0.0,0.0,0.0,0.0,0.0,0.0,0.0,0.0,0.0,0.0,0.0,0.0,0.0,0.0,0.0,0.0,0.0,0.0,0.0,0.0,0.0,0.0,0.0,0.0,0.0,0.0,0.0,0.0,0.0,0.0,0.0,0.0,0.0,0.0,0.0,0.0,0.0,0.0,0.0,0.0,0.0,0.0,0.0,0.0,0.0,0.0,0.0,0.0,0.0,0.0,0.0,0.0,0.0,0.0,0.0,0.0,0.0,0.0,0.0,0.0,0.0,0.0,0.0,0.0,0.0,0.0,0.0,0.0,0.0,0.0,0.0,0.0,0.0,0.0,0.0,0.0,0.0,0.0,0.0,0.0,0.0,0.0,0.0,0.0,0.0,0.0,0.0,0.0,0.0,0.0,0.0,0.0,0.0,0.0,0.0,1.1897,1.1687,1.1129,1.1295,1.1101,1.0721,1.0481,1.0266,1.0074,0.0,0.0,0.0,0.0,0.0,0.0,0.0,0.0,0.0,0.0,0.0,0.0,0.0,0.0,0.0,0.0,0.0,0.0,0.0,0.0,0.0,0.0,0.0,0.0,0.0,0.0,0.0,0.0,0.0,0.0,0.0,0.0,0.0,0.0,0.0,0.0,0.0,0.0,0.9922,0.9922,0.0,0.0,0.0,0.0,0.0,0.0,0.0,0.0,1.0541,0.0,0.0,0.0,0.0,0.0,0.0,0.0,0.0,0.0,0.0,0.0,0.0,0.0,0.0,0.0,0.0,0.0,0.0,0.0,0.0,0.0,0.0,0.0,0.0,0.0,0.0,0.0,0.0,0.0,0.0,0.0,0.0,0.0,0.0,0.0,0.0,0.0,0.0,0.0,0.0,0.0,0.0,0.0,0.0,0.0,0.0,0.0,0.0,0.0,0.0,0.0,0.0,0.0,0.0,0.0,0.0,1.2134,1.1812,1.1625,1.1627,1.1269,1.105,1.104,1.0623,1.0184,0.9661,0.0,0.0,0.0,0.0,0.0,0.0,0.0,0.0,0.0,0.0,0.0,0.0,0.0,0.0,0.0,0.0,0.0,0.0,0.0,0.0,0.0,0.0,0.0,0.0,0.0,0.0,0.0,0.0,0.0,0.0,0.0,0.0,0.0,0.0,0.0,0.0,0.0,0.0,0.0,0.9922,0.9922,0.0,0.0,0.0,0.0,0.0,0.0,0.0,0.0,1.0912,0.0,0.0,0.0,0.0,0.0,0.0,0.0,0.0,0.0,0.0,0.0,0.0,0.0,0.0,0.0,0.0,0.0,0.0,0.0,0.0,0.0,0.0,0.0,0.0,0.0,0.0,0.0,0.0,0.0,0.0,0.0,0.0,0.0,0.0,0.0,0.0,0.0,0.0,0.0,0.0,0.0,0.0,0.0,0.0,0.0,0.0,0.0,0.0,0.0,0.0,0.0,0.0,0.0,0.0,0.0,1.2101,1.1889,1.1715,1.1566,1.1215,1.1052,1.095,1.0547,1.0154,0.0,0.0,0.0,0.0,0.0,0.0,0.0,0.0,0.0,0.0,0.0,0.0,0.0,0.0,0.0,0.0,0.0,0.0,0.0,0.0,0.0,0.0,0.0,0.0,0.0,0.0,0.0,0.0,0.0,0.0,0.0,0.0,0.0,0.0,0.0,0.0,0.0,0.0,0.0,0.0,1.0116,1.0159,1.0277,0.0,0.0,0.0,0.0,0.0,0.0,1.1015,1.1176,0.0,0.0,0.0,0.0,0.0,0.0,0.0,0.0,0.0,0.0,0.0,0.0,0.0,0.0,0.0,0.0,0.0,0.0,0.0,0.0,0.0,0.0,0.0,0.0,0.0,0.0,0.0,0.0,0.0,0.0,0.0,0.0,0.0,0.0,0.0,0.0,0.0,0.0,0.0,0.0,0.0,0.0,0.0,0.0,0.0,0.0,0.0,0.0,0.0,0.0,0.0,0.0,0.0,0.0,0.0,1.2174,1.204,1.1748,1.131,1.115,1.0887,1.0663,1.0368,1.0107,0.0,0.0,0.0,0.0,0.0,0.0,0.0,0.0,0.0,0.0,0.0,0.0,0.0,0.0,0.0,0.0,0.0,0.0,0.0,0.0,0.0,0.0,0.0,0.0,0.0,0.0,0.0,0.0,0.0,0.0,0.0,0.0,0.0,0.0,0.0,0.0,0.0,0.0,0.0,0.0,0.0,1.0379,1.06,1.0557,0.0,0.0,0.0,0.0,1.1047,1.1219,0.0,0.0,0.0,0.0,0.0,0.0,0.0,0.0,0.0,0.0,0.0,0.0,0.0,0.0,0.0,0.0,0.0,0.0,0.0,0.0,0.0,0.0,0.0,0.0,0.0,0.0,0.0,0.0,0.0,0.0,0.0,0.0,0.0,0.0,0.0,0.0,0.0,0.0,0.0,0.0,0.0,0.0,0.0,0.0,0.0,0.0,0.0,0.0,0.0,0.0,0.0,0.0,0.0,0.0,0.0,0.0,1.2591,1.1901,1.148,1.1347,1.1019,1.0669,1.0293,1.0218,1.0032,0.0,0.0,0.0,0.0,0.0,0.0,0.0,0.0,0.0,0.0,0.0,0.0,0.0,0.0,0.0,0.0,0.0,0.0,0.0,0.0,0.0,0.0,0.0,0.0,0.0,0.0,0.0,0.0,0.0,0.0,0.0,0.0,0.0,0.0,0.0,0.0,0.0,0.0,0.0,0.0,0.0,1.0374,1.0606,1.0557,1.0708,0.0,0.0,1.1063,1.1187,1.1332,0.0,0.0,0.0,0.0,0.0,0.0,0.0,0.0,0.0,0.0,0.0,0.0,0.0,0.0,0.0,0.0,0.0,0.0,0.0,0.0,0.0,0.0,0.0,0.0,0.0,0.0,0.0,0.0,0.0,0.0,0.0,0.0,0.0,0.0,0.0,0.0,0.0,0.0,0.0,0.0,0.0,0.0,0.0,0.0,0.0,0.0,0.0,0.0,0.0,0.0,0.0,0.0,0.0,0.0,0.0,1.2792,1.2501,1.1952,1.1512,1.1254,1.0738,1.0368,1.0212,1.0073,0.9948,0.0,0.0,0.0,0.0,0.0,0.0,0.0,0.0,0.0,0.0,0.0,0.0,0.0,0.0,0.0,0.0,0.0,0.0,0.0,0.0,0.0,0.0,0.0,0.0,0.0,0.0,0.0,0.0,0.0,0.0,0.0,0.0,0.0,0.0,0.0,0.0,0.0,0.0,0.0,0.0,0.0,0.0,1.1009,1.1036,0.0,0.0,0.0,1.1225,1.1332,0.0,0.0,0.0,0.0,0.0,0.0,0.0,0.0,0.0,0.0,0.0,0.0,0.0,0.0,0.0,0.0,0.0,0.0,0.0,0.0,0.0,0.0,0.0,0.0,0.0,0.0,0.0,0.0,0.0,0.0,0.0,0.0,0.0,0.0,0.0,0.0,0.0,0.0,0.0,0.0,0.0,0.0,0.0,0.0,0.0,0.0,0.0,0.0,0.0,0.0,0.0,0.0,0.0,0.0,0.0,0.0,0.0,1.2407,1.1896,1.1515,1.1139,1.0596,1.0297,1.0242,1.009,0.0,0.0,0.0,0.0,0.0,0.0,0.0,0.0,0.0,0.0,0.0,0.0,0.0,0.0,0.0,0.0,0.0,0.0,0.0,0.0,0.0,0.0,0.0,0.0,0.0,0.0,0.0,1.0724,0.0,0.0,0.0,0.0,0.0,0.0,0.0,0.0,0.0,0.0,0.0,0.0,0.0,0.0,1.1074,1.123,1.1267,1.1267,0.0,0.0,1.1267,1.1267,1.1267,1.1267,0.0,0.0,0.0,0.0,0.0,0.0,0.0,0.0,0.0,0.0,0.0,0.0,0.0,0.0,0.0,0.0,0.0,0.0,0.0,0.0,0.0,0.0,0.0,0.0,0.0,0.0,0.0,0.0,0.0,0.0,0.0,0.0,0.0,0.0,0.0,0.0,0.0,0.0,0.0,0.0,0.0,0.0,0.0,0.0,0.0,0.0,0.0,0.0,0.0,0.0,0.0,0.0,0.0,0.0,0.0,1.2271,1.1815,1.142,1.12,1.0948,1.0726,1.0277,1.0266,1.0159,0.0,0.0,0.0,0.0,0.0,0.0,0.0,0.0,0.0,0.0,0.0,0.0,0.0,0.0,0.0,0.0,0.0,0.0,0.0,0.0,0.0,0.0,0.0,0.0,0.0,0.0,0.0,0.0,0.0,0.0,0.0,0.0,0.0,0.0,0.0,0.0,0.0,0.0,0.0,0.0,0.0,1.1079,1.123,1.1267,1.1267,0.0,0.0,1.1267,1.1267,1.1267,1.1267,1.1267,0.0,0.0,0.0,0.0,0.0,0.0,0.0,0.0,0.0,0.0,0.0,0.0,0.0,0.0,0.0,0.0,0.0,0.0,0.0,0.0,0.0,0.0,0.0,0.0,0.0,0.0,0.0,0.0,0.0,0.0,0.0,0.0,0.0,0.0,0.0,0.0,0.0,0.0,0.0,0.0,0.0,0.0,0.0,0.0,0.0,0.0,0.0,0.0,0.0,0.0,0.0,0.0,0.0,1.2111,1.1781,1.1465,1.1146,1.084,1.0754,1.0675,1.0503,1.0279,1.0084,0.0,0.0,0.0,0.0,0.0,0.0,0.0,0.0,0.0,0.0,0.0,0.0,0.0,0.0,0.0,0.0,0.0,0.0,0.0,0.0,0.0,0.0,0.0,0.0,0.0,0.0,0.0,0.0,1.1295,1.1267,1.1267,0.0,0.0,0.0,0.0,0.0,0.0,0.0,0.0,0.0,0.0,1.1246,1.1251,1.1267,0.0,0.0,1.1267,1.1267,1.1267,1.1267,1.1267,1.1267,1.1267,0.0,0.0,0.0,0.0,0.0,0.0,0.0,0.0,0.0,0.0,0.0,0.0,0.0,0.0,0.0,0.0,0.0,0.0,0.0,0.0,0.0,0.0,0.0,0.0,0.0,0.0,0.0,0.0,0.0,0.0,0.0,0.0,0.0,0.0,0.0,0.0,0.0,0.0,0.0,0.0,0.0,0.0,0.0,0.0,0.0,0.0,0.0,0.0,0.0,0.0,0.0,0.0,1.19,1.1464,1.12,1.0982,1.0817,1.0811,1.0733,1.0571,1.0326,1.0131,0.0,0.0,0.0,0.0,0.0,0.0,0.0,0.0,0.0,0.0,0.0,0.0,0.0,0.0,0.0,0.0,0.0,0.0,0.0,0.0,0.0,0.0,0.0,0.0,0.0,0.0,0.0,0.0,1.1267,1.1267,1.1267,0.0,0.0,0.0,0.0,0.0,0.0,0.0,0.0,0.0,0.0,1.1267,1.1267,1.1267,1.1267,1.1267,1.1267,1.1267,1.1267,1.1267,1.1267,1.1267,0.0,0.0,0.0,0.0,0.0,0.0,0.0,0.0,0.0,0.0,0.0,0.0,0.0,0.0,0.0,0.0,0.0,0.0,0.0,0.0,0.0,0.0,0.0,0.0,0.0,0.0,0.0,0.0,0.0,0.0,1.4072,0.0,0.0,0.0,0.0,0.0,0.0,0.0,0.0,0.0,0.0,0.0,0.0,0.0,0.0,0.0,0.0,0.0,0.0,0.0,0.0,0.0,0.0,1.1621,1.1516,1.1135,1.1055,1.1283,1.1288,1.1038,1.0653,1.0548,1.0362,0.9897,0.0,0.0,0.0,0.0,0.0,0.0,0.0,0.0,0.0,0.0,0.0,0.0,0.0,0.0,0.0,0.0,0.0,0.0,0.0,0.0,0.0,0.0,0.0,0.0,0.0,0.0,1.1267,1.1267,1.1267,0.0,0.0,0.0,0.0,0.0,0.0,0.0,0.0,0.0,0.0,1.1262,1.1267,1.1267,1.1267,1.1267,1.1267,1.1267,1.1267,1.1267,1.1273,1.1267,0.0,0.0,0.0,0.0,0.0,0.0,0.0,0.0,0.0,0.0,0.0,0.0,0.0,0.0,0.0,0.0,0.0,0.0,0.0,0.0,0.0,0.0,0.0,0.0,0.0,0.0,0.0,1.4551,1.4709,0.0,0.0,0.0,0.0,0.0,0.0,0.0,0.0,0.0,0.0,0.0,1.4283,1.4261,0.0,0.0,0.0,0.0,0.0,0.0,0.0,0.0,0.0,0.0,0.0,0.0,1.1175,1.0913,1.0913,1.0991,1.1144,1.1225,1.1139,1.0888,1.0567,1.0128,0.9495,0.0,0.0,0.0,0.0,0.0,0.0,0.0,0.0,0.0,0.0,0.0,0.0,0.0,0.0,0.0,0.0,0.0,0.0,0.0,0.0,0.0,0.0,0.0,0.0,0.0,1.1267,0.0,0.0,0.0,0.0,0.0,0.0,0.0,0.0,0.0,0.0,0.0,1.1257,1.1251,1.1267,1.1267,1.1267,1.1267,1.1267,0.0,0.0,0.0,0.0,0.0,0.0,0.0,0.0,0.0,0.0,0.0,0.0,0.0,0.0,1.2307,1.1989,1.2086,1.2097,1.2264,0.0,0.0,0.0,0.0,0.0,0.0,0.0,0.0,0.0,0.0,0.0,0.0,0.0,0.0,0.0,0.0,1.4928,0.0,0.0,0.0,0.0,0.0,0.0,0.0,0.0,1.488,1.4832,1.4475,1.4281,1.4044,0.0,1.3222,1.3003,0.0,0.0,0.0,0.0,0.0,0.0,0.0,0.0,1.0975,1.0839,1.0919,1.0952,1.1101,1.1268,1.1176,1.0911,1.0424,0.9902,0.9441,0.9436,0.9398,0.0,0.0,0.0,0.0,0.0,0.0,0.0,0.0,0.0,0.0,0.0,0.0,0.0,0.0,0.0,0.0,0.0,0.0,0.0,0.0,0.0,0.0,0.0,1.1267,0.0,0.0,0.0,0.0,0.0,0.0,0.0,0.0,0.0,1.1267,1.1267,1.1267,1.1267,1.1424,1.1472,1.1472,0.0,0.0,0.0,0.0,0.0,0.0,0.0,1.1822,1.1822,1.2021,1.2226,1.2388,1.2484,1.2544,1.2544,0.0,0.0,1.2388,1.2431,1.2597,1.2754,1.2586,1.2438,1.2584,1.2229,1.203,0.0,0.0,0.0,0.0,0.0,0.0,0.0,0.0,1.4758,1.4709,0.0,1.4744,0.0,0.0,0.0,0.0,0.0,0.0,0.0,0.0,1.4956,1.4816,1.4328,1.4381,1.4045,1.3495,1.3265,1.287,1.2282,1.2081,0.0,0.0,0.0,0.0,0.0,0.0,1.1004,1.1283,1.1138,1.1101,1.1332,1.1267,1.1089,1.0727,1.0294,0.9856,0.9578,0.9653,0.9559,0.9356,0.9341,0.0,0.0,0.0,0.0,0.0,0.0,0.0,0.0,0.0,0.0,0.0,0.0,0.0,0.0,0.0,0.0,0.0,0.0,0.0,0.0,1.1267,0.0,0.0,0.0,0.0,0.0,0.0,0.0,0.0,0.0,0.0,1.1305,1.1289,1.1278,1.1294,0.0,0.0,0.0,0.0,1.2043,1.2038,1.2043,1.2038,1.2038,1.2151,1.2167,1.2167,0.0,0.0,1.3039,1.3308,1.3448,1.347,1.3459,1.334,1.2883,1.3136,1.3427,1.3443,1.3222,1.2941,1.2946,1.2525,1.2137,1.4213,0.0,0.0,0.0,0.0,1.4447,1.4569,1.49,1.4731,1.4805,1.5038,1.5038,0.0,0.0,0.0,0.0,0.0,0.0,1.4911,1.485,1.4805,1.4712,1.4558,1.4343,1.4059,1.3738,1.3265,1.279,1.2479,1.1848,1.1534,1.1528,0.0,0.0,0.0,0.0,1.0924,1.105,1.0982,1.1101,1.1257,1.1267,1.1089,1.0733,1.0212,1.0009,0.9866,0.9861,0.9838,0.9771,0.9634,0.0,0.0,0.0,0.0,0.0,0.0,0.0,0.0,0.0,0.0,0.0,0.0,0.0,0.0,0.0,0.0,0.0,0.0,0.0,1.1267,1.1267,1.1267,0.0,0.0,0.0,0.0,0.0,0.0,0.0,0.0,0.0,1.1844,1.1698,1.1661,0.0,0.0,1.1946,1.2037,1.2005,1.2043,1.2043,0.0,0.0,0.0,1.2433,1.256,1.256,1.2899,1.3222,1.3346,1.3432,1.3475,1.348,1.3615,1.3674,1.3556,1.348,1.3486,1.348,1.3064,1.2746,1.2756,1.2353,1.2149,1.456,1.4883,1.4737,1.4761,1.4747,1.4681,1.4748,1.5013,1.4952,1.5014,1.5213,1.5353,1.5275,1.5146,1.5129,0.0,0.0,0.0,1.4874,1.4917,1.4896,1.4877,1.4741,1.462,1.4356,1.4012,1.3615,1.3134,1.265,1.1987,1.1657,1.1569,0.0,0.0,1.0931,1.0936,1.0974,1.1117,1.1128,1.1198,1.1262,1.1176,1.0906,1.0727,1.0212,1.0038,1.0038,1.0038,1.0038,1.0038,0.9833,0.9933,0.0,0.0,0.0,0.0,0.0,0.0,0.0,0.0,0.0,0.0,0.0,1.1267,0.0,0.0,0.0,0.0,1.1267,1.1267,1.1267,1.1348,0.0,0.0,0.0,0.0,0.0,0.0,0.0,1.1838,1.2048,1.2091,1.2178,1.2075,1.2,1.2135,1.2129,1.2194,1.2194,0.0,1.2366,1.2452,1.2468,1.2501,1.2603,1.2856,1.3044,1.3044,1.3357,1.3604,1.3615,1.369,1.376,1.3782,1.3879,1.3965,1.3965,1.3857,1.376,1.3766,1.3336,1.2911,1.2911,1.2486,1.2261,1.5039,1.5188,1.4926,1.49,1.4932,1.494,1.5088,1.5279,1.5215,1.5224,1.5248,1.5569,1.5428,1.5079,1.5004,0.0,1.5025,1.5017,1.4892,1.4788,1.5071,1.5124,1.4918,1.5029,1.4908,1.4475,1.4243,1.3652,1.2869,1.2534,1.2198,1.1774,1.1078,1.0799,1.0999,1.1009,1.1128,1.1257,1.1262,1.1267,1.1267,1.0906,1.0733,1.0733,1.0299,1.0033,1.0038,1.0038,1.0038,1.0038,1.0038,1.0299,1.0641,0.0,0.0,0.0,0.0,0.0,0.0,0.0,0.0,0.0,0.0,0.0,0.0,0.0,0.0,0.0,1.1283,0.0,1.1316,1.1602,0.0,0.0,0.0,1.2043,1.2043,1.2156,1.2081,1.2167,0.0,0.0,1.2447,0.0,1.242,1.2194,1.2344,1.2474,1.2501,1.2694,1.2894,1.3077,1.3125,1.3211,1.3346,1.3443,1.3497,1.3534,1.3712,1.3846,1.3863,1.4019,1.4169,1.4164,1.4191,1.4186,1.4191,1.4169,1.4191,1.4169,1.3738,1.3305,1.329,1.2852,1.2422,1.5406,1.5487,1.5823,1.5756,1.5485,1.5421,1.5553,1.5813,1.5662,1.5511,1.5383,1.5462,1.5265,1.5027,1.5026,1.5038,1.5113,1.512,1.5189,1.5196,1.5359,1.5306,1.5321,1.5304,1.5173,1.4915,1.4489,1.4153,1.3743,1.2966,1.2534,1.2448,1.1742,1.1379,1.1262,1.1262,1.1209,1.1262,1.1267,1.1267,1.1267,1.1089,1.0916,1.0916,1.0646,1.0554,1.0554,1.0559,1.0554,1.0554,1.0559,1.0646,1.0916,1.0916,0.0,0.0,0.0,0.0,0.0,0.0,0.0,0.0,0.0,1.1267,1.1267,0.0,1.1267,0.0,1.151,1.1688,1.1865,1.193,0.0,0.0,1.2107,1.2043,1.2048,1.221,1.2328,1.2328,1.2635,1.2872,1.2931,1.3104,1.3206,1.3147,1.3023,1.3012,1.3195,1.3265,1.333,1.3378,1.3389,1.341,1.3491,1.3626,1.3798,1.3992,1.4073,1.4099,1.4105,1.4153,1.4191,1.4196,1.4196,1.4196,1.4202,1.4196,1.4202,1.4196,1.3759,1.332,1.332,1.2881,1.2441,1.5614,1.563,1.5907,1.5972,1.5924,1.5753,1.5734,1.569,1.5613,1.5459,1.5235,1.5311,1.5291,1.534,1.5195,1.5212,1.5301,1.5301,1.533,1.5431,1.5431,1.5431,1.5431,1.5431,1.5264,1.509,1.4824,1.4489,1.4088,1.3483,1.296,1.2705,1.2198,1.1866,1.1527,1.1354,1.1267,1.1267,1.1267,1.1267,1.1267,1.1094,1.1008,1.1008,1.0824,1.0733,1.0733,1.0733,1.0733,1.0733,1.0733,1.0824,1.1008,1.1008,1.1094,0.0,0.0,0.0,0.0,0.0,0.0,0.0,0.0,0.0,0.0,0.0,1.1548,1.1655,1.1779,1.1908,1.2032,1.2145,1.221,1.2215,1.2307,1.2404,1.2506,1.2635,1.2764,1.2877,1.3114,1.3265,1.3276,1.3389,1.3518,1.361,1.3513,1.3437,1.3464,1.3475,1.3513,1.361,1.3631,1.368,1.3776,1.39,1.4029,1.4159,1.4196,1.4196,1.4196,1.4196,1.4196,1.4202,1.4277,1.4342,1.4352,1.4439,1.4498,1.4498,1.4167,1.3794,1.3706,1.3206,1.2831,1.5737,1.5753,1.5793,1.5913,1.6166,1.61,1.5833,1.5522,1.5522,1.5358,1.5131,1.518,1.5383,1.5658,1.5506,1.5431,1.5431,1.5431,1.5431,1.5431,1.5431,1.5431,1.5431,1.5431,1.5369,1.5231,1.5147,1.4916,1.4365,1.4018,1.3585,1.2979,1.2727,1.2365,1.183,1.1565,1.1386,1.1267,1.1267,1.1267,1.1267,1.1126,1.105,1.1055,1.0983,1.0901,1.0901,1.0901,1.0901,1.0901,1.0901,1.0999,1.1091,1.1097,1.1179,0.0,1.144,0.0,0.0,0.0,0.0,0.0,0.0,0.0,0.0,1.1628,1.1844,1.2167,1.2189,1.2108,1.214,1.2361,1.2506,1.2511,1.2711,1.2937,1.3125,1.3152,1.3233,1.3453,1.3502,1.3523,1.3518,1.3545,1.3653,1.3825,1.3857,1.3787,1.3631,1.3599,1.3674,1.3841,1.3868,1.3938,1.4105,1.4169,1.418,1.4191,1.4234,1.4234,1.425,1.4283,1.4293,1.4309,1.446,1.4573,1.4579,1.474,1.4864,1.4853,1.4648,1.4498,1.4207,1.3703,1.3517,1.6111,1.6134,1.6251,1.632,1.6374,1.6164,1.6133,1.6207,1.606,1.5807,1.5554,1.5381,1.5372,1.5423,1.5423,1.5431,1.5431,1.5431,1.5431,1.5431,1.5431,1.5431,1.5431,1.5431,1.557,1.5726,1.5555,1.5518,1.5592,1.5232,1.4872,1.4523,1.3976,1.3236,1.2604,0.0,0.0,0.0,1.1267,1.1267,1.1273,1.1449,1.1545,1.1551,1.1722,0.0,1.1818,1.1823,1.1818,1.1823,1.1823,0.0,0.0,0.0,0.0,0.0,0.0,0.0,0.0,0.0,0.0,0.0,1.1941,1.1919,1.1914,1.1957,1.2086,1.2323,1.2344,1.242,1.2614,1.2834,1.2969,1.2985,1.3195,1.3362,1.3405,1.341,1.3432,1.347,1.3642,1.3755,1.3766,1.3927,1.4062,1.4099,1.4121,1.4105,1.4056,1.4035,1.4067,1.4121,1.4105,1.4132,1.4186,1.4202,1.4218,1.4213,1.4358,1.446,1.4482,1.4627,1.4745,1.4735,1.4789,1.4815,1.4821,1.4859,1.4918,1.4891,1.4932,1.4991,1.453,1.3947,1.3526,1.6468,0.0,1.6495,1.6476,0.0,1.6162,1.6072,1.6064,1.5906,1.5741,1.5582,1.5431,1.5431,1.5431,1.5431,1.5431,1.5431,1.5431,1.5431,1.5431,1.5431,1.5431,1.5438,1.5592,1.5752,1.5921,1.598,1.5958,1.6027,1.5761,1.5493,1.4963,1.4501,1.3885,1.3219,1.2591,1.1965,1.1267,1.1467,1.1526,1.1532,1.1752,1.1871,1.1876,0.0,0.0,0.0,0.0,0.0,0.0,0.0,0.0,0.0,0.0,0.0,1.2043,1.2043,1.2043,1.2043,1.2043,1.2097,1.2221,1.2441,1.2468,1.2253,1.2226,1.2371,1.2716,1.2759,1.2856,1.3093,1.3222,1.3292,1.3292,1.3405,1.3518,1.3626,1.3642,1.3701,1.382,1.3933,1.4008,1.4003,1.4105,1.4186,1.4196,1.4196,1.4196,1.4196,1.4196,1.4196,1.4196,1.4196,1.4239,1.4342,1.4363,1.4412,1.4514,1.4632,1.4697,1.4708,1.4805,1.4885,1.4896,1.4977,1.5063,1.5079,1.5155,1.5241,1.5246,1.5338,1.5386,1.5025,1.4655,1.4189,1.673,1.673,1.6648,1.6566,1.6394,1.6154,1.5914,1.5658,0.0,0.0,0.0,1.5431,1.5431,1.5431,1.5431,1.5431,1.5431,1.5431,1.5431,1.5431,1.5489,1.5518,1.5533,1.5848,1.6023,1.6096,1.6338,1.6402,1.6185,1.6192,1.5922,1.5291,1.502,1.4449,1.3683,1.2803,1.213,1.1505,1.1661,1.1758,1.1768,1.1989,1.2113,1.2205,1.2156,1.2265,1.2265,1.2172,1.2172,1.227,1.227,1.2265,1.2265,1.2172,1.2265,1.2172,1.227,1.227,1.2172,1.2215,1.2339,1.2587,1.2953,1.299,1.2565,1.2576,1.2759,1.3136,1.3173,1.3254,1.3459,1.3523,1.354,1.354,1.3583,1.3685,1.3857,1.389,1.3959,1.4153,1.418,1.4191,1.418,1.4186,1.4196,1.4196,1.4196,1.4196,1.4196,1.4196,1.4218,1.4266,1.4283,1.4342,1.4536,1.46,1.4676,1.481,1.4902,1.4945,1.495,1.4977,1.5004,1.5052,1.5187,1.5289,1.5322,1.5445,1.5596,1.5601,1.5601,1.5601,1.5601,1.5359,1.4976,1.673,1.673,1.6566,1.6394,1.6394,1.5899,1.5658,1.5431,1.5431,1.5431,1.5431,1.5431,1.5431,1.5431,1.5431,1.5431,1.5431,1.5431,1.5431,0.0,1.5723,1.5848,1.5862,1.6155,1.6448,1.6711,1.6769,1.693,1.7079,1.7101,1.6829,1.6355,1.6074,1.5284,1.3851,1.2883,1.2376,1.2224,1.2161,1.2091,1.2,1.2237,1.2366,1.2371,1.2554,1.2667,1.2662,1.2657,1.2662,1.2662,1.2662,1.2662,1.2662,1.2651,1.2662,1.2667,1.2662,1.2662,1.2667,1.2845,1.3066,1.3297,1.3389,1.3303,1.3044,1.3206,1.3357,1.3427,1.3427,1.3437,1.3486,1.3663,1.3771,1.3787,1.3959,1.4105,1.4126,1.4126,1.4143,1.4186,1.4196,1.4196,1.4196,1.4196,1.4196,1.4196,1.4218,1.4207,1.4218,1.4196,1.4277,1.4439,1.4487,1.4584,1.4772,1.4832,1.4864,1.4869,1.5079,1.5198,1.5198,1.5327,1.5429,1.5483,1.5499,1.5526,1.5537,1.5569,1.5601,1.5601,1.5601,1.5601,1.5601,1.5477,1.5359,1.673,1.673,1.6566,1.6476,1.6394,1.5899,1.565,1.5582,1.5431,1.5431,1.5431,1.5431,1.5431,1.5431,1.5431,1.5431,1.5431,1.5431,1.5526,1.5701,1.5848,1.6009,1.6177,1.6484,1.6704,1.6865,1.7026,1.7186,1.7318,1.7333,1.7052,1.6581,1.6103,1.5279,1.4212,1.362,1.318,1.2808,1.24,1.2248,1.2248,1.2479,1.2597,1.2603,1.2711,1.2759,1.2759,1.2759,1.2759,1.2759,1.2759,1.2759,1.2759,1.2759,1.2818,1.2937,1.2947,1.3007,1.3147,1.3249,1.3351,1.3475,1.3593,1.362,1.3507,1.348,1.3534,1.3647,1.3663,1.3723,1.3846,1.3965,1.4024,1.4029,1.4132,1.4191,1.4196,1.4196,1.4196,1.4196,1.4196,1.4196,1.4196,1.4196,1.4196,1.4202,1.4283,1.4374,1.4385,1.4492,1.4546,1.4552,1.4638,1.4815,1.5031,1.5079,1.5133,1.5246,1.5365,1.5435,1.544,1.5548,1.5591,1.5601,1.5601,1.5601,1.5601,1.5601,1.5601,1.5601,1.5601,1.5601,1.5601,1.5477,1.5121,1.673,1.673,1.673,1.6566,1.6394,1.5989,1.5741,1.565,1.5506,1.5431,1.5431,1.5431,1.5431,1.5431,1.5431,1.5431,1.5438,1.5511,1.5672,1.5906,1.606,1.625,1.6491,1.6813,1.6967,1.6989,1.7208,1.7333,1.7333,1.7333,1.7052,1.6676,1.592,1.5255,1.4682,1.4388,1.401,1.3323,1.2778,1.2495,1.2501,1.2673,1.2759,1.2759,1.2759,1.2759,1.2759,1.2759,1.2786,1.2834,1.2845,1.2867,1.2915,1.2926,1.3007,1.3163,1.319,1.3297,1.3529,1.3556,1.3583,1.3642,1.3803,1.3906,1.389,1.375,1.3706,1.3868,1.39,1.3986,1.4132,1.4186,1.4196,1.4196,1.4196,1.4196,1.4196,1.4196,1.4196,1.4196,1.4196,1.4196,1.4196,1.4196,1.4218,1.4299,1.4428,1.4541,1.4616,1.481,1.4869,1.4799,1.4853,1.5052,1.5278,1.5332,1.5397,1.5585,1.5591,1.558,1.5585,1.5596,1.5601,1.5601,1.5601,1.5601,1.5601,1.5601,1.5601,1.5601,1.5601,1.5601,1.5601,1.5359,1.5002,1.6738,1.673,1.673,1.6558,1.6394,1.6162,1.5914,1.5741,1.5506,1.5431,1.5431,1.5431,1.5431,1.5431,1.5431,1.5438,1.5467,1.5738,1.5891,1.6001,1.6513,1.6784,1.6835,1.7128,1.7282,1.7282,1.7311,1.7333,1.7333,1.7326,1.7145,1.6878,1.6116,1.573,1.554,1.4777,1.4106,1.3806,1.3312,1.292,1.2732,1.2754,1.2759,1.2759,1.2764,1.2759,1.2775,1.2759,1.2861,1.305,1.3071,1.3173,1.3367,1.3405,1.3416,1.3443,1.3448,1.3545,1.376,1.3787,1.3884,1.4099,1.4126,1.4148,1.4148,1.4132,1.4132,1.4143,1.4153,1.4159,1.4186,1.4196,1.4196,1.4196,1.4196,1.4196,1.4196,1.4196,1.4196,1.4196,1.4196,1.4196,1.4196,1.4213,1.4288,1.4444,1.4562,1.4676,1.4837,1.5058,1.5208,1.5176,1.5208,1.5305,1.5488,1.5564,1.5564,1.5596,1.5601,1.5601,1.5601,1.5601,1.5601,1.5601,1.5601,1.5601,1.5601,1.5601,1.5601,1.5601,1.5601,1.5601,1.5601,1.5359,1.5002,1.7066,1.6976,1.6976,1.6812,1.6566,1.6319,1.6237,1.6064,1.5914,1.5839,1.5839,1.5839,1.5673,1.5431,1.5431,1.5526,1.5723,1.5855,1.6126,1.6462,1.674,1.696,1.7143,1.7453,1.7426,1.7333,1.7426,1.7426,1.7326,1.7145,1.7066,1.6979,1.6312,1.5927,1.5737,1.5153,1.4669,1.4106,1.3945,1.3733,1.3439,1.3024,1.2759,1.2775,1.2894,1.2964,1.298,1.3104,1.3233,1.3319,1.3324,1.3373,1.347,1.3475,1.354,1.3669,1.3825,1.3943,1.4035,1.404,1.4083,1.4191,1.4196,1.4196,1.4196,1.4196,1.4196,1.4196,1.4196,1.4196,1.4196,1.4196,1.4196,1.4196,1.4196,1.4196,1.4196,1.4196,1.4196,1.4196,1.4196,1.4196,1.4213,1.4315,1.4428,1.4568,1.4745,1.4977,1.5101,1.5305,1.544,1.5451,1.5456,1.5488,1.5585,1.5601,1.5601,1.5601,1.5601,1.5601,1.5601,1.5601,1.5601,1.5601,1.5601,1.5601,1.5601,1.5601,1.5601,1.5607,1.5601,1.5601,1.5601,1.5483,1.5287,1.7302,1.7139,1.7057,1.6886,1.6648,1.6476,1.6386,1.6312,1.6162,1.6095,1.6185,1.6095,1.5974,1.5723,1.5646,1.5694,1.5906,1.6089,1.6411,1.6926,1.7037,1.7198,1.7419,1.7714,1.7714,1.7613,1.7721,1.7714,1.752,1.734,1.7261,1.716,1.669,1.6448,1.6232,1.5836,1.5499,1.5014,1.4887,1.4781,1.4483,1.3929,1.3537,1.3265,1.3314,1.3407,1.3407,1.3576,1.361,1.3675,1.3675,1.3604,1.3674,1.3674,1.375,1.3911,1.4089,1.4196,1.4196,1.4196,1.4196,1.4196,1.4196,1.4196,1.4196,1.4196,1.4196,1.4196,1.4196,1.4196,1.4196,1.4196,1.4196,1.4196,1.4196,1.4196,1.4196,1.4196,1.4196,1.4196,1.4196,1.4223,1.4293,1.4433,1.4568,1.4762,1.5031,1.5289,1.5343,1.5483,1.5596,1.5601,1.5601,1.5596,1.5601,1.5601,1.5601,1.5601,1.5601,1.5601,1.5601,1.5601,1.5601,1.5601,1.5601,1.5601,1.5601,1.5601,1.5612,1.5618,1.5655,1.5704,1.5725,1.5741,1.5745,1.7302,1.7057,1.6812,1.6738,1.6648,1.6476,1.6386,1.6296,1.6154,1.6185,1.6275,1.6177,1.6263,1.6468,1.629,1.6063,1.6009,1.661,1.6889,1.7,1.745,1.7699,1.7721,1.7994,1.8087,1.7994,1.8087,1.8087,1.7994,1.7994,1.7908,1.7643,1.7369,1.7312,1.7277,1.6926,1.6674,1.6593,1.6454,1.6179,1.5972,1.5859,1.5349,1.4456,1.4259,1.4265,1.427,1.4072,1.399,1.4228,1.4019,1.39,1.4116,1.4143,1.4143,1.4169,1.4186,1.4196,1.4196,1.4196,1.4196,1.4196,1.4196,1.4196,1.4196,1.4196,1.4196,1.4196,1.4196,1.4196,1.4196,1.4196,1.4196,1.4196,1.4196,1.4196,1.4196,1.4196,1.4196,1.4196,1.4218,1.4299,1.4482,1.4525,1.4772,1.5047,1.523,1.5327,1.5505,1.5585,1.5601,1.5601,1.5601,1.5601,1.5601,1.5601,1.5601,1.5601,1.5601,1.5601,1.5601,1.5601,1.5601,1.5601,1.5601,1.5601,1.5601,1.5612,1.5634,1.5693,1.5849,1.5908,1.5935,1.614,1.6118,1.7708,1.7456,1.7131,1.6976,1.6894,1.673,1.6566,1.6558,1.6492,1.6492,1.6582,1.65,1.6604,1.6761,1.6891,1.7018,1.6966,1.7304,1.7417,1.7712,1.7848,1.8001,1.8109,1.8288,1.8288,1.8288,1.828,1.828,1.8087,1.8087,1.8201,1.8203,1.802,1.7986,1.8177,1.8054,1.7817,1.7619,1.7917,1.7929,1.7387,1.7463,1.7358,1.6937,1.5944,1.5348,1.5342,1.5082,1.5012,1.5105,1.4786,1.4511,1.4493,1.4293,1.4196,1.4196,1.4196,1.4196,1.4196,1.4196,1.4196,1.4196,1.4196,1.4196,1.4196,1.4196,1.4196,1.4196,1.4196,1.4196,1.4196,1.4196,1.4196,1.4196,1.4196,1.4196,1.4196,1.4196,1.4196,1.4218,1.4309,1.4455,1.4584,1.4799,1.5052,1.5219,1.5375,1.5494,1.5564,1.5601,1.5601,1.5601,1.5601,1.5601,1.5601,1.5601,1.5601,1.5601,1.5601,1.5601,1.5601,1.5601,1.5601,1.5601,1.5601,1.5623,1.5639,1.579,1.579,1.586,1.6016,1.6156,1.6183,1.6339,1.6431,1.7789,1.7619,1.7294,1.7131,1.7049,1.6812,1.673,1.673,1.673,1.673,1.6746,1.6857,1.702,1.7274,1.7533,1.778,1.7993,1.7834,1.7865,1.8079,1.8187,1.8288,1.8388,1.8574,1.8566,1.8473,1.8566,1.8473,1.8381,1.8481,1.8558,1.8678,1.8674,1.8716,1.9011,1.8979,1.8818,1.8844,1.9284,1.9286,1.8855,1.8933,1.9056,1.8916,1.7895,1.6964,1.6658,1.6206,1.598,1.5879,1.5351,1.4922,1.4708,1.4504,1.4299,1.4299,1.4299,1.4196,1.4196,1.4196,1.4196,1.4196,1.4196,1.4196,1.4196,1.4196,1.4196,1.4196,1.4196,1.4196,1.4196,1.4196,1.4196,1.4196,1.4196,1.4196,1.4196,1.4196,1.4234,1.432,1.4433,1.4579,1.4762,1.5052,1.5246,1.5343,1.5505,1.5596,1.5601,1.5601,1.5601,1.5601,1.5601,1.5601,1.5601,1.5601,1.5601,1.5601,1.5601,1.5601,1.5601,1.5601,1.5601,1.5601,1.5623,1.5645,1.5747,1.5924,1.6016,1.6075,1.6242,1.642,1.6457,1.6511,1.6614,1.77,1.77,1.7294,1.7131,1.7139,1.6894,1.673,1.673,1.673,1.6828,1.6916,1.7187,1.7499,1.7795,1.8193,1.847,1.8648,1.8403,1.8141,1.8179,1.8373,1.8481,1.8481,1.8651,1.8735,1.8743,1.8735,1.8843,1.8798,1.9075,1.9162,1.9161,1.9353,1.9558,1.9605,1.9721,1.9758,2.0051,2.0349,2.0483,2.0522,2.0403,2.0411,2.0411,1.9753,1.9005,1.8067,1.745,1.6929,1.6624,1.5867,1.5227,1.4922,1.4713,1.46,1.4606,1.4401,1.4191,1.4196,1.4191,1.4196,1.4196,1.4196,1.4196,1.4196,1.4196,1.4196,1.4196,1.4196,1.4196,1.4196,1.4196,1.4196,1.4196,1.4196,1.4196,1.4196,1.4202,1.4283,1.4471,1.4573,1.4751,1.5085,1.5262,1.5365,1.5515,1.5585,1.5601,1.5601,1.5601,1.5601,1.5601,1.5601,1.5601,1.5601,1.5601,1.5601,1.5601,1.5601,1.5601,1.5601,1.5601,1.5601,1.5607,1.5693,1.5731,1.5962,1.6134,1.6264,1.635,1.6527,1.6651,1.6694,1.6737,1.684,1.787,1.787,1.7627,1.7529,1.7456,1.731,1.7147,1.7147,1.7229,1.736,1.758,1.7711,1.8096,1.8498,1.8807,1.8954,1.9288,1.9212,1.8928,1.8643,1.8643,1.8743,1.8743,1.8735,1.8827,1.8827,1.8827,1.8962,1.9177,1.9328,1.9574,1.9905,2.0063,2.0216,2.0523,2.0656,2.0829,2.0893,2.1224,2.1326,2.1318,2.1113,2.1027,2.1027,2.0506,1.999,1.945,1.8513,1.7786,1.7371,1.6743,1.6223,1.5595,1.516,1.4928,1.4821,1.4606,1.4504,1.4504,1.4293,1.4191,1.4196,1.4196,1.4196,1.4196,1.4196,1.4196,1.4196,1.4196,1.4196,1.4196,1.4196,1.4196,1.4196,1.4196,1.4196,1.4229,1.4336,1.4449,1.4557,1.4821,1.5085,1.5235,1.5359,1.5505,1.5569,1.5601,1.5601,1.5601,1.5601,1.5601,1.5601,1.5601,1.5601,1.5601,1.5601,1.5601,1.5601,1.5601,1.5601,1.5601,1.5607,1.5601,1.5698,1.5774,1.5941,1.6167,1.635,1.6495,1.6603,1.6732,1.6818,1.6883,1.6937,1.6985,1.8031,1.7959,1.7781,1.77,1.77,1.7473,1.7392,1.7416,1.754,1.7796,1.802,1.8311,1.858,1.8985,1.9166,1.9356,1.9571,1.9587,1.9404,1.9112,1.9112,1.9112,1.9112,1.9112,1.9112,1.9144,1.9241,1.941,1.9652,1.9926,2.0256,2.0627,2.0821,2.0982,2.1208,2.1318,2.142,2.1522,2.1733,2.1827,2.1725,2.1522,2.1318,2.1121,2.0609,2.0197,1.9783,1.8952,1.8213,1.7793,1.7279,1.6549,1.5922,1.5482,1.5148,1.5148,1.4928,1.4713,1.4606,1.4401,1.4293,1.4191,1.4196,1.4196,1.4196,1.4196,1.4196,1.4196,1.4196,1.4196,1.4196,1.4196,1.4196,1.4196,1.4196,1.4234,1.4315,1.4444,1.4638,1.4799,1.5068,1.5257,1.5397,1.5478,1.5601,1.5601,1.5601,1.5601,1.5601,1.5601,1.5601,1.5601,1.5601,1.5601,1.5601,1.5601,1.5601,1.5601,1.5601,1.5601,1.5601,1.5607,1.5612,1.5865,1.6,1.6237,1.6468,1.664,1.6791,1.6872,1.6894,1.6926,1.6958,1.6969,1.7001,1.8031,1.7959,1.7781,1.77,1.77,1.7554,1.7498,1.7573,1.7838,1.8121,1.8244,1.875,1.909,1.9223,1.9488,1.9637,1.9679,1.9671,1.9671,1.9671,1.9579,1.9579,1.9496,1.9487,1.952,1.9611,1.9832,2.0124,2.0219,2.0703,2.118,2.1163,2.1443,2.1709,2.1623,2.1725,2.1725,2.1725,2.203,2.203,2.1725,2.1725,2.1428,2.0925,2.0403,1.9879,1.9264,1.8632,1.8325,1.822,1.7272,1.6424,1.6004,1.569,1.5476,1.5476,1.5256,1.4928,1.4713,1.4606,1.4504,1.4299,1.4191,1.4196,1.4196,1.4196,1.4196,1.4196,1.4196,1.4196,1.4196,1.4196,1.4196,1.4196,1.4229,1.4331,1.4492,1.4568,1.4799,1.5106,1.5262,1.5343,1.5548,1.5585,1.5596,1.5601,1.5601,1.5601,1.5601,1.5601,1.5601,1.5601,1.5601,1.5601,1.5601,1.5601,1.5601,1.5601,1.5607,1.5612,1.5645,1.5666,1.5822,1.6064,1.6258,1.6511,1.6705,1.685,1.6931,1.6953,1.6974,1.6996,1.7001,1.7001,1.7001,1.8031,1.7959,1.7951,1.7951,1.7951,1.7878,1.804,1.8277,1.8379,1.8769,1.9211,1.9465,1.963,1.9957,2.0051,2.011,2.0119,2.0119,2.0119,2.0119,2.0119,1.9945,1.9679,1.9587,1.9719,1.9934,2.0168,2.0371,2.0875,2.1188,2.1321,2.1577,2.1659,2.1725,2.1725,2.192,2.203,2.203,2.2333,2.2333,2.203,2.1827,2.1428,2.0925,2.0197,1.9465,1.8938,1.801,1.7609,1.7748,1.6974,1.6318,1.5891,1.5785,1.5791,1.5678,1.5577,1.5369,1.5154,1.4821,1.4606,1.4498,1.4299,1.4196,1.4196,1.4196,1.4196,1.4196,1.4196,1.4196,1.4196,1.4196,1.4196,1.4218,1.4347,1.4471,1.4579,1.4859,1.5128,1.5241,1.5402,1.5515,1.5575,1.5601,1.5601,1.5601,1.5601,1.5601,1.5601,1.5601,1.5601,1.5601,1.5601,1.5601,1.5601,1.5601,1.5601,1.5601,1.5612,1.5623,1.5698,1.579,1.6075,1.6398,1.649,1.67,1.6834,1.6969,1.7001,1.7001,1.7001,1.7001,1.7001,1.7001,1.7001,1.8031,1.8031,1.8031,1.8031,1.8057,1.8194,1.8391,1.8631,1.8948,1.9299,1.9718,1.9924,2.0086,2.0283,2.0292,2.0292,2.0292,2.0292,2.0292,2.0292,2.0292,2.011,1.9936,1.9853,2.0038,2.0381,2.054,2.0933,2.1517,2.1727,2.1938,2.208,2.203,2.2139,2.2131,2.2232,2.2333,2.2333,2.2443,2.2443,2.1928,2.1827,2.1216,2.0498,1.9672,1.8938,1.7891,1.7166,1.6874,1.6893,1.6555,1.6211,1.5891,1.5885,1.5885,1.5885,1.5791,1.5583,1.5482,1.5154,1.4821,1.4606,1.4396,1.4293,1.4191,1.4196,1.4196,1.4196,1.4196,1.4196,1.4196,1.4196,1.4239,1.4352,1.4541,1.4676,1.4681,1.5015,1.5268,1.5392,1.551,1.5601,1.5601,1.5601,1.5601,1.5601,1.5601,1.5601,1.5601,1.5601,1.5601,1.5601,1.5601,1.5601,1.5601,1.5601,1.5634,1.5634,1.5763,1.5747,1.5871,1.5994,1.6285,1.6587,1.6716,1.6829,1.6931,1.7001,1.7001,1.7001,1.7001,1.7001,1.7001,1.6877,1.6877,1.8031,1.8031,1.8031,1.8031,1.8091,1.8425,1.8605,1.8793,1.9367,1.9735,1.9881,2.0155,2.0249,2.0292,2.0292,2.0292,2.0292,2.0292,2.0292,2.0292,2.0292,2.0292,2.0201,2.0201,2.0465,2.0857,2.1276,2.1645,2.1957,2.2398,2.2518,2.2552,2.2544,2.2552,2.2544,2.2544,2.2544,2.2443,2.2443,2.2241,2.1725,2.1522,2.1011,1.9879,1.8938,1.7891,1.6842,1.6324,1.633,1.6211,1.6217,1.6105,1.5885,1.5885,1.5885,1.5885,1.5891,1.5791,1.5589,1.5482,1.5261,1.4821,1.46,1.4498,1.4299,1.4196,1.4196,1.4196,1.4196,1.4196,1.4207,1.4213,1.4326,1.4498,1.474,1.4907,1.4966,1.5138,1.537,1.5558,1.5596,1.5601,1.5601,1.5601,1.5601,1.5601,1.5601,1.5601,1.5601,1.5601,1.5601,1.5601,1.5601,1.5601,1.5601,1.5601,1.5645,1.5688,1.5914,1.6016,1.6156,1.6312,1.6527,1.6732,1.684,1.691,1.6964,1.7001,1.7001,1.7001,1.7001,1.7001,1.7001,1.6877,1.6748,1.8031,1.8031,1.8031,1.8031,1.81,1.8434,1.8768,1.9076,1.9538,1.9915,2.0138,2.0257,2.0283,2.0292,2.0292,2.0292,2.0292,2.0292,2.0292,2.0292,2.0292,2.0292,2.0292,2.0292,2.0668,2.1148,2.1353,2.1764,2.2295,2.2475,2.2653,2.2544,2.2552,2.2552,2.2544,2.2544,2.2443,2.2232,2.2232,2.1928,2.1428,2.1224,2.0609,1.9576,1.8318,1.7272,1.6537,1.6111,1.6004,1.5998,1.5992,1.5992,1.5885,1.5885,1.5885,1.5885,1.5885,1.5891,1.5785,1.5583,1.5374,1.5035,1.4708,1.4504,1.4191,1.4196,1.4196,1.4196,1.4196,1.4196,1.4234,1.4369,1.4487,1.4632,1.4918,1.516,1.5208,1.537,1.5521,1.558,1.5601,1.5601,1.5601,1.5601,1.5601,1.5601,1.5601,1.5601,1.5601,1.5601,1.5601,1.5601,1.5601,1.5607,1.5618,1.565,1.5731,1.5838,1.6059,1.6242,1.6387,1.6538,1.6721,1.685,1.6953,1.6996,1.7001,1.7001,1.7001,1.7001,1.7007,1.6877,1.6748,1.6753,1.6623,1.8031,1.8031,1.8031,1.8031,1.8126,1.8622,1.8982,1.9264,1.9778,2.0103,2.0257,2.0292,2.0292,2.0292,2.0292,2.0292,2.0292,2.0292,2.0292,2.0292,2.0292,2.0292,2.0292,2.0352,2.0677,2.1302,2.1405,2.1833,2.2355,2.2443,2.2333,2.2342,2.2241,2.2139,2.2139,2.2241,2.2131,2.1928,2.1928,2.1615,2.1121,2.0925,2.0189,1.9042,1.7681,1.6743,1.6111,1.5998,1.5891,1.5885,1.5885,1.5885,1.5885,1.5885,1.5885,1.5885,1.5885,1.5885,1.5891,1.5791,1.5583,1.5256,1.4928,1.4713,1.4401,1.4299,1.4196,1.4196,1.4202,1.4223,1.4342,1.4439,1.4595,1.4875,1.5085,1.5289,1.5408,1.5531,1.5601,1.5601,1.5601,1.5601,1.5601,1.5601,1.5601,1.5601,1.5601,1.5601,1.5601,1.5601,1.5601,1.5601,1.5601,1.5612,1.5628,1.5698,1.5828,1.6,1.6242,1.6409,1.656,1.671,1.6867,1.6942,1.7001,1.7001,1.7001,1.7001,1.6877,1.6753,1.6753,1.6623,1.6494,1.6364,1.6234,1.8031,1.8031,1.8031,1.8066,1.8228,1.8853,1.9204,1.9376,1.9984,2.0257,2.0292,2.0292,2.0292,2.0292,2.0292,2.0292,2.0292,2.0292,2.0292,2.0292,2.0292,2.0292,2.0292,2.036,2.0677,2.1241,2.1413,2.1841,2.2255,2.2232,2.2131,2.203,2.1827,2.1733,2.1733,2.1632,2.1632,2.142,2.1428,2.1216,2.0712,2.0514,1.9672,1.8101,1.7153,1.6418,1.5998,1.5885,1.5885,1.5885,1.5885,1.5885,1.5885,1.5885,1.5885,1.5885,1.5885,1.5885,1.5885,1.5891,1.5791,1.5482,1.5261,1.4928,1.4606,1.4396,1.4299,1.4218,1.4245,1.4369,1.4552,1.4692,1.4875,1.5128,1.5262,1.5402,1.5537,1.5601,1.5601,1.5601,1.5601,1.5601,1.5601,1.5601,1.5601,1.5601,1.5601,1.5601,1.5601,1.5601,1.5601,1.5601,1.5601,1.5698,1.5736,1.5806,1.593,1.6194,1.6436,1.6571,1.6716,1.6706,1.6818,1.6969,1.7007,1.6877,1.6877,1.6748,1.6623,1.6499,1.6369,1.6364,1.6104,1.5839,1.5709,1.8031,1.8031,1.8031,1.8203,1.8545,1.8982,1.935,1.9684,2.0095,2.0283,2.0292,2.0292,2.0292,2.0292,2.0292,2.0292,2.0292,2.0292,2.0292,2.0292,2.0292,2.0292,2.0292,2.0218,2.0526,2.1035,2.1247,2.1612,2.2063,2.2123,2.1928,2.1725,2.1623,2.153,2.1326,2.1326,2.1019,2.0719,2.0719,2.0403,1.999,1.9576,1.8848,1.7483,1.6743,1.6318,1.5992,1.5885,1.5885,1.5885,1.5885,1.5885,1.5885,1.5885,1.5885,1.5885,1.5885,1.5885,1.5885,1.5885,1.5791,1.5589,1.5374,1.5148,1.4821,1.4504,1.4412,1.4272,1.4396,1.4573,1.4805,1.4955,1.5117,1.5284,1.5413,1.5537,1.5585,1.5601,1.5601,1.5601,1.5601,1.5601,1.5601,1.5601,1.5601,1.5601,1.5601,1.5601,1.5601,1.5601,1.5601,1.5601,1.5601,1.5736,1.5865,1.5951,1.6081,1.6393,1.6619,1.6727,1.6722,1.6684,1.6623,1.6748,1.6618,1.6623,1.6494,1.6359,1.6104,1.5979,1.5974,1.5969,1.5448,1.4922,1.453,1.8112,1.8031,1.8112,1.8327,1.8622,1.9007,1.9393,1.9769,2.0129,2.0292,2.0292,2.0292,2.0292,2.0292,2.0292,2.0292,2.0292,2.0292,2.0292,2.0292,2.0292,2.0201,2.011,2.0119,2.039,2.0749,2.0975,2.131,2.1862,2.1717,2.1522,2.1318,2.1121,2.0917,2.0609,2.0395,2.03,1.9894,1.9791,1.9583,1.9049,1.8534,1.7701,1.706,1.6537,1.6211,1.5992,1.5885,1.5885,1.5885,1.5885,1.5885,1.5885,1.5885,1.5885,1.5885,1.5885,1.5885,1.5885,1.5885,1.5791,1.5684,1.5583,1.5374,1.5047,1.4724,1.457,1.4505,1.4579,1.481,1.5047,1.5192,1.5289,1.5418,1.5537,1.5585,1.5601,1.5601,1.5601,1.5601,1.5601,1.5601,1.5601,1.5601,1.5601,1.5601,1.5601,1.5601,1.5601,1.5601,1.5607,1.5661,1.5693,1.5854,1.6027,1.6178,1.6274,1.6565,1.6764,1.6744,1.6673,1.6478,1.6364,1.6364,1.6364,1.6104,1.6104,1.5969,1.5714,1.5323,1.5057,1.466,1.4399,1.4006,1.3477,1.8273,1.8201,1.8353,1.8533,1.88,1.9033,1.9444,1.9855,2.0163,2.0292,2.0292,2.0292,2.0292,2.0292,2.0292,2.0292,2.0292,2.0292,2.0292,2.0292,2.0201,2.011,1.9936,1.9929,2.0044,2.0377,2.0475,2.0835,2.1399,2.1326,2.1011,2.0704,2.0411,1.9998,1.9576,1.9465,1.9264,1.9056,1.8952,1.8639,1.8115,1.7483,1.6961,1.6624,1.6318,1.6111,1.5885,1.5885,1.5885,1.5885,1.5885,1.5885,1.5885,1.5885,1.5885,1.5885,1.5885,1.5885,1.5885,1.5885,1.5891,1.5891,1.5684,1.5476,1.5189,1.4808,1.4598,1.4632,1.4832,1.5058,1.5268,1.5322,1.5413,1.5521,1.5585,1.5601,1.5601,1.5601,1.5601,1.5601,1.5601,1.5601,1.5601,1.5601,1.5601,1.5601,1.5601,1.5601,1.5601,1.5601,1.5628,1.5725,1.5822,1.5984,1.6183,1.6431,1.6549,1.6732,1.6744,1.67,1.6473,1.6369,1.6109,1.5844,1.5443,1.5183,1.5448,1.5313,1.4791,1.4268,1.3875,1.3477,1.2947,1.2549,1.2022,1.8442,1.862,1.8442,1.8772,1.9288,1.923,1.9573,2.018,2.0266,2.0292,2.0292,2.0292,2.0292,2.0292,2.0292,2.0292,2.0292,2.0292,2.0292,2.0292,2.011,1.9928,1.9853,1.9679,1.9743,1.9917,1.9908,2.0281,2.0664,2.0814,2.0506,1.999,1.968,1.9368,1.8639,1.8527,1.8318,1.7898,1.7793,1.7694,1.7279,1.6749,1.643,1.6318,1.6105,1.5998,1.5885,1.5885,1.5885,1.5885,1.5885,1.5885,1.5885,1.5885,1.5885,1.5885,1.5885,1.5885,1.5885,1.5885,1.5885,1.5891,1.5803,1.5577,1.5269,1.4905,1.482,1.5133,1.5203,1.5284,1.5461,1.5537,1.558,1.5585,1.5601,1.5601,1.5601,1.5601,1.5601,1.5601,1.5601,1.5601,1.5601,1.5601,1.5601,1.5601,1.5601,1.5601,1.5628,1.5645,1.5693,1.5801,1.6032,1.621,1.635,1.6597,1.6615,1.6899,1.6689,1.6499,1.6239,1.5984,1.5458,1.5062,1.4665,1.4268,1.4263,1.4002,1.3477,1.3083,1.2553,1.2022,1.1626,1.1097,1.0571,1.8692,1.8709,1.862,1.8889,1.946,1.9256,1.9598,2.018,2.0292,2.0292,2.0292,2.0292,2.0292,2.0292,2.0292,2.0292,2.0292,2.0292,2.0292,2.0201,2.0019,1.9845,1.9729,1.9515,1.9439,1.9392,1.9414,1.9318,1.9663,1.9879,1.9783,1.9049,1.8952,1.8534,1.7799,1.7694,1.7483,1.7166,1.6948,1.6849,1.6643,1.6324,1.6111,1.6111,1.5998,1.5885,1.5885,1.5885,1.5885,1.5885,1.5885,1.5885,1.5885,1.5885,1.5885,1.5885,1.5885,1.5885,1.5885,1.5885,1.5891,1.5946,1.603,1.5976,1.5458,1.5238,1.5096,1.5214,1.5375,1.5488,1.5564,1.5596,1.5601,1.5601,1.5601,1.5601,1.5601,1.5601,1.5601,1.5601,1.5601,1.5601,1.5601,1.5601,1.5601,1.5601,1.5601,1.5601,1.5671,1.5758,1.5822,1.5903,1.6178,1.6463,1.6466,1.6631,1.6599,1.6581,1.6317,1.6104,1.5849,1.5463,1.4936,1.4146,1.3617,1.3223,1.3087,1.2692,1.2297,1.1762,1.1097,1.07,1.0174,0.951,0.8981,1.8931,1.8709,1.8709,1.9062,1.9571,1.9341,1.9607,2.0249,2.0292,2.0292,2.0292,2.0292,2.0292,2.0292,2.0292,2.0292,2.0292,2.0292,2.0292,2.011,1.9928,1.9662,1.9393,1.9169,1.8928,1.8799,1.8799,1.8716,1.8532,1.8632,1.8632,1.8115,1.8115,1.7694,1.7173,1.6961,1.6849,1.6524,1.6318,1.6211,1.6211,1.6004,1.5891,1.5885,1.5885,1.5885,1.5885,1.5885,1.5885,1.5885,1.5885,1.5885,1.5885,1.5885,1.5885,1.5885,1.5885,1.5885,1.5885,1.5891,1.5922,1.6042,1.6017,1.604,1.5835,1.5637,1.5555,1.5354,1.5472,1.5564,1.5601,1.5601,1.5601,1.5601,1.5601,1.5601,1.5601,1.5601,1.5601,1.5601,1.5601,1.5601,1.5601,1.5601,1.5601,1.5601,1.5601,1.5601,1.5704,1.5822,1.5968,1.6064,1.6328,1.6619,1.6525,1.6518,1.6478,1.6239,1.5974,1.5709,1.5323,1.48,1.4141,1.3354,1.2565,1.1769,1.1233,1.1108,1.0979,1.0445,0.9779,0.925,0.872,0.8189,0.7789,1.8843,1.8709,1.8709,1.9071,1.9692,1.9341,1.9598,2.0275,2.0292,2.0292,2.0292,2.0292,2.0292,2.0292,2.0292,2.0292,2.0292,2.0292,2.0201,1.9936,1.9671,1.9412,1.9095,1.8783,1.8514,1.8343,1.8289,1.7971,1.762,1.7483,1.749,1.7285,1.7279,1.6855,1.6537,1.643,1.6318,1.6099,1.5992,1.5998,1.5998,1.5891,1.5885,1.5885,1.5885,1.5885,1.5885,1.5885,1.5885,1.5885,1.5885,1.5885,1.5885,1.5885,1.5885,1.5885,1.5946,1.5952,1.5952,1.597,1.6054,1.6138,1.6057,1.5977,1.6115,1.5572,1.5348,1.551,1.5575,1.5591,1.5601,1.5601,1.5601,1.5601,1.5601,1.5601,1.5601,1.5601,1.5601,1.5601,1.5601,1.5601,1.5601,1.5601,1.5601,1.5601,1.5612,1.5612,1.5747,1.5881,1.6091,1.6264,1.6501,1.661,1.6415,1.6369,1.6109,1.5714,1.5318,1.5057,1.4796,1.4141,1.3223,1.2425,1.1505,1.0442,0.9646,0.9513,0.9383,0.8853,0.8456,0.8187,0.792,0.7522,0.7121,1.8772,1.8727,1.8786,1.9108,1.9589,1.9341,1.9598,2.0215,2.0292,2.0292,2.0292,2.0292,2.0292,2.0292,2.0292,2.0292,2.0292,2.011,2.0027,1.9754,1.9487,1.9241,1.8981,1.8728,1.839,1.8081,1.7771,1.7337,1.6829,1.6749,1.6537,1.6537,1.6643,1.643,1.6111,1.6105,1.5998,1.5992,1.5885,1.5885,1.5885,1.5885,1.5885,1.5885,1.5885,1.5885,1.5885,1.5885,1.5885,1.5885,1.5885,1.5885,1.5885,1.5885,1.5897,1.5934,1.603,1.6109,1.6139,1.6169,1.6326,1.6588,1.6325,1.612,1.6226,1.5803,1.5494,1.5575,1.5601,1.5601,1.5601,1.5601,1.5601,1.5601,1.5601,1.5601,1.5601,1.5601,1.5601,1.5601,1.5601,1.5601,1.5601,1.5601,1.5601,1.5601,1.5612,1.5655,1.5801,1.5994,1.6102,1.618,1.6408,1.6285,1.6208,1.5979,1.5719,1.5192,1.4665,1.4403,1.3879,1.3091,1.2173,1.1372,1.0439,0.951,0.8715,0.8182,0.7917,0.7786,0.7655,0.7388,0.6987,0.6853,0.6721,1.854,1.8495,1.8698,1.9063,1.9495,1.9368,1.9701,2.0215,2.0292,2.0292,2.0292,2.0292,2.0292,2.0292,2.0292,2.0201,2.011,2.0019,1.9837,1.9612,1.9434,1.9129,1.8858,1.8513,1.8046,1.7702,1.7311,1.6849,1.643,1.6217,1.6111,1.6105,1.6111,1.6004,1.5998,1.5885,1.5885,1.5885,1.5885,1.5885,1.5885,1.5885,1.5885,1.5885,1.5885,1.5885,1.5885,1.5885,1.5885,1.5885,1.5885,1.5885,1.5885,1.5897,1.5928,1.6042,1.6169,1.6308,1.6398,1.6537,1.6688,1.6738,1.6466,1.636,1.6256,1.5952,1.5585,1.5591,1.5601,1.5601,1.5601,1.5601,1.5601,1.5601,1.5601,1.5601,1.5601,1.5601,1.5601,1.5601,1.5601,1.5601,1.5601,1.5601,1.5612,1.565,1.5741,1.579,1.5903,1.6006,1.605,1.6113,1.6167,1.6012,1.5709,1.5453,1.5192,1.4403,1.3875,1.3354,1.2832,1.1909,1.1115,1.0313,0.938,0.8448,0.7781,0.7517,0.7118,0.6987,0.6853,0.6853,0.6721,0.6587,0.6587,1.8282,1.8074,1.8442,1.8912,1.9444,1.9651,1.9932,2.0266,2.0292,2.0292,2.0292,2.0292,2.0292,2.0292,2.0201,2.011,1.9953,1.987,1.972,1.9333,1.9217,1.8869,1.8469,1.8024,1.7715,1.7105,1.68,1.6537,1.6217,1.6105,1.5891,1.5891,1.5998,1.5998,1.5885,1.5885,1.5885,1.5885,1.5885,1.5885,1.5885,1.5885,1.5885,1.5885,1.5885,1.5885,1.5885,1.5885,1.5885,1.5885,1.5885,1.5885,1.5885,1.5885,1.5988,1.6217,1.629,1.6453,1.6682,1.693,1.6839,1.668,1.6494,1.638,1.607,1.5844,1.5601,1.5601,1.5601,1.5601,1.5601,1.5601,1.5601,1.5601,1.5601,1.5601,1.5601,1.5601,1.5601,1.5601,1.5601,1.5601,1.5601,1.5607,1.5618,1.5688,1.5828,1.5941,1.5915,1.6016,1.5934,1.5854,1.5878,1.5394,1.5187,1.4926,1.4403,1.3613,1.2824,1.2165,1.1505,1.0581,0.9782,0.925,0.8448,0.765,0.725,0.6717,0.6719,0.6721,0.6587,0.6587,0.6453,0.6453,0.6453,1.8121,1.801,1.8549,1.888,1.9135,1.9493,1.9949,2.0257,2.0292,2.0292,2.0292,2.0292,2.0201,2.011,2.0027,1.9945,1.972,1.9783,1.9544,1.9311,1.9143,1.8762,1.8282,1.774,1.7351,1.6885,1.6511,1.6217,1.5998,1.5891,1.5885,1.5885,1.5885,1.5885,1.5885,1.5885,1.5885,1.5885,1.5885,1.5885,1.5885,1.5885,1.5885,1.5885,1.5885,1.5885,1.5885,1.5885,1.5885,1.5885,1.5885,1.5885,1.5891,1.5897,1.5923,1.6065,1.6097,1.6327,1.6506,1.6623,1.6757,1.668,1.6474,1.62,1.6081,1.572,1.5601,1.5601,1.5601,1.5601,1.5601,1.5601,1.5601,1.5601,1.5601,1.5601,1.5601,1.5601,1.5601,1.5601,1.5601,1.5601,1.5601,1.5677,1.5698,1.5571,1.5719,1.5734,1.5839,1.5799,1.5671,1.5564,1.5424,1.4912,1.4534,1.4006,1.3346,1.2429,1.1501,1.0836,1.0044,0.9383,0.8851,0.8182,0.765,0.7118,0.6851,0.6585,0.6587,0.6453,0.6453,0.6453,0.6453,0.6453,0.6453,1.7959,1.7955,1.8515,1.874,1.8824,1.9365,1.9825,2.0011,2.0027,2.0027,2.0027,2.0027,1.9936,1.9853,1.9762,1.9695,1.9499,1.9515,1.9296,1.907,1.8814,1.8555,1.8129,1.7571,1.699,1.6611,1.6318,1.6111,1.5891,1.5885,1.5885,1.5885,1.5885,1.5885,1.5885,1.5885,1.5885,1.5885,1.5885,1.5885,1.5885,1.5885,1.5885,1.5885,1.5885,1.5885,1.5885,1.5885,1.5885,1.5885,1.5885,1.5891,1.5903,1.5899,1.5928,1.5969,1.6119,1.642,1.6434,1.6397,1.6514,1.6532,1.6324,1.6081,1.5963,1.572,1.5601,1.5601,1.5601,1.5601,1.5601,1.5601,1.5601,1.5601,1.5601,1.5601,1.5601,1.5601,1.5601,1.5601,1.5601,1.5601,1.5634,1.5725,1.568,1.5587,1.5494,1.5504,1.5648,1.5468,1.5248,1.4971,1.4665,1.4006,1.3346,1.2684,1.2029,1.1108,1.0313,0.9513,0.8984,0.8454,0.7784,0.7383,0.7118,0.6853,0.6587,0.6453,0.6453,0.6453,0.6453,0.6453,0.6453,0.6453,0.6453,1.7878,1.7826,1.8439,1.8671,1.8622,1.9159,1.9479,1.9587,1.9587,1.9587,1.9587,1.9587,1.9487,1.9496,1.9512,1.9414,1.9233,1.9225,1.8977,1.8647,1.8448,1.82,1.7716,1.7128,1.6685,1.6411,1.6111,1.5998,1.5885,1.5885,1.5885,1.5885,1.5885,1.5885,1.5885,1.5885,1.5885,1.5885,1.5885,1.5885,1.5885,1.5885,1.5885,1.5885,1.5885,1.5885,1.5885,1.5885,1.5885,1.5885,1.5885,1.5903,1.5881,1.5831,1.5963,1.6179,1.6252,1.6317,1.6284,1.6194,1.6081,1.62,1.6081,1.5844,1.572,1.5601,1.5601,1.5601,1.5601,1.5601,1.5601,1.5601,1.5601,1.5601,1.5601,1.5601,1.5601,1.5601,1.5601,1.5601,1.5601,1.5623,1.5698,1.5785,1.5687,1.5556,1.5472,1.5241,1.5248,1.4852,1.4716,1.434,1.3875,1.3087,1.2293,1.1497,1.0704,0.9915,0.9117,0.8451,0.7922,0.7655,0.7254,0.6987,0.6721,0.6589,0.6453,0.6453,0.6453,0.6453,0.6453,0.6453,0.6453,0.6453,0.6453,1.7778,1.7829,1.7948,1.8105,1.8289,1.8271,1.8651,1.9296,1.9104,1.9012,1.9028,1.902,1.8928,1.8843,1.898,1.8863,1.8839,1.8837,1.8596,1.8332,1.8011,1.7617,1.7174,1.6592,1.6318,1.6105,1.5998,1.5885,1.5885,1.5885,1.5885,1.5885,1.5885,1.5885,1.5885,1.5885,1.5885,1.5885,1.5885,1.5885,1.5885,1.5885,1.5885,1.5885,1.5885,1.5885,1.5885,1.5885,1.5885,1.5885,1.5891,1.5839,1.5867,1.584,1.5899,1.58,1.587,1.5828,1.5833,1.5839,1.5726,1.5844,1.5726,1.572,1.5601,1.5601,1.5601,1.5601,1.5601,1.5601,1.5601,1.5601,1.5601,1.5601,1.5601,1.5601,1.5601,1.5601,1.5601,1.5601,1.5601,1.5563,1.5643,1.565,1.5447,1.5477,1.5311,1.5066,1.4775,1.4349,1.4002,1.3744,1.282,1.1897,1.0969,1.0174,0.938,0.872,0.8053,0.7653,0.7388,0.7121,0.6721,0.6587,0.6587,0.6589,0.6453,0.6453,0.6453,0.6453,0.6453,0.6453,0.6453,0.6453,0.6453,1.7516,1.7633,1.7463,1.7606,1.7667,1.7439,1.7714,1.8187,1.8172,1.8164,1.8172,1.8172,1.8172,1.8125,1.8312,1.8275,1.7974,1.8382,1.8288,1.7777,1.76,1.7121,1.6636,1.6318,1.6111,1.5891,1.5885,1.5885,1.5885,1.5885,1.5885,1.5885,1.5885,1.5885,1.5885,1.5885,1.5885,1.5885,1.5885,1.5885,1.5885,1.5885,1.5885,1.5885,1.5885,1.5885,1.5885,1.5885,1.5891,1.5928,1.5845,1.5892,1.5806,1.5812,1.5745,1.5693,1.5606,1.5709,1.572,1.5601,1.5601,1.5601,1.5601,1.5601,1.5601,1.5601,1.5601,1.5601,1.5601,1.5601,1.5601,1.5601,1.5601,1.5601,1.5601,1.5601,1.5601,1.5601,1.5601,1.5601,1.5536,1.5502,1.5487,1.538,1.5329,1.5231,1.5046,1.466,1.4196,1.3709,1.335,1.296,1.1769,1.0707,0.9779,0.9114,0.8451,0.792,0.7388,0.6987,0.6719,0.6719,0.6587,0.6587,0.6453,0.6453,0.6453,0.6453,0.6453,0.6453,0.6453,0.6453,0.6453,0.6453,0.6453,1.7036,1.718,1.6995,1.6973,1.6901,1.6574,1.6602,1.6725,1.6965,1.7145,1.7145,1.7138,1.7167,1.7297,1.7587,1.759,1.7561,1.781,1.766,1.7166,1.6935,1.6636,1.643,1.6111,1.5998,1.5891,1.5885,1.5885,1.5885,1.5885,1.5885,1.5885,1.5885,1.5885,1.5885,1.5885,1.5885,1.5885,1.5885,1.5885,1.5885,1.5885,1.5885,1.5885,1.5885,1.5885,1.5885,1.5891,1.5897,1.5893,1.5898,1.5834,1.577,1.5693,1.5687,1.559,1.5575,1.5591,1.5601,1.5601,1.5601,1.5601,1.5601,1.5601,1.5601,1.5601,1.5601,1.5601,1.5601,1.5601,1.5601,1.5601,1.5601,1.5601,1.5601,1.5601,1.5601,1.5483,1.5477,1.5385,1.535,1.533,1.5416,1.5319,1.5162,1.5017,1.4632,1.4232,1.3468,1.282,1.2293,1.1905,1.0843,0.9649,0.8848,0.8182,0.765,0.7118,0.6719,0.6587,0.6587,0.6587,0.6453,0.6453,0.6453,0.6453,0.6453,0.6453,0.6453,0.6453,0.6453,0.6453,0.6453,0.6453,0.6453,1.6431,1.6565,1.6675,1.6455,1.6096,1.5818,1.5635,1.5471,1.5553,1.5825,1.6109,1.6224,1.6334,1.6539,1.6819,1.692,1.7027,1.7171,1.6963,1.673,1.6424,1.6318,1.6105,1.5998,1.5885,1.5885,1.5885,1.5885,1.5885,1.5885,1.5885,1.5885,1.5885,1.5885,1.5885,1.5885,1.5885,1.5885,1.5885,1.5891,1.5891,1.5891,1.5885,1.5885,1.5885,1.5891,1.5891,1.5903,1.5809,1.5849,1.5805,1.5829,1.5738,1.5693,1.5628,1.5591,1.5601,1.5601,1.5601,1.5601,1.5601,1.5601,1.5601,1.5601,1.5601,1.5601,1.5601,1.5601,1.5601,1.5601,1.5601,1.5601,1.5601,1.5601,1.5601,1.5601,1.5601,1.5359,1.524,1.5204,1.5047,1.5105,1.519,1.5031,1.487,1.4493,1.3926,1.3341,1.2421,1.1765,1.0836,1.0313,0.9649,0.8717,0.7917,0.7519,0.7118,0.6853,0.6587,0.6587,0.6453,0.6453,0.6453,0.6453,0.6453,0.6453,0.6453,0.6453,0.6453,0.6453,0.6453,0.6453,0.6453,0.6453,0.6453,1.5741,1.5892,1.6044,1.573,1.535,1.5159,1.4975,1.4783,1.4783,1.4885,1.5159,1.5376,1.5615,1.5895,1.6175,1.6374,1.6458,1.6615,1.6493,1.6211,1.6111,1.5998,1.5891,1.5885,1.5885,1.5885,1.5885,1.5885,1.5885,1.5885,1.5885,1.5885,1.5885,1.5885,1.5885,1.5885,1.5885,1.5885,1.5885,1.5785,1.5791,1.5785,1.5885,1.5885,1.5785,1.5791,1.5737,1.566,1.5711,1.5702,1.5735,1.5704,1.566,1.5617,1.558,1.5601,1.5601,1.5601,1.5601,1.5601,1.5601,1.5601,1.5601,1.5601,1.5601,1.5601,1.5601,1.5601,1.5601,1.5601,1.5601,1.5601,1.5601,1.5601,1.5601,1.5477,1.5359,1.5121,1.508,1.5093,1.4836,1.4607,1.4553,1.4097,1.4038,1.3913,1.3341,1.2557,1.1637,1.0575,0.9779,0.8984,0.8454,0.792,0.7386,0.7118,0.6719,0.6587,0.6453,0.6453,0.6453,0.6453,0.6453,0.6453,0.6453,0.6453,0.6453,0.6453,0.6453,0.6453,0.6453,0.6453,0.6453,0.6453,0.6453,1.5041,1.5237,1.5304,1.5064,1.4694,1.4688,1.449,1.4394,1.4298,1.4298,1.4394,1.4885,1.5164,1.5461,1.5682,1.5781,1.5958,1.6218,1.6092,1.5998,1.5891,1.5891,1.5891,1.5885,1.5885,1.5885,1.5885,1.5885,1.5885,1.5885,1.5885,1.5885,1.5885,1.5885,1.5885,1.5885,1.5885,1.5891,1.5785,1.5684,1.5684,1.5684,1.5785,1.5684,1.5583,1.5493,1.5479,1.5476,1.5395,1.5457,1.5602,1.5638,1.5574,1.558,1.5585,1.5601,1.5601,1.5601,1.5601,1.5601,1.5601,1.5601,1.5601,1.5601,1.5601,1.5601,1.5601,1.5601,1.5601,1.5601,1.5601,1.5601,1.5601,1.5483,1.5477,1.5364,1.5007,1.4675,1.4701,1.4729,1.4508,1.4135,1.378,1.3306,1.3047,1.2914,1.2297,1.1641,1.0711,0.9646,0.8715,0.8184,0.7653,0.7254,0.6853,0.6853,0.6587,0.6587,0.6453,0.6453,0.6453,0.6453,0.6453,0.6453,0.6453,0.6453,0.6453,0.6453,0.6453,0.6453,0.6453,0.6453,0.6453,0.6453,0.6453,1.4467,1.4692,1.4836,1.4783,1.4688,1.449,1.4298,1.4304,1.4298,1.4298,1.4298,1.4437,1.4649,1.5236,1.5172,1.5427,1.594,1.5986,1.5986,1.5885,1.5885,1.5885,1.5885,1.5885,1.5885,1.5885,1.5885,1.5885,1.5885,1.5885,1.5885,1.5885,1.5885,1.5885,1.5885,1.5885,1.5891,1.5785,1.5684,1.5583,1.5482,1.5476,1.5369,1.5256,1.5148,1.5275,1.5292,1.5378,1.5546,1.5635,1.5682,1.5622,1.5575,1.5601,1.5601,1.5601,1.5601,1.5601,1.5601,1.5601,1.5601,1.5601,1.5601,1.5601,1.5601,1.5601,1.5601,1.5477,1.5477,1.5601,1.5601,1.5477,1.5477,1.5364,1.5359,1.5028,1.468,1.4309,1.408,1.389,1.356,1.3295,1.2772,1.2382,1.1822,1.1505,1.084,1.0047,0.9649,0.8717,0.7784,0.7386,0.6989,0.6721,0.6587,0.6587,0.6587,0.6453,0.6453,0.6453,0.6453,0.6453,0.6453,0.6453,0.6453,0.6453,0.6453,0.6453,0.6453,0.6453,0.6453,0.6453,0.6453,0.6453,0.6453]},{"header":{"parameterUnit":"m.s-1","parameterCategory":1,"la1":31.0,"la2":29.5877,"lo1":-88.7671,"lo2":-86.6584,"dy":0.0162,"dx":0.0185,"nx":115,"ny":88,"refTime":"2023-02-24T18:00:00:Z","depth":0,"parameterNumber":3,"parameterNumberName":"V-component_of_WINDS"},"data":[0.0,0.0,0.0,0.0,0.0,0.0,0.0,0.0,0.0,0.0,0.0,0.0,0.0,0.0,0.0,0.0,0.0,0.0,0.0,0.0,0.0,0.0,0.0,0.0,0.0,0.0,0.0,0.0,0.0,0.0,0.0,0.0,0.0,0.0,0.0,0.0,0.0,0.0,0.0,0.0,0.0,0.0,0.0,0.0,0.0,0.0,0.0,0.0,0.0,0.0,0.0,0.0,0.0,0.0,0.0,0.0,0.0,0.0,0.0,0.0,0.0,0.0,0.0,0.0,0.0,0.0,0.0,0.0,0.0,0.0,0.0,0.0,0.0,0.0,0.0,0.0,0.0,0.0,0.0,0.0,0.0,0.0,0.0,0.0,0.0,0.0,0.0,0.0,0.0,0.0,0.0,0.0,0.0,0.0,0.0,0.0,0.0,0.0,0.0,0.0,0.0,0.0,0.0,0.0,0.0,0.0,0.0,0.0,0.0,0.0,0.0,0.0,0.0,0.0,0.0,0.0,0.0,0.0,0.0,0.0,0.0,0.0,0.0,0.0,0.0,0.0,0.0,0.0,0.0,0.0,0.0,0.0,0.0,0.0,0.0,0.0,0.0,0.0,0.0,0.0,0.0,0.0,0.0,0.0,0.0,0.0,0.0,0.0,0.0,0.0,0.0,0.0,0.0,0.0,0.0,0.0,0.0,0.0,0.0,0.0,0.0,0.0,0.0,0.0,0.0,0.0,0.0,0.0,0.0,0.0,0.0,0.0,0.0,0.0,0.0,0.0,0.0,0.0,0.0,0.0,0.0,0.0,0.0,0.0,0.0,0.0,0.0,0.0,0.0,0.0,0.0,0.0,0.0,0.0,0.0,0.0,0.0,0.0,0.0,0.0,0.0,0.0,0.0,0.0,0.0,0.0,0.0,0.0,0.0,0.0,0.0,0.0,0.0,0.0,0.0,0.0,0.0,0.0,0.0,0.0,0.0,0.0,0.0,0.0,0.0,0.0,0.0,0.0,0.0,0.0,0.0,0.0,0.0,0.0,0.0,0.0,0.0,0.0,0.0,0.0,0.0,0.0,0.0,0.0,0.0,0.0,0.0,0.0,0.0,0.0,0.0,0.0,0.0,0.0,0.0,0.0,0.0,0.0,0.0,0.0,0.0,0.0,0.0,0.0,0.0,0.0,0.0,0.0,0.0,0.0,0.0,0.0,0.0,0.0,0.0,0.0,0.0,0.0,0.0,0.0,0.0,0.0,0.0,0.0,0.0,0.0,0.0,0.0,0.0,0.0,0.0,0.0,0.0,0.0,0.0,0.0,0.0,0.0,0.0,0.0,0.0,0.0,0.0,0.0,0.0,0.0,0.0,0.0,0.0,0.0,0.0,0.0,0.0,0.0,0.0,0.0,0.0,0.0,0.0,0.0,0.0,0.0,0.0,0.0,0.0,0.0,0.0,0.0,0.0,0.0,0.0,0.0,0.0,0.0,0.0,0.0,0.0,0.0,0.0,0.0,0.0,0.0,0.0,0.0,0.0,0.0,0.0,0.0,0.0,0.0,0.0,0.0,0.0,0.0,0.0,0.0,0.0,0.0,0.0,0.0,0.0,0.0,0.0,0.0,0.0,0.0,0.0,0.0,0.0,0.0,0.0,0.0,0.0,0.0,0.0,0.0,0.0,0.0,0.0,0.0,0.0,0.0,0.0,0.0,0.0,0.0,0.0,0.0,0.0,0.0,0.0,0.0,0.0,0.0,0.0,0.0,0.0,0.0,0.0,0.0,0.0,0.0,0.0,0.0,0.0,0.0,0.0,0.0,0.0,0.0,0.0,0.0,0.0,0.0,0.0,0.0,0.0,0.0,0.0,0.0,0.0,0.0,0.0,0.0,0.0,0.0,0.0,0.0,0.0,0.0,0.0,0.0,0.0,0.0,0.0,0.0,0.0,0.0,0.0,0.0,0.0,0.0,0.0,0.0,0.0,0.0,0.0,0.0,0.0,0.0,0.0,0.0,0.0,0.0,0.0,0.0,0.0,0.0,0.0,0.0,0.0,0.0,0.0,0.0,0.0,0.0,0.0,0.0,0.0,0.0,0.0,0.0,0.0,0.0,0.0,0.0,0.0,0.0,0.0,0.0,0.0,0.0,0.0,0.0,0.0,0.0,0.0,0.0,0.0,0.0,0.0,0.0,0.0,0.0,0.0,0.0,0.0,0.0,0.0,0.0,0.0,0.0,0.0,0.0,0.0,0.0,0.0,0.0,0.0,0.0,0.0,0.0,0.0,0.0,0.0,0.0,0.0,0.0,0.0,0.0,0.0,0.0,0.0,0.0,0.0,0.0,0.0,0.0,0.0,0.0,0.0,0.0,0.0,0.0,0.0,0.0,0.0,0.0,0.0,0.0,0.0,0.0,0.0,0.0,0.0,0.0,0.0,0.0,0.0,0.0,0.0,0.0,0.0,0.0,0.0,0.0,0.0,0.0,0.0,0.0,0.0,0.0,0.0,0.0,0.0,0.0,0.0,0.0,0.0,0.0,0.0,0.0,0.0,0.0,0.0,0.0,0.0,0.0,0.0,0.0,0.0,0.0,0.0,0.0,0.0,0.0,0.0,0.0,0.0,0.0,0.0,0.0,0.0,0.0,0.0,0.0,0.0,0.0,0.0,0.0,0.0,0.0,0.0,0.0,0.0,0.0,0.0,0.0,0.0,0.0,0.0,0.0,0.0,0.0,0.0,0.0,0.0,0.0,0.0,0.0,0.0,0.0,0.0,0.0,0.0,0.0,0.0,0.0,0.0,0.0,0.0,0.0,0.0,0.0,0.0,0.0,0.0,0.0,0.0,0.0,0.0,0.0,0.0,0.0,0.0,0.0,0.0,0.0,0.0,0.0,0.0,0.0,0.0,0.0,0.0,0.0,0.0,0.0,0.0,0.0,0.0,0.0,0.0,0.0,0.0,0.0,0.0,0.0,0.0,0.0,0.0,0.0,0.0,0.0,0.0,0.0,0.0,0.0,0.0,0.0,0.0,0.0,0.0,0.0,0.0,0.0,0.0,0.0,0.0,0.0,0.0,0.0,0.0,0.0,0.0,0.0,0.0,0.0,0.0,0.0,0.0,0.0,0.0,0.0,0.0,0.0,0.0,0.0,0.0,0.0,0.0,0.0,0.0,0.0,0.0,0.0,0.0,0.0,0.0,0.0,0.0,0.0,0.0,0.0,0.0,0.0,0.0,0.0,0.0,0.0,0.0,0.0,0.0,0.0,0.0,0.0,0.0,0.0,0.0,0.0,0.0,0.0,0.0,0.0,0.0,0.0,0.0,0.0,0.0,0.0,0.0,0.0,0.0,0.0,0.0,0.0,0.0,0.0,0.0,0.0,0.0,0.0,0.0,0.0,0.0,0.0,0.0,0.0,0.0,0.0,0.0,0.0,0.0,0.0,0.0,0.0,0.0,0.0,0.0,0.0,0.0,0.0,0.0,0.0,0.0,0.0,0.0,0.0,0.0,0.0,0.0,0.0,0.0,0.0,0.0,0.0,0.0,0.0,0.0,0.0,0.0,0.0,0.0,0.0,0.0,0.0,0.0,0.0,0.0,0.0,0.0,0.0,0.0,0.0,0.0,0.0,0.0,0.0,0.0,0.0,0.0,0.0,0.0,0.0,0.0,0.0,0.0,0.0,0.0,0.0,0.0,0.0,0.0,0.0,0.0,0.0,0.0,0.0,0.0,0.0,0.0,0.0,0.0,0.0,0.0,0.0,0.0,0.0,0.0,0.0,0.0,0.0,0.0,0.0,0.0,0.0,0.0,0.0,0.0,0.0,0.0,0.0,0.0,0.0,0.0,0.0,0.0,0.0,0.0,0.0,0.0,0.0,0.0,0.0,0.0,0.0,0.0,0.0,0.0,0.0,0.0,0.0,0.0,0.0,0.0,0.0,0.0,0.0,0.0,0.0,0.0,0.0,0.0,0.0,0.0,0.0,0.0,0.0,0.0,0.0,0.0,0.0,0.0,0.0,0.0,0.0,0.0,0.0,0.0,0.0,0.0,0.0,0.0,0.0,0.0,0.0,0.0,0.0,0.0,0.0,0.0,0.0,0.0,0.0,0.0,0.0,0.0,0.0,0.0,0.0,0.0,0.0,0.0,0.0,0.0,0.0,0.0,0.0,0.0,0.0,0.0,0.0,0.0,0.0,0.0,0.0,0.0,0.0,0.0,0.0,0.0,0.0,0.0,0.0,0.0,0.0,0.0,0.0,0.0,0.0,0.0,0.0,0.0,0.0,0.0,0.0,-2.008,0.0,0.0,0.0,0.0,0.0,0.0,0.0,0.0,0.0,0.0,0.0,0.0,0.0,0.0,0.0,0.0,0.0,0.0,0.0,0.0,0.0,0.0,0.0,0.0,0.0,0.0,0.0,0.0,0.0,0.0,0.0,0.0,0.0,0.0,0.0,0.0,0.0,0.0,0.0,0.0,0.0,0.0,0.0,0.0,0.0,0.0,0.0,0.0,0.0,0.0,0.0,0.0,0.0,0.0,0.0,0.0,0.0,0.0,0.0,0.0,0.0,0.0,0.0,0.0,0.0,0.0,0.0,0.0,0.0,0.0,0.0,0.0,0.0,0.0,0.0,0.0,0.0,0.0,0.0,0.0,0.0,0.0,0.0,0.0,0.0,0.0,0.0,0.0,0.0,0.0,0.0,0.0,0.0,0.0,0.0,0.0,0.0,0.0,0.0,0.0,0.0,0.0,0.0,0.0,0.0,0.0,0.0,0.0,0.0,0.0,-2.0166,-2.0166,-2.02,-2.0235,-2.0308,0.0,0.0,0.0,0.0,0.0,0.0,0.0,0.0,0.0,0.0,0.0,0.0,0.0,0.0,0.0,0.0,0.0,0.0,0.0,0.0,0.0,0.0,0.0,0.0,0.0,0.0,0.0,0.0,0.0,0.0,0.0,0.0,0.0,0.0,0.0,0.0,0.0,0.0,0.0,0.0,0.0,0.0,0.0,0.0,0.0,0.0,0.0,0.0,0.0,0.0,0.0,0.0,0.0,0.0,0.0,0.0,0.0,0.0,0.0,0.0,0.0,0.0,0.0,0.0,0.0,0.0,0.0,0.0,0.0,0.0,0.0,0.0,0.0,0.0,0.0,0.0,0.0,0.0,0.0,0.0,0.0,0.0,0.0,0.0,0.0,0.0,0.0,0.0,0.0,0.0,0.0,0.0,0.0,0.0,0.0,0.0,0.0,0.0,0.0,0.0,0.0,0.0,0.0,0.0,0.0,0.0,0.0,0.0,0.0,0.0,0.0,0.0,-2.0407,-2.0475,-2.0595,0.0,0.0,0.0,0.0,0.0,0.0,0.0,0.0,0.0,0.0,0.0,0.0,0.0,0.0,0.0,0.0,0.0,0.0,0.0,0.0,0.0,0.0,0.0,0.0,0.0,0.0,0.0,0.0,0.0,0.0,0.0,0.0,0.0,0.0,0.0,0.0,0.0,0.0,0.0,0.0,0.0,0.0,0.0,0.0,0.0,0.0,0.0,0.0,0.0,0.0,0.0,0.0,0.0,0.0,0.0,0.0,0.0,0.0,0.0,0.0,0.0,0.0,0.0,0.0,0.0,0.0,0.0,0.0,0.0,0.0,0.0,0.0,0.0,0.0,0.0,0.0,0.0,0.0,0.0,0.0,0.0,0.0,0.0,0.0,0.0,0.0,0.0,0.0,0.0,0.0,0.0,0.0,0.0,0.0,0.0,0.0,0.0,0.0,0.0,0.0,0.0,0.0,0.0,0.0,0.0,0.0,0.0,0.0,0.0,0.0,-2.061,-2.0478,-2.0494,0.0,-2.0861,0.0,0.0,0.0,0.0,0.0,0.0,0.0,0.0,0.0,0.0,0.0,0.0,0.0,0.0,0.0,0.0,0.0,0.0,0.0,0.0,0.0,0.0,0.0,0.0,0.0,0.0,0.0,0.0,0.0,0.0,0.0,0.0,0.0,0.0,0.0,0.0,0.0,0.0,0.0,0.0,0.0,0.0,0.0,0.0,0.0,0.0,0.0,0.0,0.0,0.0,0.0,0.0,0.0,0.0,0.0,0.0,0.0,0.0,0.0,0.0,0.0,0.0,0.0,0.0,0.0,0.0,0.0,0.0,0.0,0.0,0.0,0.0,0.0,0.0,0.0,0.0,0.0,0.0,0.0,0.0,0.0,0.0,0.0,0.0,0.0,0.0,0.0,0.0,0.0,0.0,0.0,0.0,0.0,0.0,0.0,0.0,0.0,0.0,0.0,0.0,0.0,0.0,0.0,0.0,0.0,0.0,0.0,0.0,0.0,0.0,-2.0957,-2.0859,-2.0925,-2.1039,0.0,0.0,0.0,0.0,0.0,0.0,0.0,0.0,0.0,0.0,0.0,0.0,0.0,0.0,0.0,0.0,0.0,0.0,0.0,0.0,0.0,0.0,0.0,0.0,0.0,0.0,0.0,0.0,0.0,0.0,0.0,0.0,0.0,0.0,0.0,0.0,0.0,0.0,0.0,0.0,0.0,0.0,0.0,0.0,0.0,0.0,0.0,0.0,0.0,0.0,0.0,0.0,0.0,0.0,0.0,0.0,0.0,0.0,0.0,0.0,0.0,0.0,0.0,0.0,0.0,0.0,0.0,0.0,0.0,0.0,0.0,0.0,0.0,0.0,0.0,0.0,0.0,0.0,0.0,0.0,0.0,0.0,0.0,0.0,0.0,0.0,0.0,0.0,0.0,0.0,0.0,0.0,0.0,0.0,0.0,0.0,0.0,0.0,0.0,0.0,0.0,0.0,0.0,0.0,0.0,0.0,0.0,0.0,0.0,0.0,-2.1325,-2.1247,-2.1151,-2.1294,-2.15,-2.1773,0.0,0.0,0.0,0.0,0.0,0.0,0.0,0.0,0.0,0.0,0.0,0.0,0.0,0.0,0.0,0.0,0.0,0.0,0.0,0.0,0.0,0.0,0.0,0.0,0.0,0.0,0.0,0.0,0.0,0.0,0.0,0.0,0.0,0.0,0.0,0.0,0.0,0.0,0.0,0.0,0.0,0.0,0.0,0.0,0.0,0.0,0.0,0.0,0.0,0.0,0.0,0.0,0.0,0.0,0.0,0.0,0.0,0.0,0.0,0.0,0.0,0.0,0.0,0.0,0.0,0.0,0.0,0.0,0.0,0.0,0.0,0.0,0.0,0.0,0.0,0.0,0.0,0.0,0.0,0.0,0.0,0.0,0.0,0.0,0.0,0.0,0.0,0.0,0.0,0.0,0.0,0.0,0.0,0.0,0.0,0.0,0.0,0.0,0.0,0.0,0.0,0.0,0.0,0.0,0.0,0.0,0.0,0.0,-2.1678,-2.1479,-2.1355,-2.1341,-2.1497,-2.1948,0.0,0.0,0.0,0.0,0.0,0.0,0.0,0.0,0.0,0.0,0.0,0.0,0.0,0.0,0.0,0.0,0.0,0.0,0.0,0.0,0.0,0.0,0.0,0.0,0.0,0.0,0.0,0.0,0.0,0.0,0.0,0.0,0.0,0.0,0.0,0.0,0.0,0.0,0.0,0.0,0.0,0.0,0.0,0.0,0.0,0.0,0.0,0.0,0.0,0.0,0.0,0.0,0.0,0.0,0.0,0.0,0.0,0.0,0.0,0.0,0.0,0.0,0.0,0.0,0.0,0.0,0.0,0.0,0.0,0.0,0.0,0.0,0.0,0.0,0.0,0.0,0.0,0.0,0.0,0.0,0.0,0.0,0.0,0.0,0.0,0.0,0.0,0.0,0.0,0.0,0.0,0.0,0.0,0.0,0.0,0.0,0.0,0.0,0.0,0.0,0.0,0.0,0.0,0.0,0.0,0.0,0.0,0.0,0.0,-2.184,-2.1721,-2.1861,-2.2291,-2.2448,-2.2903,0.0,0.0,0.0,0.0,0.0,0.0,0.0,0.0,0.0,0.0,0.0,0.0,0.0,0.0,0.0,0.0,0.0,0.0,0.0,0.0,0.0,0.0,0.0,0.0,0.0,0.0,0.0,0.0,0.0,0.0,0.0,0.0,0.0,0.0,0.0,0.0,0.0,0.0,0.0,0.0,0.0,0.0,0.0,0.0,0.0,0.0,0.0,0.0,0.0,0.0,0.0,0.0,0.0,0.0,0.0,0.0,0.0,0.0,0.0,0.0,0.0,0.0,0.0,0.0,0.0,0.0,0.0,0.0,0.0,0.0,0.0,0.0,0.0,0.0,0.0,0.0,0.0,0.0,0.0,0.0,0.0,0.0,0.0,0.0,0.0,0.0,0.0,0.0,0.0,0.0,0.0,0.0,0.0,0.0,0.0,0.0,0.0,0.0,0.0,0.0,0.0,0.0,0.0,0.0,0.0,0.0,0.0,0.0,0.0,-2.2354,0.0,-2.2926,0.0,-2.3488,-2.3964,0.0,0.0,0.0,0.0,0.0,0.0,0.0,0.0,0.0,0.0,0.0,0.0,0.0,0.0,0.0,0.0,0.0,0.0,0.0,0.0,0.0,0.0,0.0,0.0,0.0,0.0,0.0,0.0,0.0,0.0,0.0,0.0,0.0,0.0,0.0,0.0,0.0,0.0,0.0,0.0,0.0,0.0,0.0,0.0,0.0,0.0,0.0,0.0,0.0,0.0,0.0,0.0,0.0,0.0,0.0,0.0,0.0,0.0,0.0,0.0,0.0,0.0,0.0,0.0,0.0,0.0,0.0,0.0,0.0,0.0,0.0,0.0,0.0,0.0,0.0,0.0,0.0,0.0,0.0,0.0,0.0,0.0,0.0,0.0,0.0,0.0,0.0,0.0,0.0,0.0,0.0,0.0,0.0,0.0,0.0,0.0,0.0,0.0,0.0,0.0,0.0,0.0,0.0,0.0,0.0,0.0,0.0,0.0,-2.2618,-2.3304,-2.4056,-2.4438,-2.4506,-2.4567,-2.4972,0.0,0.0,0.0,0.0,0.0,0.0,0.0,0.0,0.0,0.0,0.0,0.0,0.0,0.0,0.0,0.0,0.0,0.0,0.0,0.0,0.0,0.0,0.0,0.0,0.0,0.0,0.0,0.0,0.0,0.0,0.0,0.0,0.0,0.0,0.0,0.0,0.0,0.0,0.0,0.0,0.0,0.0,0.0,0.0,0.0,0.0,0.0,0.0,0.0,0.0,0.0,0.0,0.0,0.0,0.0,0.0,0.0,0.0,0.0,0.0,0.0,0.0,0.0,0.0,0.0,0.0,0.0,0.0,0.0,0.0,0.0,0.0,0.0,0.0,0.0,0.0,0.0,0.0,0.0,0.0,0.0,0.0,0.0,0.0,0.0,0.0,0.0,0.0,0.0,0.0,0.0,0.0,0.0,0.0,0.0,0.0,0.0,0.0,0.0,0.0,0.0,0.0,0.0,0.0,0.0,0.0,0.0,0.0,0.0,-2.4356,-2.4616,-2.5005,-2.5518,-2.5609,-2.6048,0.0,0.0,0.0,0.0,0.0,0.0,0.0,0.0,0.0,0.0,0.0,0.0,0.0,0.0,0.0,0.0,0.0,0.0,0.0,0.0,0.0,0.0,0.0,0.0,0.0,0.0,0.0,0.0,0.0,0.0,0.0,0.0,0.0,0.0,0.0,0.0,0.0,0.0,0.0,0.0,0.0,0.0,0.0,0.0,0.0,0.0,0.0,0.0,0.0,0.0,0.0,0.0,0.0,0.0,0.0,0.0,0.0,0.0,0.0,0.0,0.0,0.0,0.0,0.0,0.0,0.0,0.0,0.0,0.0,0.0,0.0,0.0,0.0,0.0,0.0,0.0,0.0,0.0,0.0,0.0,0.0,0.0,0.0,0.0,0.0,0.0,0.0,0.0,0.0,0.0,0.0,0.0,0.0,0.0,0.0,0.0,0.0,0.0,0.0,0.0,0.0,0.0,0.0,0.0,0.0,0.0,0.0,0.0,0.0,-2.5868,-2.5846,-2.61,-2.6584,-2.6628,-2.6914,-2.7491,0.0,0.0,0.0,0.0,0.0,0.0,0.0,0.0,0.0,0.0,0.0,0.0,0.0,0.0,0.0,0.0,0.0,0.0,0.0,0.0,0.0,0.0,0.0,0.0,0.0,0.0,0.0,0.0,0.0,0.0,0.0,0.0,0.0,0.0,0.0,0.0,0.0,0.0,0.0,0.0,0.0,0.0,0.0,0.0,0.0,0.0,0.0,0.0,0.0,0.0,0.0,0.0,0.0,0.0,0.0,0.0,0.0,0.0,0.0,0.0,0.0,0.0,0.0,0.0,0.0,0.0,0.0,0.0,0.0,0.0,0.0,0.0,0.0,0.0,0.0,0.0,0.0,0.0,0.0,0.0,0.0,0.0,0.0,0.0,0.0,0.0,0.0,0.0,0.0,0.0,0.0,0.0,0.0,0.0,0.0,0.0,0.0,0.0,0.0,0.0,0.0,0.0,0.0,0.0,0.0,0.0,0.0,0.0,-2.7635,-2.7557,-2.7539,-2.76,-2.76,-2.7659,0.0,0.0,0.0,0.0,0.0,0.0,0.0,0.0,0.0,0.0,0.0,0.0,0.0,0.0,0.0,0.0,0.0,0.0,0.0,0.0,0.0,0.0,0.0,0.0,0.0,0.0,0.0,0.0,0.0,0.0,0.0,0.0,0.0,0.0,0.0,0.0,0.0,0.0,0.0,0.0,0.0,0.0,0.0,0.0,0.0,0.0,0.0,0.0,0.0,0.0,0.0,0.0,0.0,0.0,0.0,0.0,0.0,0.0,0.0,0.0,0.0,0.0,0.0,0.0,0.0,0.0,0.0,0.0,0.0,0.0,0.0,0.0,0.0,0.0,0.0,0.0,0.0,0.0,0.0,0.0,0.0,0.0,0.0,0.0,0.0,0.0,0.0,0.0,0.0,0.0,0.0,0.0,0.0,0.0,0.0,0.0,0.0,0.0,0.0,0.0,0.0,0.0,0.0,0.0,0.0,0.0,0.0,0.0,0.0,-2.7882,-2.7911,-2.7929,-2.79,-2.794,-2.7996,0.0,0.0,0.0,0.0,0.0,0.0,0.0,0.0,0.0,0.0,0.0,0.0,0.0,0.0,0.0,0.0,0.0,0.0,0.0,0.0,0.0,0.0,0.0,0.0,0.0,0.0,0.0,0.0,0.0,0.0,0.0,0.0,0.0,0.0,0.0,0.0,0.0,0.0,0.0,0.0,0.0,0.0,0.0,0.0,0.0,0.0,0.0,0.0,0.0,0.0,0.0,0.0,0.0,0.0,0.0,0.0,0.0,0.0,0.0,0.0,0.0,0.0,0.0,0.0,0.0,0.0,0.0,0.0,0.0,0.0,0.0,0.0,0.0,0.0,0.0,0.0,0.0,0.0,0.0,0.0,0.0,0.0,0.0,0.0,0.0,0.0,0.0,0.0,0.0,0.0,0.0,0.0,0.0,0.0,0.0,0.0,0.0,0.0,0.0,0.0,0.0,0.0,0.0,0.0,0.0,0.0,0.0,0.0,-2.7968,-2.8164,-2.8209,-2.8264,-2.8353,-2.8291,-2.8273,0.0,0.0,0.0,0.0,0.0,0.0,0.0,0.0,0.0,0.0,0.0,0.0,0.0,0.0,0.0,0.0,0.0,0.0,0.0,0.0,0.0,0.0,0.0,0.0,0.0,0.0,0.0,0.0,0.0,0.0,0.0,0.0,0.0,0.0,0.0,0.0,0.0,0.0,0.0,0.0,0.0,0.0,0.0,0.0,0.0,0.0,0.0,0.0,0.0,0.0,0.0,0.0,0.0,0.0,0.0,0.0,0.0,0.0,0.0,0.0,0.0,0.0,0.0,0.0,0.0,0.0,0.0,0.0,0.0,0.0,0.0,0.0,0.0,0.0,0.0,0.0,0.0,0.0,0.0,0.0,0.0,0.0,0.0,0.0,0.0,0.0,0.0,0.0,0.0,0.0,0.0,0.0,0.0,0.0,0.0,0.0,0.0,0.0,0.0,0.0,0.0,0.0,0.0,0.0,0.0,0.0,0.0,0.0,-2.8254,-2.8532,-2.854,-2.8724,-2.9047,-2.8652,-2.8528,0.0,0.0,0.0,0.0,0.0,0.0,0.0,0.0,0.0,0.0,0.0,0.0,0.0,0.0,0.0,0.0,0.0,0.0,0.0,0.0,0.0,0.0,0.0,0.0,0.0,0.0,0.0,0.0,0.0,0.0,0.0,0.0,0.0,0.0,0.0,0.0,0.0,0.0,0.0,0.0,0.0,0.0,0.0,0.0,0.0,0.0,0.0,0.0,0.0,0.0,0.0,0.0,0.0,0.0,0.0,0.0,0.0,0.0,0.0,0.0,0.0,0.0,0.0,0.0,0.0,0.0,0.0,0.0,0.0,0.0,0.0,0.0,0.0,0.0,0.0,0.0,0.0,0.0,0.0,0.0,0.0,0.0,0.0,0.0,0.0,0.0,0.0,0.0,0.0,0.0,0.0,0.0,0.0,0.0,0.0,0.0,0.0,0.0,0.0,0.0,0.0,0.0,0.0,0.0,0.0,0.0,0.0,0.0,-2.8658,-2.9465,-2.9588,-3.005,-3.0803,-2.9466,-2.8785,0.0,0.0,0.0,0.0,0.0,0.0,0.0,0.0,0.0,0.0,0.0,0.0,0.0,0.0,0.0,0.0,0.0,0.0,0.0,0.0,0.0,0.0,0.0,0.0,0.0,0.0,0.0,0.0,0.0,0.0,0.0,0.0,0.0,0.0,0.0,0.0,0.0,0.0,0.0,0.0,0.0,0.0,0.0,0.0,0.0,0.0,0.0,0.0,-3.4602,0.0,0.0,0.0,0.0,0.0,0.0,0.0,0.0,0.0,0.0,0.0,0.0,0.0,0.0,0.0,0.0,0.0,0.0,0.0,0.0,0.0,0.0,0.0,0.0,0.0,0.0,0.0,0.0,0.0,0.0,0.0,0.0,0.0,0.0,0.0,0.0,0.0,0.0,0.0,0.0,0.0,0.0,0.0,0.0,0.0,0.0,0.0,0.0,0.0,0.0,0.0,0.0,0.0,0.0,0.0,0.0,0.0,0.0,0.0,-2.9347,-2.9995,-3.0435,-3.0937,-3.1452,-3.0654,-3.0047,0.0,0.0,0.0,0.0,0.0,0.0,0.0,0.0,0.0,0.0,0.0,0.0,0.0,0.0,0.0,0.0,0.0,0.0,0.0,0.0,0.0,0.0,0.0,0.0,0.0,0.0,0.0,0.0,0.0,0.0,0.0,0.0,0.0,0.0,0.0,0.0,0.0,0.0,0.0,0.0,0.0,0.0,0.0,0.0,0.0,0.0,0.0,0.0,0.0,0.0,0.0,0.0,0.0,0.0,0.0,0.0,0.0,0.0,0.0,0.0,0.0,0.0,0.0,0.0,0.0,0.0,0.0,0.0,0.0,0.0,0.0,0.0,0.0,0.0,0.0,0.0,0.0,0.0,0.0,0.0,0.0,0.0,0.0,0.0,0.0,0.0,0.0,0.0,0.0,0.0,0.0,0.0,0.0,0.0,0.0,0.0,0.0,0.0,0.0,0.0,0.0,0.0,0.0,0.0,0.0,0.0,0.0,-2.9445,-3.0054,-3.0577,-3.1244,-3.1789,-3.2043,-3.202,-3.1597,-3.0776,0.0,0.0,0.0,0.0,0.0,0.0,0.0,0.0,0.0,0.0,0.0,0.0,0.0,0.0,0.0,0.0,0.0,0.0,0.0,0.0,0.0,0.0,0.0,0.0,0.0,0.0,0.0,0.0,0.0,0.0,0.0,0.0,0.0,0.0,0.0,0.0,0.0,0.0,-3.4602,-3.4602,0.0,0.0,0.0,0.0,0.0,0.0,0.0,0.0,-3.6761,0.0,0.0,0.0,0.0,0.0,0.0,0.0,0.0,0.0,0.0,0.0,0.0,0.0,0.0,0.0,0.0,0.0,0.0,0.0,0.0,0.0,0.0,0.0,0.0,0.0,0.0,0.0,0.0,0.0,0.0,0.0,0.0,0.0,0.0,0.0,0.0,0.0,0.0,0.0,0.0,0.0,0.0,0.0,0.0,0.0,0.0,0.0,0.0,0.0,0.0,0.0,0.0,0.0,0.0,0.0,0.0,-2.9475,-2.9795,-3.0684,-3.2162,-3.2496,-3.3025,-3.3727,-3.3185,-3.2545,-3.1848,0.0,0.0,0.0,0.0,0.0,0.0,0.0,0.0,0.0,0.0,0.0,0.0,0.0,0.0,0.0,0.0,0.0,0.0,0.0,0.0,0.0,0.0,0.0,0.0,0.0,0.0,0.0,0.0,0.0,0.0,0.0,0.0,0.0,0.0,0.0,0.0,0.0,0.0,0.0,-3.4602,-3.4602,0.0,0.0,0.0,0.0,0.0,0.0,0.0,0.0,-3.8056,0.0,0.0,0.0,0.0,0.0,0.0,0.0,0.0,0.0,0.0,0.0,0.0,0.0,0.0,0.0,0.0,0.0,0.0,0.0,0.0,0.0,0.0,0.0,0.0,0.0,0.0,0.0,0.0,0.0,0.0,0.0,0.0,0.0,0.0,0.0,0.0,0.0,0.0,0.0,0.0,0.0,0.0,0.0,0.0,0.0,0.0,0.0,0.0,0.0,0.0,0.0,0.0,0.0,0.0,0.0,-2.9763,-3.0771,-3.1756,-3.2661,-3.3278,-3.3764,-3.4208,-3.3967,-3.3474,0.0,0.0,0.0,0.0,0.0,0.0,0.0,0.0,0.0,0.0,0.0,0.0,0.0,0.0,0.0,0.0,0.0,0.0,0.0,0.0,0.0,0.0,0.0,0.0,0.0,0.0,0.0,0.0,0.0,0.0,0.0,0.0,0.0,0.0,0.0,0.0,0.0,0.0,0.0,0.0,-3.5277,-3.5428,-3.5841,0.0,0.0,0.0,0.0,0.0,0.0,-3.8413,-3.8976,0.0,0.0,0.0,0.0,0.0,0.0,0.0,0.0,0.0,0.0,0.0,0.0,0.0,0.0,0.0,0.0,0.0,0.0,0.0,0.0,0.0,0.0,0.0,0.0,0.0,0.0,0.0,0.0,0.0,0.0,0.0,0.0,0.0,0.0,0.0,0.0,0.0,0.0,0.0,0.0,0.0,0.0,0.0,0.0,0.0,0.0,0.0,0.0,0.0,0.0,0.0,0.0,0.0,0.0,0.0,-3.0323,-3.178,-3.272,-3.3081,-3.3814,-3.4269,-3.434,-3.445,-3.412,0.0,0.0,0.0,0.0,0.0,0.0,0.0,0.0,0.0,0.0,0.0,0.0,0.0,0.0,0.0,0.0,0.0,0.0,0.0,0.0,0.0,0.0,0.0,0.0,0.0,0.0,0.0,0.0,0.0,0.0,0.0,0.0,0.0,0.0,0.0,0.0,0.0,0.0,0.0,0.0,0.0,-3.6197,-3.6967,-3.7122,0.0,0.0,0.0,0.0,-3.8525,-3.9126,0.0,0.0,0.0,0.0,0.0,0.0,0.0,0.0,0.0,0.0,0.0,0.0,0.0,0.0,0.0,0.0,0.0,0.0,0.0,0.0,0.0,0.0,0.0,0.0,0.0,0.0,0.0,0.0,0.0,0.0,0.0,0.0,0.0,0.0,0.0,0.0,0.0,0.0,0.0,0.0,0.0,0.0,0.0,0.0,0.0,0.0,0.0,0.0,0.0,0.0,0.0,0.0,0.0,0.0,0.0,0.0,-3.1965,-3.2478,-3.3105,-3.3914,-3.4165,-3.4358,-3.4473,-3.4495,-3.4142,0.0,0.0,0.0,0.0,0.0,0.0,0.0,0.0,0.0,0.0,0.0,0.0,0.0,0.0,0.0,0.0,0.0,0.0,0.0,0.0,0.0,0.0,0.0,0.0,0.0,0.0,0.0,0.0,0.0,0.0,0.0,0.0,0.0,0.0,0.0,0.0,0.0,0.0,0.0,0.0,0.0,-3.6179,-3.6986,-3.7122,-3.7343,0.0,0.0,-3.8582,-3.9339,-3.9521,0.0,0.0,0.0,0.0,0.0,0.0,0.0,0.0,0.0,0.0,0.0,0.0,0.0,0.0,0.0,0.0,0.0,0.0,0.0,0.0,0.0,0.0,0.0,0.0,0.0,0.0,0.0,0.0,0.0,0.0,0.0,0.0,0.0,0.0,0.0,0.0,0.0,0.0,0.0,0.0,0.0,0.0,0.0,0.0,0.0,0.0,0.0,0.0,0.0,0.0,0.0,0.0,0.0,0.0,0.0,-3.1464,-3.2356,-3.3062,-3.3672,-3.413,-3.4316,-3.445,-3.4476,-3.4558,-3.4411,0.0,0.0,0.0,0.0,0.0,0.0,0.0,0.0,0.0,0.0,0.0,0.0,0.0,0.0,0.0,0.0,0.0,0.0,0.0,0.0,0.0,0.0,0.0,0.0,0.0,0.0,0.0,0.0,0.0,0.0,0.0,0.0,0.0,0.0,0.0,0.0,0.0,0.0,0.0,0.0,0.0,0.0,-3.8394,-3.8488,0.0,0.0,0.0,-3.9145,-3.9521,0.0,0.0,0.0,0.0,0.0,0.0,0.0,0.0,0.0,0.0,0.0,0.0,0.0,0.0,0.0,0.0,0.0,0.0,0.0,0.0,0.0,0.0,0.0,0.0,0.0,0.0,0.0,0.0,0.0,0.0,0.0,0.0,0.0,0.0,0.0,0.0,0.0,0.0,0.0,0.0,0.0,0.0,0.0,0.0,0.0,0.0,0.0,0.0,0.0,0.0,0.0,0.0,0.0,0.0,0.0,0.0,0.0,-3.2748,-3.3828,-3.4414,-3.4537,-3.4932,-3.5042,-3.4854,-3.4899,0.0,0.0,0.0,0.0,0.0,0.0,0.0,0.0,0.0,0.0,0.0,0.0,0.0,0.0,0.0,0.0,0.0,0.0,0.0,0.0,0.0,0.0,0.0,0.0,0.0,0.0,0.0,-3.7399,0.0,0.0,0.0,0.0,0.0,0.0,0.0,0.0,0.0,0.0,0.0,0.0,0.0,0.0,-3.8619,-3.9489,-3.962,-3.962,0.0,0.0,-3.962,-3.962,-3.962,-3.962,0.0,0.0,0.0,0.0,0.0,0.0,0.0,0.0,0.0,0.0,0.0,0.0,0.0,0.0,0.0,0.0,0.0,0.0,0.0,0.0,0.0,0.0,0.0,0.0,0.0,0.0,0.0,0.0,0.0,0.0,0.0,0.0,0.0,0.0,0.0,0.0,0.0,0.0,0.0,0.0,0.0,0.0,0.0,0.0,0.0,0.0,0.0,0.0,0.0,0.0,0.0,0.0,0.0,0.0,0.0,-3.3715,-3.4807,-3.5411,-3.5522,-3.6376,-3.6503,-3.5841,-3.5803,-3.5428,0.0,0.0,0.0,0.0,0.0,0.0,0.0,0.0,0.0,0.0,0.0,0.0,0.0,0.0,0.0,0.0,0.0,0.0,0.0,0.0,0.0,0.0,0.0,0.0,0.0,0.0,0.0,0.0,0.0,0.0,0.0,0.0,0.0,0.0,0.0,0.0,0.0,0.0,0.0,0.0,0.0,-3.8638,-3.9489,-3.962,-3.962,0.0,0.0,-3.962,-3.962,-3.962,-3.962,-3.962,0.0,0.0,0.0,0.0,0.0,0.0,0.0,0.0,0.0,0.0,0.0,0.0,0.0,0.0,0.0,0.0,0.0,0.0,0.0,0.0,0.0,0.0,0.0,0.0,0.0,0.0,0.0,0.0,0.0,0.0,0.0,0.0,0.0,0.0,0.0,0.0,0.0,0.0,0.0,0.0,0.0,0.0,0.0,0.0,0.0,0.0,0.0,0.0,0.0,0.0,0.0,0.0,0.0,-3.3503,-3.3972,-3.5027,-3.5621,-3.5736,-3.6597,-3.6925,-3.6629,-3.6145,-3.5754,0.0,0.0,0.0,0.0,0.0,0.0,0.0,0.0,0.0,0.0,0.0,0.0,0.0,0.0,0.0,0.0,0.0,0.0,0.0,0.0,0.0,0.0,0.0,0.0,0.0,0.0,0.0,0.0,-3.9389,-3.962,-3.962,0.0,0.0,0.0,0.0,0.0,0.0,0.0,0.0,0.0,0.0,-3.922,-3.9564,-3.962,0.0,0.0,-3.962,-3.962,-3.962,-3.962,-3.962,-3.962,-3.962,0.0,0.0,0.0,0.0,0.0,0.0,0.0,0.0,0.0,0.0,0.0,0.0,0.0,0.0,0.0,0.0,0.0,0.0,0.0,0.0,0.0,0.0,0.0,0.0,0.0,0.0,0.0,0.0,0.0,0.0,0.0,0.0,0.0,0.0,0.0,0.0,0.0,0.0,0.0,0.0,0.0,0.0,0.0,0.0,0.0,0.0,0.0,0.0,0.0,0.0,0.0,0.0,-3.4076,-3.4513,-3.5522,-3.6203,-3.6517,-3.7394,-3.7742,-3.7483,-3.6923,-3.6531,0.0,0.0,0.0,0.0,0.0,0.0,0.0,0.0,0.0,0.0,0.0,0.0,0.0,0.0,0.0,0.0,0.0,0.0,0.0,0.0,0.0,0.0,0.0,0.0,0.0,0.0,0.0,0.0,-3.962,-3.962,-3.962,0.0,0.0,0.0,0.0,0.0,0.0,0.0,0.0,0.0,0.0,-3.962,-3.962,-3.962,-3.962,-3.962,-3.962,-3.962,-3.962,-3.962,-3.962,-3.962,0.0,0.0,0.0,0.0,0.0,0.0,0.0,0.0,0.0,0.0,0.0,0.0,0.0,0.0,0.0,0.0,0.0,0.0,0.0,0.0,0.0,0.0,0.0,0.0,0.0,0.0,0.0,0.0,0.0,0.0,-2.7618,0.0,0.0,0.0,0.0,0.0,0.0,0.0,0.0,0.0,0.0,0.0,0.0,0.0,0.0,0.0,0.0,0.0,0.0,0.0,0.0,0.0,0.0,-3.4481,-3.5442,-3.6422,-3.7323,-3.8091,-3.9045,-3.9137,-3.8413,-3.8361,-3.8007,-3.7263,0.0,0.0,0.0,0.0,0.0,0.0,0.0,0.0,0.0,0.0,0.0,0.0,0.0,0.0,0.0,0.0,0.0,0.0,0.0,0.0,0.0,0.0,0.0,0.0,0.0,0.0,-3.962,-3.962,-3.962,0.0,0.0,0.0,0.0,0.0,0.0,0.0,0.0,0.0,0.0,-3.9602,-3.962,-3.962,-3.962,-3.962,-3.962,-3.962,-3.962,-3.962,-3.9639,-3.962,0.0,0.0,0.0,0.0,0.0,0.0,0.0,0.0,0.0,0.0,0.0,0.0,0.0,0.0,0.0,0.0,0.0,0.0,0.0,0.0,0.0,0.0,0.0,0.0,0.0,0.0,0.0,-2.8557,-2.9025,0.0,0.0,0.0,0.0,0.0,0.0,0.0,0.0,0.0,0.0,0.0,-3.2081,-3.2411,0.0,0.0,0.0,0.0,0.0,0.0,0.0,0.0,0.0,0.0,0.0,0.0,-3.4649,-3.5693,-3.655,-3.7403,-3.8233,-3.9145,-3.9494,-3.926,-3.8761,-3.8131,-3.7387,0.0,0.0,0.0,0.0,0.0,0.0,0.0,0.0,0.0,0.0,0.0,0.0,0.0,0.0,0.0,0.0,0.0,0.0,0.0,0.0,0.0,0.0,0.0,0.0,0.0,-3.962,0.0,0.0,0.0,0.0,0.0,0.0,0.0,0.0,0.0,0.0,0.0,-3.9258,-3.9564,-3.962,-3.962,-3.962,-3.962,-3.962,0.0,0.0,0.0,0.0,0.0,0.0,0.0,0.0,0.0,0.0,0.0,0.0,0.0,0.0,-4.2919,-4.1811,-4.1804,-4.2187,-4.2769,0.0,0.0,0.0,0.0,0.0,0.0,0.0,0.0,0.0,0.0,0.0,0.0,0.0,0.0,0.0,0.0,-2.9942,0.0,0.0,0.0,0.0,0.0,0.0,0.0,0.0,-3.2841,-3.3312,-3.349,-3.3849,-3.4117,0.0,-3.4444,-3.4548,0.0,0.0,0.0,0.0,0.0,0.0,0.0,0.0,-3.5347,-3.6592,-3.7159,-3.7882,-3.8713,-3.9295,-3.9626,-3.9679,-3.9245,-3.8634,-3.7864,-3.7845,-3.7694,0.0,0.0,0.0,0.0,0.0,0.0,0.0,0.0,0.0,0.0,0.0,0.0,0.0,0.0,0.0,0.0,0.0,0.0,0.0,0.0,0.0,0.0,0.0,-3.962,0.0,0.0,0.0,0.0,0.0,0.0,0.0,0.0,0.0,-3.962,-3.962,-3.962,-3.962,-3.984,-4.0009,-4.0009,0.0,0.0,0.0,0.0,0.0,0.0,0.0,-4.1229,-4.1229,-4.1924,-4.2637,-4.32,-4.3538,-4.3745,-4.3745,0.0,0.0,-4.32,-4.3351,-4.3933,-4.4477,-4.4626,-4.485,-4.5377,-4.604,-4.6516,0.0,0.0,0.0,0.0,0.0,0.0,0.0,0.0,-3.0091,-3.0159,0.0,-3.0229,0.0,0.0,0.0,0.0,0.0,0.0,0.0,0.0,-3.3791,-3.4279,-3.4591,-3.5372,-3.5884,-3.6095,-3.6201,-3.6343,-3.6443,-3.484,0.0,0.0,0.0,0.0,0.0,0.0,-3.6563,-3.8091,-3.8214,-3.8713,-3.9521,-3.962,-3.965,-3.9689,-3.9804,-3.9532,-3.8776,-3.8717,-3.8338,-3.7523,-3.7466,0.0,0.0,0.0,0.0,0.0,0.0,0.0,0.0,0.0,0.0,0.0,0.0,0.0,0.0,0.0,0.0,0.0,0.0,0.0,0.0,-3.962,0.0,0.0,0.0,0.0,0.0,0.0,0.0,0.0,0.0,0.0,-3.9752,-3.9695,-3.9658,-3.9714,0.0,0.0,0.0,0.0,-4.1999,-4.198,-4.1999,-4.198,-4.198,-4.2029,-4.2085,-4.2085,0.0,0.0,-4.5472,-4.6411,-4.6899,-4.6974,-4.6936,-4.6523,-4.4928,-4.581,-4.6824,-4.688,-4.6882,-4.7062,-4.7081,-4.7154,-4.7356,-2.9466,0.0,0.0,0.0,0.0,-2.9787,-3.0205,-3.0891,-3.1059,-3.1391,-3.1886,-3.1886,0.0,0.0,0.0,0.0,0.0,0.0,-3.4089,-3.4774,-3.5091,-3.5299,-3.5363,-3.5724,-3.5921,-3.6024,-3.6201,-3.6371,-3.65,-3.6196,-3.6031,-3.6012,0.0,0.0,0.0,0.0,-3.7178,-3.822,-3.83,-3.8713,-3.9583,-3.962,-3.965,-3.9708,-3.9845,-3.9775,-3.957,-3.9551,-3.9456,-3.9191,-3.8641,0.0,0.0,0.0,0.0,0.0,0.0,0.0,0.0,0.0,0.0,0.0,0.0,0.0,0.0,0.0,0.0,0.0,0.0,0.0,-3.962,-3.962,-3.962,0.0,0.0,0.0,0.0,0.0,0.0,0.0,0.0,0.0,-4.1304,-4.0797,-4.0666,0.0,0.0,-4.1661,-4.1635,-4.1867,-4.1999,-4.1999,0.0,0.0,0.0,-4.3004,-4.3801,-4.3801,-4.4984,-4.611,-4.6542,-4.6843,-4.6993,-4.7012,-4.7481,-4.7687,-4.7274,-4.7012,-4.703,-4.7012,-4.7109,-4.7155,-4.7193,-4.7764,-4.828,-3.1225,-3.1029,-3.0384,-3.0264,-3.0574,-3.0607,-3.1094,-3.1833,-3.1883,-3.2199,-3.2623,-3.2924,-3.3133,-3.3235,-3.3586,0.0,0.0,0.0,-3.504,-3.5573,-3.5963,-3.614,-3.6258,-3.6644,-3.6916,-3.6985,-3.7154,-3.7348,-3.7535,-3.7731,-3.7835,-3.7841,0.0,0.0,-3.7502,-3.7521,-3.7957,-3.877,-3.8807,-3.9051,-3.9602,-3.9626,-3.9661,-3.9689,-3.9845,-3.9889,-3.9889,-3.9889,-3.9889,-3.9889,-3.9437,-3.911,0.0,0.0,0.0,0.0,0.0,0.0,0.0,0.0,0.0,0.0,0.0,-3.962,0.0,0.0,0.0,0.0,-3.962,-3.962,-3.962,-3.9902,0.0,0.0,0.0,0.0,0.0,0.0,0.0,-4.1285,-4.1672,-4.2168,-4.2468,-4.2111,-4.1849,-4.1972,-4.2299,-4.2524,-4.2524,0.0,-4.3125,-4.3426,-4.3482,-4.3595,-4.3951,-4.4834,-4.5491,-4.5491,-4.658,-4.7443,-4.7481,-4.7744,-4.7988,-4.8063,-4.8401,-4.8701,-4.8701,-4.8326,-4.7988,-4.8007,-4.8087,-4.8183,-4.8183,-4.8718,-4.9178,-3.2811,-3.257,-3.1117,-3.0891,-3.1482,-3.15,-3.1991,-3.2765,-3.2816,-3.2834,-3.2887,-3.3578,-3.4051,-3.427,-3.5133,0.0,-3.5612,-3.5594,-3.5732,-3.5923,-3.6609,-3.6967,-3.7156,-3.7911,-3.8336,-3.846,-3.8609,-3.8822,-3.9027,-3.9156,-3.9283,-3.9432,-3.8008,-3.7662,-3.8357,-3.8394,-3.8807,-3.9583,-3.9602,-3.962,-3.962,-3.9661,-3.9708,-3.9708,-3.9823,-3.987,-3.9889,-3.9889,-3.9889,-3.9889,-3.9889,-3.9823,-3.9712,0.0,0.0,0.0,0.0,0.0,0.0,0.0,0.0,0.0,0.0,0.0,0.0,0.0,0.0,0.0,-3.9677,0.0,-3.9789,-4.0459,0.0,0.0,0.0,-4.1999,-4.1999,-4.2047,-4.213,-4.2085,0.0,0.0,-4.3407,0.0,-4.3313,-4.2524,-4.305,-4.3501,-4.3595,-4.4271,-4.4965,-4.5604,-4.5772,-4.6073,-4.6542,-4.688,-4.7068,-4.7199,-4.7819,-4.8288,-4.8345,-4.8889,-4.9415,-4.9396,-4.949,-4.9471,-4.949,-4.9415,-4.949,-4.9415,-4.9537,-4.9655,-4.9598,-4.9693,-4.9822,-3.361,-3.3594,-3.374,-3.3598,-3.3208,-3.3259,-3.3736,-3.4498,-3.4566,-3.4634,-3.4755,-3.4934,-3.5106,-3.5187,-3.54,-3.5861,-3.6486,-3.6504,-3.6898,-3.7612,-3.7778,-3.7884,-3.792,-3.8117,-3.8274,-3.8354,-3.8496,-3.8621,-3.881,-3.9036,-3.9156,-3.9183,-3.9013,-3.9039,-3.9276,-3.9276,-3.9414,-3.9602,-3.962,-3.962,-3.962,-3.965,-3.9698,-3.9698,-3.9731,-3.9735,-3.9735,-3.9754,-3.9735,-3.9735,-3.9754,-3.9731,-3.9698,-3.9698,0.0,0.0,0.0,0.0,0.0,0.0,0.0,0.0,0.0,-3.962,-3.962,0.0,-3.962,0.0,-4.014,-4.076,-4.1379,-4.1605,0.0,0.0,-4.1879,-4.1999,-4.2018,-4.2581,-4.2994,-4.2994,-4.4064,-4.489,-4.5097,-4.5697,-4.6054,-4.5848,-4.5416,-4.5378,-4.6017,-4.6261,-4.6486,-4.6655,-4.6692,-4.6768,-4.7049,-4.7519,-4.8119,-4.8795,-4.9077,-4.9171,-4.9189,-4.9358,-4.949,-4.9509,-4.9509,-4.9509,-4.9527,-4.9509,-4.9527,-4.9509,-4.9612,-4.9711,-4.9711,-4.9807,-4.9898,-3.446,-3.4495,-3.4905,-3.5048,-3.4941,-3.4568,-3.4727,-3.5239,-3.5273,-3.5341,-3.546,-3.5852,-3.6242,-3.6582,-3.6684,-3.6952,-3.7401,-3.7401,-3.7706,-3.8192,-3.8192,-3.8192,-3.8192,-3.8192,-3.8259,-3.8307,-3.8368,-3.8496,-3.8707,-3.8881,-3.9017,-3.9101,-3.9283,-3.9425,-3.9546,-3.9596,-3.962,-3.962,-3.962,-3.962,-3.962,-3.9669,-3.9693,-3.9693,-3.9703,-3.9708,-3.9708,-3.9708,-3.9708,-3.9708,-3.9708,-3.9703,-3.9693,-3.9693,-3.9669,0.0,0.0,0.0,0.0,0.0,0.0,0.0,0.0,0.0,0.0,0.0,-4.0272,-4.0647,-4.1079,-4.1529,-4.1961,-4.2355,-4.2581,-4.26,-4.2919,-4.3257,-4.3613,-4.4064,-4.4515,-4.4909,-4.5735,-4.6261,-4.6298,-4.6692,-4.7143,-4.7462,-4.7124,-4.6861,-4.6955,-4.6993,-4.7124,-4.7462,-4.7537,-4.7706,-4.8044,-4.8476,-4.8927,-4.9377,-4.9509,-4.9509,-4.9509,-4.9509,-4.9509,-4.9527,-4.979,-5.0016,-5.0053,-5.0353,-5.056,-5.056,-5.0654,-5.0595,-5.0274,-5.061,-5.0988,-3.5346,-3.5382,-3.5471,-3.5952,-3.6524,-3.574,-3.556,-3.5697,-3.5697,-3.5747,-3.5864,-3.6648,-3.7368,-3.8036,-3.814,-3.8192,-3.8192,-3.8192,-3.8192,-3.8192,-3.8192,-3.8192,-3.8192,-3.8192,-3.828,-3.8419,-3.8452,-3.8605,-3.8939,-3.9044,-3.9176,-3.936,-3.9463,-3.9517,-3.9619,-3.9677,-3.9708,-3.962,-3.962,-3.962,-3.962,-3.9782,-3.9844,-3.9863,-3.9943,-3.9986,-3.9986,-3.9986,-3.9986,-3.9986,-3.9986,-4.0,-3.9994,-4.0013,-3.997,0.0,-3.9896,0.0,0.0,0.0,0.0,0.0,0.0,0.0,0.0,-4.0553,-4.1304,-4.2085,-4.216,-4.2224,-4.2337,-4.3106,-4.3613,-4.3632,-4.4327,-4.5115,-4.5772,-4.5866,-4.6148,-4.6918,-4.7087,-4.7162,-4.7143,-4.7237,-4.7612,-4.8213,-4.8326,-4.8082,-4.7537,-4.7425,-4.7687,-4.8269,-4.8363,-4.8607,-4.9189,-4.9415,-4.9452,-4.949,-4.964,-4.964,-4.9696,-4.9809,-4.9847,-4.9903,-5.0429,-5.0823,-5.0842,-5.1405,-5.1837,-5.1799,-5.1939,-5.1839,-5.123,-5.159,-5.2265,-3.6185,-3.6238,-3.6934,-3.731,-3.7435,-3.7398,-3.7327,-3.7273,-3.738,-3.7466,-3.7551,-3.7832,-3.8047,-3.8174,-3.8174,-3.8192,-3.8192,-3.8192,-3.8192,-3.8192,-3.8192,-3.8192,-3.8192,-3.8192,-3.8536,-3.9168,-3.9236,-3.9649,-4.0354,-4.0471,-4.0584,-4.073,-4.088,-4.0736,-4.0281,0.0,0.0,0.0,-3.962,-3.962,-3.9639,-4.0259,-4.0597,-4.0616,-4.1217,0.0,-4.1555,-4.1574,-4.1555,-4.1574,-4.1574,0.0,0.0,0.0,0.0,0.0,0.0,0.0,0.0,0.0,0.0,0.0,-4.1642,-4.1567,-4.1548,-4.1698,-4.2149,-4.2975,-4.305,-4.3313,-4.3989,-4.4759,-4.5228,-4.5284,-4.6017,-4.6599,-4.6749,-4.6768,-4.6843,-4.6974,-4.7575,-4.7969,-4.8007,-4.857,-4.9039,-4.9171,-4.9246,-4.9189,-4.902,-4.8945,-4.9058,-4.9246,-4.9189,-4.9283,-4.9471,-4.9527,-4.9584,-4.9565,-5.0072,-5.0429,-5.0504,-5.1011,-5.1424,-5.1386,-5.1574,-5.1668,-5.1686,-5.1818,-5.2024,-5.1931,-5.2508,-5.2714,-5.1952,-5.205,-5.2303,-3.6988,0.0,-3.7488,-3.7667,0.0,-3.7846,-3.7863,-3.7845,-3.7933,-3.8002,-3.8088,-3.8192,-3.8192,-3.8192,-3.8192,-3.8192,-3.8192,-3.8192,-3.8192,-3.8192,-3.8192,-3.8192,-3.821,-3.859,-3.8989,-3.9405,-3.9802,-4.0253,-4.0688,-4.0792,-4.0894,-4.1111,-4.1235,-4.12,-4.0987,-4.1185,-4.072,-3.962,-3.999,-4.0196,-4.0215,-4.0985,-4.1398,-4.1417,0.0,0.0,0.0,0.0,0.0,0.0,0.0,0.0,0.0,0.0,0.0,-4.1999,-4.1999,-4.1999,-4.1999,-4.1999,-4.2187,-4.2618,-4.3388,-4.3482,-4.2731,-4.2637,-4.3144,-4.4346,-4.4496,-4.4834,-4.566,-4.611,-4.6354,-4.6354,-4.6749,-4.7143,-4.7519,-4.7575,-4.7781,-4.8194,-4.8589,-4.8852,-4.8833,-4.9189,-4.9471,-4.9509,-4.9509,-4.9509,-4.9509,-4.9509,-4.9509,-4.9509,-4.9509,-4.9659,-5.0016,-5.0091,-5.026,-5.0616,-5.1029,-5.1255,-5.1292,-5.163,-5.1912,-5.1949,-5.2231,-5.2531,-5.2588,-5.285,-5.3151,-5.317,-5.3489,-5.3658,-5.3273,-5.3295,-5.3421,-3.7577,-3.7577,-3.7613,-3.7649,-3.7703,-3.7828,-3.7951,-3.8036,0.0,0.0,0.0,-3.8192,-3.8192,-3.8192,-3.8192,-3.8192,-3.8192,-3.8192,-3.8192,-3.8192,-3.8337,-3.8409,-3.8445,-3.9224,-3.9659,-3.984,-4.0437,-4.0854,-4.1087,-4.1105,-4.1211,-4.1449,-4.1548,-4.1667,-4.1802,-4.1876,-4.1282,-4.0121,-4.0666,-4.1004,-4.1041,-4.1811,-4.2243,-4.2216,-4.2393,-4.2423,-4.2423,-4.2449,-4.2449,-4.2441,-4.2441,-4.2423,-4.2423,-4.2449,-4.2423,-4.2449,-4.2441,-4.2441,-4.2449,-4.26,-4.3031,-4.3895,-4.5172,-4.5303,-4.382,-4.3857,-4.4496,-4.581,-4.5941,-4.6223,-4.6936,-4.7162,-4.7218,-4.7218,-4.7368,-4.7725,-4.8326,-4.8438,-4.8683,-4.9358,-4.9452,-4.949,-4.9452,-4.9471,-4.9509,-4.9509,-4.9509,-4.9509,-4.9509,-4.9509,-4.9584,-4.9753,-4.9809,-5.0016,-5.0691,-5.0917,-5.118,-5.1649,-5.1968,-5.2118,-5.2137,-5.2231,-5.2325,-5.2494,-5.2963,-5.332,-5.3433,-5.3864,-5.439,-5.4409,-5.4409,-5.4409,-5.4409,-5.4458,-5.4463,-3.7577,-3.7577,-3.7649,-3.7703,-3.7703,-3.7915,-3.8036,-3.8192,-3.8192,-3.8192,-3.8192,-3.8192,-3.8192,-3.8192,-3.8192,-3.8192,-3.8192,-3.8192,-3.8192,0.0,-3.8916,-3.9224,-3.926,-3.9985,-4.0709,-4.1361,-4.1506,-4.1904,-4.2539,-4.2594,-4.2723,-4.2886,-4.2992,-4.2864,-4.263,-4.2137,-4.178,-4.16,-4.1721,-4.1822,-4.1849,-4.2675,-4.3125,-4.3144,-4.3782,-4.4177,-4.4158,-4.4139,-4.4158,-4.4158,-4.4158,-4.4158,-4.4158,-4.412,-4.4158,-4.4177,-4.4158,-4.4158,-4.4177,-4.4796,-4.5566,-4.6373,-4.6692,-4.6392,-4.5491,-4.6054,-4.658,-4.6824,-4.6824,-4.6861,-4.703,-4.765,-4.8025,-4.8082,-4.8683,-4.9189,-4.9265,-4.9265,-4.9321,-4.9471,-4.9509,-4.9509,-4.9509,-4.9509,-4.9509,-4.9509,-4.9584,-4.9546,-4.9584,-4.9509,-4.979,-5.0353,-5.0522,-5.086,-5.1518,-5.1724,-5.1837,-5.1855,-5.2588,-5.3001,-5.3001,-5.3451,-5.3808,-5.3996,-5.4052,-5.4146,-5.4183,-5.4296,-5.4409,-5.4409,-5.4409,-5.4409,-5.4409,-5.4424,-5.4458,-3.7577,-3.7577,-3.7649,-3.7667,-3.7703,-3.7915,-3.8018,-3.8088,-3.8192,-3.8192,-3.8192,-3.8192,-3.8192,-3.8192,-3.8192,-3.8192,-3.8192,-3.8192,-3.8427,-3.8862,-3.9224,-3.9623,-4.0039,-4.08,-4.1343,-4.1741,-4.214,-4.2538,-4.2864,-4.29,-4.3013,-4.3196,-4.3356,-4.3446,-4.3417,-4.3197,-4.3108,-4.324,-4.2892,-4.2712,-4.2712,-4.352,-4.3933,-4.3951,-4.4327,-4.4496,-4.4496,-4.4496,-4.4496,-4.4496,-4.4496,-4.4496,-4.4496,-4.4496,-4.4702,-4.5115,-4.5153,-4.5359,-4.5848,-4.6204,-4.6561,-4.6993,-4.7406,-4.75,-4.7105,-4.7012,-4.7199,-4.7594,-4.765,-4.7856,-4.8288,-4.8701,-4.8908,-4.8927,-4.9283,-4.949,-4.9509,-4.9509,-4.9509,-4.9509,-4.9509,-4.9509,-4.9509,-4.9509,-4.9509,-4.9527,-4.9809,-5.0128,-5.0166,-5.0541,-5.0729,-5.0748,-5.1048,-5.1668,-5.2419,-5.2588,-5.2775,-5.317,-5.3583,-5.3827,-5.3846,-5.4221,-5.4371,-5.4409,-5.4409,-5.4409,-5.4409,-5.4409,-5.4409,-5.4409,-5.4409,-5.4409,-5.4409,-5.4424,-5.4524,-3.7577,-3.7577,-3.7577,-3.7649,-3.7703,-3.7898,-3.8002,-3.8018,-3.814,-3.8192,-3.8192,-3.8192,-3.8192,-3.8192,-3.8192,-3.8192,-3.821,-3.8391,-3.879,-3.9369,-3.9749,-4.022,-4.0818,-4.1615,-4.1995,-4.2049,-4.2592,-4.29,-4.29,-4.29,-4.3013,-4.316,-4.3444,-4.3682,-4.3878,-4.3955,-4.4097,-4.4269,-4.384,-4.3576,-4.3595,-4.4195,-4.4496,-4.4496,-4.4496,-4.4496,-4.4496,-4.4496,-4.459,-4.4759,-4.4796,-4.4871,-4.504,-4.5078,-4.5359,-4.5904,-4.5998,-4.6373,-4.7181,-4.7274,-4.7368,-4.7575,-4.8138,-4.8495,-4.8438,-4.795,-4.78,-4.8363,-4.8476,-4.8776,-4.9283,-4.9471,-4.9509,-4.9509,-4.9509,-4.9509,-4.9509,-4.9509,-4.9509,-4.9509,-4.9509,-4.9509,-4.9509,-4.9509,-4.9584,-4.9865,-5.0316,-5.071,-5.0973,-5.1649,-5.1855,-5.1611,-5.1799,-5.2494,-5.3282,-5.347,-5.3695,-5.4352,-5.4371,-5.4334,-5.4352,-5.439,-5.4409,-5.4409,-5.4409,-5.4409,-5.4409,-5.4409,-5.4409,-5.4409,-5.4409,-5.4409,-5.4409,-5.4458,-5.4557,-3.7594,-3.7577,-3.7577,-3.7631,-3.7703,-3.7846,-3.7951,-3.8002,-3.814,-3.8192,-3.8192,-3.8192,-3.8192,-3.8192,-3.8192,-3.821,-3.8282,-3.8952,-3.9333,-3.9604,-4.0872,-4.1542,-4.1669,-4.2393,-4.2774,-4.2774,-4.2846,-4.29,-4.29,-4.2882,-4.2975,-4.3123,-4.3393,-4.3513,-4.3582,-4.3846,-4.4067,-4.4121,-4.4231,-4.4327,-4.4402,-4.4477,-4.4496,-4.4496,-4.4515,-4.4496,-4.4552,-4.4496,-4.4853,-4.551,-4.5585,-4.5941,-4.6617,-4.6749,-4.6786,-4.688,-4.6899,-4.7237,-4.7988,-4.8082,-4.842,-4.9171,-4.9265,-4.934,-4.934,-4.9283,-4.9283,-4.9321,-4.9358,-4.9377,-4.9471,-4.9509,-4.9509,-4.9509,-4.9509,-4.9509,-4.9509,-4.9509,-4.9509,-4.9509,-4.9509,-4.9509,-4.9509,-4.9565,-4.9828,-5.0372,-5.0785,-5.118,-5.1743,-5.2513,-5.3038,-5.2926,-5.3038,-5.3376,-5.4015,-5.4277,-5.4277,-5.439,-5.4409,-5.4409,-5.4409,-5.4409,-5.4409,-5.4409,-5.4409,-5.4409,-5.4409,-5.4409,-5.4409,-5.4409,-5.4409,-5.4409,-5.4409,-5.4458,-5.4557,-3.7447,-3.7466,-3.7466,-3.754,-3.7649,-3.7757,-3.7792,-3.7845,-3.7951,-3.8003,-3.8003,-3.8003,-3.8072,-3.8192,-3.8192,-3.8427,-3.8916,-3.9242,-3.9912,-4.0745,-4.1433,-4.1977,-4.2429,-4.2662,-4.2862,-4.29,-4.2862,-4.2862,-4.2882,-4.2975,-4.3049,-4.3104,-4.334,-4.3463,-4.3532,-4.3697,-4.3841,-4.4067,-4.4568,-4.492,-4.5009,-4.4683,-4.4496,-4.4552,-4.4965,-4.5209,-4.5266,-4.5697,-4.6148,-4.6448,-4.6467,-4.6636,-4.6974,-4.6993,-4.7218,-4.7669,-4.8213,-4.8626,-4.8945,-4.8964,-4.9114,-4.949,-4.9509,-4.9509,-4.9509,-4.9509,-4.9509,-4.9509,-4.9509,-4.9509,-4.9509,-4.9509,-4.9509,-4.9509,-4.9509,-4.9509,-4.9509,-4.9509,-4.9509,-4.9509,-4.9509,-4.9509,-4.9565,-4.9922,-5.0316,-5.0804,-5.1424,-5.2231,-5.2663,-5.3376,-5.3846,-5.3883,-5.3902,-5.4015,-5.4352,-5.4409,-5.4409,-5.4409,-5.4409,-5.4409,-5.4409,-5.4409,-5.4409,-5.4409,-5.4409,-5.4409,-5.4409,-5.4409,-5.4409,-5.4428,-5.4409,-5.4409,-5.4409,-5.4443,-5.466,-3.7317,-3.7392,-3.7429,-3.7485,-3.7613,-3.7667,-3.7685,-3.7739,-3.7846,-3.7917,-3.79,-3.7917,-3.8095,-3.8432,-3.8484,-3.8844,-3.9369,-3.9822,-4.0619,-4.1632,-4.1903,-4.2301,-4.2844,-4.2765,-4.2765,-4.2786,-4.2783,-4.2765,-4.2824,-4.2918,-4.2992,-4.3012,-4.3196,-4.3414,-4.3704,-4.3807,-4.4073,-4.455,-4.5148,-4.5491,-4.5587,-4.5207,-4.498,-4.5142,-4.5677,-4.5996,-4.5996,-4.6577,-4.7076,-4.7301,-4.7301,-4.7443,-4.7687,-4.7687,-4.795,-4.8514,-4.9133,-4.9509,-4.9509,-4.9509,-4.9509,-4.9509,-4.9509,-4.9509,-4.9509,-4.9509,-4.9509,-4.9509,-4.9509,-4.9509,-4.9509,-4.9509,-4.9509,-4.9509,-4.9509,-4.9509,-4.9509,-4.9509,-4.9509,-4.9509,-4.9509,-4.9602,-4.9847,-5.0335,-5.0804,-5.148,-5.2419,-5.332,-5.3508,-5.3996,-5.439,-5.4409,-5.4409,-5.439,-5.4409,-5.4409,-5.4409,-5.4409,-5.4409,-5.4409,-5.4409,-5.4409,-5.4409,-5.4409,-5.4409,-5.4409,-5.4409,-5.4409,-5.4446,-5.4465,-5.4597,-5.4766,-5.4841,-5.4897,-5.5363,-3.7317,-3.7429,-3.754,-3.7594,-3.7613,-3.7667,-3.7685,-3.7703,-3.7828,-3.79,-3.7882,-3.7882,-3.8312,-3.9032,-3.9085,-3.9263,-3.9623,-4.0854,-4.1542,-4.1813,-4.2389,-4.2729,-4.2783,-4.2649,-4.2609,-4.2649,-4.2609,-4.2609,-4.2649,-4.2649,-4.2706,-4.2858,-4.2991,-4.3393,-4.4142,-4.4382,-4.4894,-4.559,-4.5827,-4.6007,-4.6059,-4.6057,-4.6209,-4.6557,-4.6638,-4.6657,-4.6676,-4.6756,-4.7229,-4.8035,-4.8096,-4.8476,-4.9227,-4.9321,-4.9321,-4.9415,-4.9471,-4.9509,-4.9509,-4.9509,-4.9509,-4.9509,-4.9509,-4.9509,-4.9509,-4.9509,-4.9509,-4.9509,-4.9509,-4.9509,-4.9509,-4.9509,-4.9509,-4.9509,-4.9509,-4.9509,-4.9509,-4.9509,-4.9509,-4.9509,-4.9584,-4.9865,-5.0504,-5.0654,-5.1518,-5.2475,-5.3113,-5.3451,-5.4071,-5.4352,-5.4409,-5.4409,-5.4409,-5.4409,-5.4409,-5.4409,-5.4409,-5.4409,-5.4409,-5.4409,-5.4409,-5.4409,-5.4409,-5.4409,-5.4409,-5.4409,-5.4409,-5.4446,-5.4521,-5.4728,-5.5272,-5.5479,-5.5573,-5.6286,-5.6678,-3.7126,-3.7223,-3.7374,-3.7466,-3.7503,-3.7577,-3.7649,-3.7631,-3.7703,-3.7703,-3.7685,-3.7721,-3.8187,-3.9013,-3.9552,-4.0092,-4.0708,-4.1265,-4.1789,-4.2237,-4.2562,-4.2667,-4.2663,-4.2566,-4.2566,-4.2566,-4.2548,-4.2548,-4.2609,-4.2609,-4.2879,-4.3408,-4.3505,-4.3963,-4.4708,-4.4968,-4.5231,-4.5601,-4.6072,-4.6403,-4.6504,-4.7018,-4.7369,-4.75,-4.7307,-4.7237,-4.7218,-4.7835,-4.8348,-4.8646,-4.8744,-4.899,-4.9321,-4.944,-4.9509,-4.9509,-4.9509,-4.9509,-4.9509,-4.9509,-4.9509,-4.9509,-4.9509,-4.9509,-4.9509,-4.9509,-4.9509,-4.9509,-4.9509,-4.9509,-4.9509,-4.9509,-4.9509,-4.9509,-4.9509,-4.9509,-4.9509,-4.9509,-4.9509,-4.9584,-4.9903,-5.041,-5.086,-5.1611,-5.2494,-5.3076,-5.362,-5.4033,-5.4277,-5.4409,-5.4409,-5.4409,-5.4409,-5.4409,-5.4409,-5.4409,-5.4409,-5.4409,-5.4409,-5.4409,-5.4409,-5.4409,-5.4409,-5.4409,-5.4409,-5.4484,-5.454,-5.5066,-5.5066,-5.531,-5.5854,-5.6343,-5.6436,-5.6981,-5.73,-3.7087,-3.7147,-3.7299,-3.7374,-3.7411,-3.754,-3.7577,-3.7577,-3.7577,-3.7577,-3.7612,-3.7862,-3.8452,-3.9258,-4.0083,-4.0891,-4.1629,-4.1761,-4.2088,-4.2591,-4.2588,-4.2566,-4.2544,-4.2463,-4.2445,-4.2486,-4.2445,-4.2486,-4.2526,-4.2759,-4.3194,-4.3737,-4.3994,-4.4633,-4.5335,-4.5539,-4.5712,-4.606,-4.6555,-4.685,-4.6962,-4.7456,-4.7765,-4.7715,-4.7545,-4.7574,-4.7702,-4.8435,-4.8818,-4.8872,-4.9061,-4.9193,-4.9257,-4.9358,-4.9459,-4.9459,-4.9459,-4.9509,-4.9509,-4.9509,-4.9509,-4.9509,-4.9509,-4.9509,-4.9509,-4.9509,-4.9509,-4.9509,-4.9509,-4.9509,-4.9509,-4.9509,-4.9509,-4.9509,-4.9509,-4.9509,-4.9509,-4.9509,-4.964,-4.994,-5.0335,-5.0842,-5.148,-5.2494,-5.317,-5.3508,-5.4071,-5.439,-5.4409,-5.4409,-5.4409,-5.4409,-5.4409,-5.4409,-5.4409,-5.4409,-5.4409,-5.4409,-5.4409,-5.4409,-5.4409,-5.4409,-5.4409,-5.4409,-5.4484,-5.4559,-5.4916,-5.5535,-5.5854,-5.6061,-5.6643,-5.7263,-5.7394,-5.7582,-5.7938,-3.7108,-3.7108,-3.7299,-3.7374,-3.7392,-3.7503,-3.7577,-3.7577,-3.7577,-3.7576,-3.7772,-3.8378,-3.9073,-3.9968,-4.0624,-4.1484,-4.2132,-4.2324,-4.248,-4.257,-4.2508,-4.2503,-4.2503,-4.2387,-4.2328,-4.2346,-4.2328,-4.2323,-4.2471,-4.3096,-4.3549,-4.3805,-4.451,-4.5251,-4.6187,-4.618,-4.6547,-4.6952,-4.708,-4.7107,-4.7196,-4.7205,-4.7223,-4.7223,-4.7396,-4.7638,-4.8002,-4.8271,-4.8477,-4.8623,-4.8834,-4.9038,-4.9193,-4.9276,-4.9289,-4.9308,-4.9409,-4.949,-4.9509,-4.949,-4.9509,-4.9509,-4.9509,-4.9509,-4.9509,-4.9509,-4.9509,-4.9509,-4.9509,-4.9509,-4.9509,-4.9509,-4.9509,-4.9509,-4.9509,-4.9509,-4.9509,-4.9527,-4.9809,-5.0466,-5.0823,-5.1442,-5.2606,-5.3226,-5.3583,-5.4108,-5.4352,-5.4409,-5.4409,-5.4409,-5.4409,-5.4409,-5.4409,-5.4409,-5.4409,-5.4409,-5.4409,-5.4409,-5.4409,-5.4409,-5.4409,-5.4409,-5.4409,-5.4428,-5.4728,-5.4859,-5.5667,-5.6267,-5.6718,-5.7018,-5.7638,-5.807,-5.822,-5.837,-5.8727,-3.7048,-3.7048,-3.7164,-3.7167,-3.7223,-3.7334,-3.741,-3.741,-3.7372,-3.7656,-3.8135,-3.8419,-3.9252,-4.0357,-4.0795,-4.1351,-4.2079,-4.2157,-4.2264,-4.2369,-4.2369,-4.2346,-4.2346,-4.2328,-4.2287,-4.2287,-4.2287,-4.259,-4.3072,-4.3411,-4.3964,-4.4971,-4.5329,-4.5944,-4.6641,-4.6668,-4.6783,-4.6926,-4.6842,-4.6795,-4.6778,-4.687,-4.6952,-4.6952,-4.716,-4.7381,-4.7542,-4.7915,-4.821,-4.8382,-4.8624,-4.8841,-4.9086,-4.9202,-4.9211,-4.9244,-4.9308,-4.9358,-4.9358,-4.944,-4.949,-4.9509,-4.9509,-4.9509,-4.9509,-4.9509,-4.9509,-4.9509,-4.9509,-4.9509,-4.9509,-4.9509,-4.9509,-4.9509,-4.9509,-4.9509,-4.9621,-4.9997,-5.0391,-5.0767,-5.1686,-5.2606,-5.3132,-5.3564,-5.4071,-5.4296,-5.4409,-5.4409,-5.4409,-5.4409,-5.4409,-5.4409,-5.4409,-5.4409,-5.4409,-5.4409,-5.4409,-5.4409,-5.4409,-5.4409,-5.4409,-5.4428,-5.4409,-5.4747,-5.501,-5.5592,-5.638,-5.7018,-5.7525,-5.7901,-5.8351,-5.8652,-5.8877,-5.9065,-5.9234,-3.697,-3.7027,-3.7069,-3.7108,-3.7108,-3.7259,-3.7297,-3.735,-3.7615,-3.7948,-3.8426,-3.9045,-3.9846,-4.0713,-4.1102,-4.151,-4.197,-4.2005,-4.209,-4.2181,-4.2181,-4.2181,-4.2181,-4.2181,-4.2181,-4.2252,-4.2465,-4.2839,-4.3373,-4.3978,-4.4707,-4.5525,-4.5952,-4.6308,-4.6806,-4.6778,-4.6731,-4.6684,-4.6607,-4.6542,-4.659,-4.6684,-4.6778,-4.6888,-4.7116,-4.7294,-4.7468,-4.7806,-4.8072,-4.8229,-4.8457,-4.8752,-4.9002,-4.9101,-4.9164,-4.9164,-4.9211,-4.9276,-4.9308,-4.9409,-4.944,-4.949,-4.9509,-4.9509,-4.9509,-4.9509,-4.9509,-4.9509,-4.9509,-4.9509,-4.9509,-4.9509,-4.9509,-4.9509,-4.9509,-4.964,-4.9922,-5.0372,-5.1048,-5.1611,-5.255,-5.3207,-5.3695,-5.3977,-5.4409,-5.4409,-5.4409,-5.4409,-5.4409,-5.4409,-5.4409,-5.4409,-5.4409,-5.4409,-5.4409,-5.4409,-5.4409,-5.4409,-5.4409,-5.4409,-5.4409,-5.4428,-5.4446,-5.5329,-5.5798,-5.6624,-5.7431,-5.8032,-5.8558,-5.884,-5.8915,-5.9027,-5.914,-5.9178,-5.929,-3.697,-3.7027,-3.7069,-3.7108,-3.7108,-3.722,-3.7312,-3.7471,-3.8037,-3.8422,-3.8903,-3.9982,-4.0707,-4.099,-4.1556,-4.1874,-4.1962,-4.1945,-4.1945,-4.1945,-4.1987,-4.1987,-4.2048,-4.203,-4.2101,-4.2296,-4.2774,-4.3156,-4.3607,-4.4653,-4.5421,-4.5645,-4.6247,-4.6554,-4.6637,-4.659,-4.659,-4.659,-4.6447,-4.6447,-4.659,-4.659,-4.6749,-4.6998,-4.7205,-4.7407,-4.7681,-4.7911,-4.805,-4.809,-4.8438,-4.8732,-4.8892,-4.9015,-4.9083,-4.9083,-4.9131,-4.9211,-4.9276,-4.9308,-4.9358,-4.9459,-4.949,-4.9509,-4.9509,-4.9509,-4.9509,-4.9509,-4.9509,-4.9509,-4.9509,-4.9509,-4.9509,-4.9509,-4.9621,-4.9978,-5.0541,-5.0804,-5.1611,-5.2682,-5.3226,-5.3508,-5.4221,-5.4352,-5.439,-5.4409,-5.4409,-5.4409,-5.4409,-5.4409,-5.4409,-5.4409,-5.4409,-5.4409,-5.4409,-5.4409,-5.4409,-5.4409,-5.4428,-5.4446,-5.4559,-5.4634,-5.5179,-5.6023,-5.6699,-5.7582,-5.8258,-5.8764,-5.9046,-5.9121,-5.9196,-5.9271,-5.929,-5.929,-5.929,-3.697,-3.7027,-3.7009,-3.7009,-3.7009,-3.7066,-3.74,-3.7893,-3.8104,-3.8913,-3.9828,-4.0355,-4.0926,-4.1376,-4.1569,-4.1692,-4.171,-4.171,-4.171,-4.171,-4.171,-4.1815,-4.1962,-4.2005,-4.2288,-4.2749,-4.3006,-4.3687,-4.4767,-4.5181,-4.5722,-4.6271,-4.6448,-4.659,-4.659,-4.6477,-4.6447,-4.6447,-4.6301,-4.6301,-4.6447,-4.6542,-4.6749,-4.6998,-4.7294,-4.7578,-4.777,-4.8169,-4.8379,-4.8433,-4.8606,-4.8768,-4.8909,-4.8943,-4.8962,-4.8978,-4.903,-4.9116,-4.9183,-4.9244,-4.9308,-4.934,-4.9459,-4.9509,-4.9509,-4.9509,-4.9509,-4.9509,-4.9509,-4.9509,-4.9509,-4.9509,-4.9509,-4.9584,-5.0034,-5.0466,-5.0842,-5.1818,-5.2757,-5.3151,-5.3714,-5.4108,-5.4315,-5.4409,-5.4409,-5.4409,-5.4409,-5.4409,-5.4409,-5.4409,-5.4409,-5.4409,-5.4409,-5.4409,-5.4409,-5.4409,-5.4409,-5.4409,-5.4446,-5.4484,-5.4747,-5.5066,-5.6061,-5.7187,-5.7507,-5.8239,-5.8708,-5.9178,-5.929,-5.929,-5.929,-5.929,-5.929,-5.929,-5.929,-3.697,-3.697,-3.697,-3.697,-3.7023,-3.7303,-3.7707,-3.8199,-3.8848,-3.9568,-4.0428,-4.0849,-4.1183,-4.1587,-4.1604,-4.1604,-4.1604,-4.1604,-4.1604,-4.1604,-4.1604,-4.1692,-4.1797,-4.1858,-4.2247,-4.297,-4.3305,-4.4135,-4.5112,-4.5552,-4.5993,-4.6293,-4.6447,-4.6416,-4.6398,-4.635,-4.6301,-4.6301,-4.627,-4.627,-4.6495,-4.6542,-4.6824,-4.7143,-4.7493,-4.777,-4.8172,-4.8476,-4.8661,-4.8716,-4.877,-4.8804,-4.8909,-4.889,-4.889,-4.889,-4.8962,-4.9049,-4.9101,-4.9183,-4.9244,-4.9308,-4.939,-4.944,-4.949,-4.9509,-4.9509,-4.9509,-4.9509,-4.9509,-4.9509,-4.9509,-4.9659,-5.0053,-5.071,-5.118,-5.1198,-5.2362,-5.3245,-5.3677,-5.409,-5.4409,-5.4409,-5.4409,-5.4409,-5.4409,-5.4409,-5.4409,-5.4409,-5.4409,-5.4409,-5.4409,-5.4409,-5.4409,-5.4409,-5.4409,-5.4521,-5.4521,-5.4972,-5.4916,-5.5348,-5.5779,-5.6793,-5.7845,-5.8295,-5.8689,-5.9046,-5.929,-5.929,-5.929,-5.929,-5.929,-5.929,-5.9346,-5.9346,-3.697,-3.697,-3.697,-3.697,-3.7093,-3.7777,-3.8146,-3.8532,-3.9708,-4.0463,-4.0762,-4.1323,-4.1516,-4.1604,-4.1604,-4.1604,-4.1604,-4.1604,-4.1604,-4.1604,-4.1604,-4.1604,-4.1648,-4.1648,-4.2193,-4.3002,-4.3623,-4.4378,-4.5268,-4.5923,-4.6168,-4.6239,-4.6221,-4.6239,-4.6221,-4.6221,-4.6221,-4.627,-4.627,-4.6368,-4.659,-4.6684,-4.6916,-4.7407,-4.777,-4.8172,-4.8569,-4.8787,-4.8805,-4.8804,-4.8822,-4.8839,-4.889,-4.889,-4.889,-4.889,-4.8909,-4.8962,-4.9068,-4.9101,-4.915,-4.9244,-4.9289,-4.934,-4.9459,-4.9509,-4.9509,-4.9509,-4.9509,-4.9509,-4.9546,-4.9565,-4.9959,-5.056,-5.1405,-5.1987,-5.2193,-5.2794,-5.3601,-5.4259,-5.439,-5.4409,-5.4409,-5.4409,-5.4409,-5.4409,-5.4409,-5.4409,-5.4409,-5.4409,-5.4409,-5.4409,-5.4409,-5.4409,-5.4409,-5.4409,-5.4559,-5.4709,-5.5498,-5.5854,-5.6343,-5.6887,-5.7638,-5.8351,-5.8727,-5.8971,-5.9159,-5.929,-5.929,-5.929,-5.929,-5.929,-5.929,-5.9346,-5.9383,-3.697,-3.697,-3.697,-3.697,-3.711,-3.7795,-3.848,-3.9111,-4.0059,-4.0832,-4.1288,-4.1534,-4.1587,-4.1604,-4.1604,-4.1604,-4.1604,-4.1604,-4.1604,-4.1604,-4.1604,-4.1604,-4.1604,-4.1604,-4.2377,-4.336,-4.3781,-4.4624,-4.5712,-4.6081,-4.6189,-4.6221,-4.6239,-4.6239,-4.6221,-4.6221,-4.627,-4.635,-4.635,-4.6495,-4.6749,-4.6842,-4.7116,-4.7554,-4.8032,-4.8438,-4.8715,-4.8857,-4.8892,-4.8874,-4.8855,-4.8855,-4.889,-4.889,-4.889,-4.889,-4.889,-4.8909,-4.8943,-4.9049,-4.9135,-4.9179,-4.9257,-4.9358,-4.949,-4.9509,-4.9509,-4.9509,-4.9509,-4.9509,-4.964,-5.0109,-5.0522,-5.1029,-5.2024,-5.2869,-5.3038,-5.3601,-5.4127,-5.4334,-5.4409,-5.4409,-5.4409,-5.4409,-5.4409,-5.4409,-5.4409,-5.4409,-5.4409,-5.4409,-5.4409,-5.4409,-5.4409,-5.4428,-5.4465,-5.4578,-5.4859,-5.5235,-5.6005,-5.6643,-5.715,-5.7676,-5.8314,-5.8764,-5.9121,-5.9271,-5.929,-5.929,-5.929,-5.929,-5.9309,-5.9346,-5.9383,-5.9401,-5.9438,-3.697,-3.697,-3.697,-3.697,-3.7163,-3.8181,-3.8918,-3.9498,-4.0551,-4.1218,-4.1534,-4.1604,-4.1604,-4.1604,-4.1604,-4.1604,-4.1604,-4.1604,-4.1604,-4.1604,-4.1604,-4.1604,-4.1604,-4.1727,-4.2394,-4.3676,-4.3886,-4.4764,-4.5835,-4.627,-4.6301,-4.6319,-4.6368,-4.6416,-4.6416,-4.6368,-4.6398,-4.6495,-4.6495,-4.6619,-4.6888,-4.6998,-4.7276,-4.7728,-4.8249,-4.8624,-4.8857,-4.8874,-4.8909,-4.889,-4.889,-4.889,-4.889,-4.889,-4.889,-4.889,-4.889,-4.889,-4.8909,-4.8962,-4.9049,-4.9131,-4.9211,-4.9276,-4.9409,-4.9459,-4.9509,-4.9509,-4.9527,-4.9602,-5.0016,-5.0353,-5.0898,-5.1874,-5.2606,-5.332,-5.3733,-5.4165,-5.4409,-5.4409,-5.4409,-5.4409,-5.4409,-5.4409,-5.4409,-5.4409,-5.4409,-5.4409,-5.4409,-5.4409,-5.4409,-5.4409,-5.4409,-5.4446,-5.4503,-5.4747,-5.5197,-5.5798,-5.6643,-5.7225,-5.7751,-5.8276,-5.8821,-5.9084,-5.929,-5.929,-5.929,-5.929,-5.9346,-5.9401,-5.9401,-5.9438,-5.9474,-5.951,-5.9545,-3.697,-3.697,-3.697,-3.704,-3.7374,-3.8655,-3.9375,-3.9726,-4.0972,-4.1534,-4.1604,-4.1604,-4.1604,-4.1604,-4.1604,-4.1604,-4.1604,-4.1604,-4.1604,-4.1604,-4.1604,-4.1604,-4.1604,-4.1745,-4.2394,-4.3792,-4.3904,-4.4782,-4.5884,-4.635,-4.6398,-4.6447,-4.6542,-4.6607,-4.6607,-4.6655,-4.6655,-4.6731,-4.6749,-4.6824,-4.707,-4.7178,-4.7493,-4.8093,-4.8439,-4.8714,-4.8874,-4.889,-4.889,-4.889,-4.889,-4.889,-4.889,-4.889,-4.889,-4.889,-4.889,-4.889,-4.889,-4.8909,-4.8962,-4.9101,-4.915,-4.9211,-4.9308,-4.939,-4.9459,-4.9584,-4.9678,-5.0109,-5.0748,-5.1236,-5.1874,-5.2757,-5.3226,-5.3714,-5.4183,-5.4409,-5.4409,-5.4409,-5.4409,-5.4409,-5.4409,-5.4409,-5.4409,-5.4409,-5.4409,-5.4409,-5.4409,-5.4409,-5.4409,-5.4409,-5.4409,-5.4747,-5.4878,-5.5122,-5.5554,-5.6474,-5.7319,-5.7788,-5.8295,-5.8745,-5.9139,-5.9178,-5.9309,-5.9346,-5.9346,-5.9383,-5.9438,-5.9493,-5.9529,-5.951,-5.9581,-5.9631,-5.9666,-3.697,-3.697,-3.697,-3.7321,-3.8023,-3.8918,-3.9673,-4.0358,-4.12,-4.1587,-4.1604,-4.1604,-4.1604,-4.1604,-4.1604,-4.1604,-4.1604,-4.1604,-4.1604,-4.1604,-4.1604,-4.1604,-4.1604,-4.1684,-4.2554,-4.361,-4.405,-4.4806,-4.5998,-4.6381,-4.6495,-4.659,-4.6637,-4.6702,-4.6795,-4.6795,-4.6934,-4.7088,-4.7088,-4.7205,-4.7381,-4.7554,-4.7847,-4.8363,-4.8624,-4.8768,-4.8855,-4.889,-4.889,-4.889,-4.889,-4.889,-4.889,-4.889,-4.889,-4.889,-4.889,-4.889,-4.889,-4.889,-4.8962,-4.9068,-4.9135,-4.9164,-4.9244,-4.9358,-4.9446,-4.9771,-5.0203,-5.0823,-5.163,-5.2156,-5.2719,-5.3301,-5.3752,-5.4183,-5.4352,-5.4409,-5.4409,-5.4409,-5.4409,-5.4409,-5.4409,-5.4409,-5.4409,-5.4409,-5.4409,-5.4409,-5.4409,-5.4409,-5.4409,-5.4409,-5.4409,-5.4878,-5.5329,-5.5629,-5.608,-5.7169,-5.7957,-5.8333,-5.8801,-5.9157,-5.9438,-5.9383,-5.9419,-5.9438,-5.9474,-5.9491,-5.9581,-5.9634,-5.9616,-5.9597,-5.9734,-5.9847,-5.9944,-3.693,-3.697,-3.693,-3.7369,-3.8181,-3.8971,-3.9761,-4.0533,-4.1271,-4.1604,-4.1604,-4.1604,-4.1604,-4.1604,-4.1604,-4.1604,-4.1604,-4.1604,-4.1604,-4.1604,-4.1604,-4.1648,-4.1692,-4.171,-4.2749,-4.3747,-4.4223,-4.4929,-4.6353,-4.6572,-4.6684,-4.6778,-4.6888,-4.698,-4.7116,-4.7187,-4.7249,-4.7443,-4.7486,-4.7572,-4.7747,-4.797,-4.8304,-4.8513,-4.8715,-4.8804,-4.8855,-4.889,-4.889,-4.889,-4.889,-4.889,-4.889,-4.889,-4.889,-4.889,-4.889,-4.889,-4.889,-4.889,-4.8962,-4.8996,-4.9049,-4.9135,-4.9216,-4.9313,-4.9583,-5.0172,-5.0842,-5.1649,-5.2475,-5.2982,-5.332,-5.377,-5.4183,-5.4352,-5.4409,-5.4409,-5.4409,-5.4409,-5.4409,-5.4409,-5.4409,-5.4409,-5.4409,-5.4409,-5.4409,-5.4409,-5.4409,-5.4409,-5.4428,-5.4615,-5.4728,-5.5291,-5.5892,-5.6418,-5.6756,-5.7769,-5.8464,-5.8876,-5.9119,-5.9417,-5.951,-5.951,-5.951,-5.9581,-5.9581,-5.9597,-5.9685,-5.9786,-5.9834,-5.9912,-5.9975,-6.0068,-6.0169,-3.6851,-3.6908,-3.6811,-3.7376,-3.8333,-3.9024,-3.9866,-4.0709,-4.1341,-4.1604,-4.1604,-4.1604,-4.1604,-4.1604,-4.1604,-4.1604,-4.1604,-4.1604,-4.1604,-4.1604,-4.1648,-4.1692,-4.1797,-4.2017,-4.274,-4.4201,-4.4414,-4.5194,-4.6418,-4.6795,-4.6916,-4.7053,-4.7223,-4.7399,-4.7554,-4.7578,-4.7681,-4.7765,-4.7806,-4.7929,-4.813,-4.8363,-4.8569,-4.8623,-4.8768,-4.8857,-4.889,-4.889,-4.889,-4.889,-4.889,-4.889,-4.889,-4.889,-4.889,-4.889,-4.889,-4.889,-4.889,-4.889,-4.8909,-4.8909,-4.8996,-4.9083,-4.9295,-4.9594,-5.0084,-5.1029,-5.1724,-5.2513,-5.3245,-5.3433,-5.3752,-5.4127,-5.4352,-5.4409,-5.4409,-5.4409,-5.4409,-5.4409,-5.4409,-5.4409,-5.4409,-5.4409,-5.4409,-5.4409,-5.4409,-5.4409,-5.4409,-5.4409,-5.4503,-5.4841,-5.5179,-5.5742,-5.6436,-5.73,-5.7713,-5.8351,-5.8876,-5.9213,-5.9399,-5.9529,-5.9599,-5.965,-5.9715,-5.9782,-5.9734,-5.9748,-5.988,-6.0007,-6.0099,-6.0169,-6.0265,-6.033,-6.0437,-3.6788,-3.6742,-3.6788,-3.765,-3.8898,-3.921,-4.013,-4.1376,-4.1552,-4.1604,-4.1604,-4.1604,-4.1604,-4.1604,-4.1604,-4.1604,-4.1604,-4.1604,-4.1604,-4.1604,-4.1692,-4.178,-4.1858,-4.1962,-4.3073,-4.4474,-4.4714,-4.5552,-4.6686,-4.7025,-4.716,-4.7381,-4.7511,-4.7639,-4.7929,-4.7951,-4.8032,-4.819,-4.8229,-4.8286,-4.8457,-4.8642,-4.8751,-4.8768,-4.8839,-4.8874,-4.889,-4.889,-4.889,-4.889,-4.889,-4.889,-4.889,-4.889,-4.889,-4.889,-4.889,-4.889,-4.889,-4.889,-4.889,-4.8909,-4.8999,-4.903,-4.9556,-5.0319,-5.126,-5.2775,-5.3019,-5.3301,-5.3921,-5.4183,-5.4334,-5.4352,-5.4409,-5.4409,-5.4409,-5.4409,-5.4409,-5.4409,-5.4409,-5.4409,-5.4409,-5.4409,-5.4409,-5.4409,-5.4409,-5.4409,-5.4503,-5.4559,-5.4728,-5.5103,-5.5911,-5.653,-5.7018,-5.7882,-5.8425,-5.8933,-5.9176,-5.9493,-5.9564,-5.9653,-5.9772,-5.9853,-5.9931,-6.0007,-5.9988,-6.0049,-6.0169,-6.0256,-6.0349,-6.0437,-6.0514,-6.0613,-6.0727,-3.6684,-3.6719,-3.6742,-3.7679,-3.9031,-3.9263,-4.0182,-4.1376,-4.1604,-4.1604,-4.1604,-4.1604,-4.1604,-4.1604,-4.1604,-4.1604,-4.1604,-4.1604,-4.1604,-4.1648,-4.1736,-4.1841,-4.2068,-4.2576,-4.3661,-4.4599,-4.5462,-4.635,-4.718,-4.7407,-4.7468,-4.7747,-4.7806,-4.797,-4.8247,-4.8286,-4.8363,-4.8476,-4.8532,-4.8587,-4.8679,-4.8787,-4.8857,-4.8857,-4.8874,-4.889,-4.889,-4.889,-4.889,-4.889,-4.889,-4.889,-4.889,-4.889,-4.889,-4.889,-4.889,-4.889,-4.889,-4.889,-4.8909,-4.9076,-4.9336,-4.9908,-5.0561,-5.1443,-5.2217,-5.3057,-5.362,-5.4015,-5.4277,-5.439,-5.4409,-5.4409,-5.4409,-5.4409,-5.4409,-5.4409,-5.4409,-5.4409,-5.4409,-5.4409,-5.4409,-5.4409,-5.4409,-5.4409,-5.4409,-5.4409,-5.4653,-5.4953,-5.5179,-5.546,-5.6418,-5.7413,-5.7899,-5.8482,-5.8856,-5.9287,-5.934,-5.9581,-5.9669,-5.9791,-5.9904,-6.0076,-6.0178,-6.0266,-6.0275,-6.036,-6.0441,-6.0508,-6.0613,-6.0685,-6.0795,-6.0902,-6.1002,-3.6561,-3.6719,-3.6719,-3.7614,-3.9041,-3.9221,-4.02,-4.1516,-4.1604,-4.1604,-4.1604,-4.1604,-4.1604,-4.1604,-4.1604,-4.1604,-4.1604,-4.1604,-4.1604,-4.1692,-4.178,-4.1927,-4.231,-4.3054,-4.4055,-4.5106,-4.5952,-4.6912,-4.7656,-4.7911,-4.7911,-4.813,-4.813,-4.8286,-4.8494,-4.8569,-4.8587,-4.8678,-4.8768,-4.8804,-4.8804,-4.8892,-4.8909,-4.889,-4.889,-4.889,-4.889,-4.889,-4.889,-4.889,-4.889,-4.889,-4.889,-4.889,-4.889,-4.889,-4.889,-4.889,-4.889,-4.8909,-4.9002,-4.9373,-5.0038,-5.0871,-5.1793,-5.2791,-5.3365,-5.3545,-5.3958,-5.4277,-5.4409,-5.4409,-5.4409,-5.4409,-5.4409,-5.4409,-5.4409,-5.4409,-5.4409,-5.4409,-5.4409,-5.4409,-5.4409,-5.4409,-5.4409,-5.4409,-5.4409,-5.4409,-5.4766,-5.5179,-5.5685,-5.6023,-5.6943,-5.7957,-5.8593,-5.9062,-5.9417,-5.9564,-5.9616,-5.9666,-5.9786,-5.9918,-6.0057,-6.0237,-6.0406,-6.0546,-6.0608,-6.0671,-6.0714,-6.0789,-6.088,-6.0982,-6.108,-6.1173,-6.1225,-3.6585,-3.6719,-3.6719,-3.7631,-3.9068,-3.9221,-4.0182,-4.1569,-4.1604,-4.1604,-4.1604,-4.1604,-4.1604,-4.1604,-4.1604,-4.1604,-4.1604,-4.1604,-4.1648,-4.1797,-4.1945,-4.2108,-4.2638,-4.3458,-4.4421,-4.5399,-4.643,-4.7432,-4.8084,-4.8363,-4.8381,-4.8475,-4.8457,-4.8606,-4.8715,-4.8751,-4.8768,-4.882,-4.8855,-4.8874,-4.8874,-4.8909,-4.889,-4.889,-4.889,-4.889,-4.889,-4.889,-4.889,-4.889,-4.889,-4.889,-4.889,-4.889,-4.889,-4.889,-4.9076,-4.9094,-4.9094,-4.915,-4.941,-5.004,-5.0927,-5.1852,-5.2709,-5.2994,-5.3526,-5.409,-5.4315,-5.4371,-5.4409,-5.4409,-5.4409,-5.4409,-5.4409,-5.4409,-5.4409,-5.4409,-5.4409,-5.4409,-5.4409,-5.4409,-5.4409,-5.4409,-5.4409,-5.4409,-5.4446,-5.4446,-5.4916,-5.5385,-5.6117,-5.6718,-5.7544,-5.8407,-5.9192,-5.9529,-5.9599,-5.9685,-5.9767,-5.9834,-5.9899,-6.0057,-6.0266,-6.0395,-6.0597,-6.0769,-6.0901,-6.0922,-6.0962,-6.1061,-6.1137,-6.1154,-6.1189,-6.1259,-6.1306,-3.6643,-3.6754,-3.7271,-3.8115,-3.9076,-3.9221,-4.0182,-4.1446,-4.1604,-4.1604,-4.1604,-4.1604,-4.1604,-4.1604,-4.1604,-4.1604,-4.1604,-4.1692,-4.1754,-4.1884,-4.203,-4.2465,-4.3138,-4.4119,-4.5233,-4.6197,-4.7216,-4.7958,-4.8532,-4.8642,-4.8715,-4.8715,-4.8679,-4.8751,-4.8857,-4.8839,-4.8874,-4.8855,-4.889,-4.889,-4.889,-4.889,-4.889,-4.889,-4.889,-4.889,-4.889,-4.889,-4.889,-4.889,-4.889,-4.889,-4.889,-4.889,-4.8927,-4.9039,-4.9336,-4.9577,-4.967,-4.9763,-5.0246,-5.1434,-5.2173,-5.2727,-5.3491,-5.3781,-5.4033,-5.4315,-5.4409,-5.4409,-5.4409,-5.4409,-5.4409,-5.4409,-5.4409,-5.4409,-5.4409,-5.4409,-5.4409,-5.4409,-5.4409,-5.4409,-5.4409,-5.4409,-5.4409,-5.4409,-5.4446,-5.4597,-5.5103,-5.5779,-5.6622,-5.7371,-5.818,-5.8721,-5.9451,-5.9634,-5.9704,-5.982,-5.9931,-5.9994,-6.0118,-6.0294,-6.0506,-6.0622,-6.075,-6.0902,-6.1041,-6.1115,-6.1169,-6.1206,-6.1242,-6.1275,-6.1322,-6.1337,-6.1371,-3.6783,-3.6893,-3.7708,-3.8443,-3.9101,-3.9491,-4.0393,-4.1446,-4.1604,-4.1604,-4.1604,-4.1604,-4.1604,-4.1604,-4.1604,-4.1648,-4.1692,-4.1736,-4.1823,-4.2058,-4.2399,-4.2965,-4.3894,-4.4971,-4.6106,-4.7033,-4.7885,-4.8587,-4.8751,-4.8822,-4.8857,-4.8839,-4.8857,-4.8892,-4.8874,-4.889,-4.889,-4.889,-4.889,-4.889,-4.889,-4.889,-4.889,-4.889,-4.889,-4.889,-4.889,-4.889,-4.889,-4.889,-4.889,-4.889,-4.889,-4.8927,-4.902,-4.9373,-4.9763,-5.019,-5.0469,-5.0896,-5.1361,-5.2289,-5.303,-5.3512,-5.4013,-5.4287,-5.4352,-5.4371,-5.4409,-5.4409,-5.4409,-5.4409,-5.4409,-5.4409,-5.4409,-5.4409,-5.4409,-5.4409,-5.4409,-5.4409,-5.4409,-5.4409,-5.4409,-5.4409,-5.4446,-5.4578,-5.4897,-5.5066,-5.546,-5.6284,-5.7388,-5.81,-5.8794,-5.9241,-5.9666,-5.9753,-5.982,-5.9994,-6.0099,-6.0237,-6.037,-6.0559,-6.071,-6.0811,-6.0942,-6.1079,-6.1167,-6.122,-6.1287,-6.1322,-6.1337,-6.1337,-6.1371,-6.1386,-6.1386,-3.6869,-3.7058,-3.7812,-3.8561,-3.9213,-4.0069,-4.0867,-4.1552,-4.1604,-4.1604,-4.1604,-4.1604,-4.1604,-4.1604,-4.1648,-4.1692,-4.1833,-4.1894,-4.2051,-4.2423,-4.3161,-4.3655,-4.4588,-4.5758,-4.6757,-4.7316,-4.8108,-4.8715,-4.8822,-4.8839,-4.8909,-4.8909,-4.8874,-4.8874,-4.889,-4.889,-4.889,-4.889,-4.889,-4.889,-4.889,-4.889,-4.889,-4.889,-4.889,-4.889,-4.889,-4.889,-4.889,-4.889,-4.889,-4.889,-4.889,-4.889,-4.9206,-4.9912,-5.0135,-5.0636,-5.1342,-5.2104,-5.2605,-5.2901,-5.3532,-5.3996,-5.4252,-5.4359,-5.4409,-5.4409,-5.4409,-5.4409,-5.4409,-5.4409,-5.4409,-5.4409,-5.4409,-5.4409,-5.4409,-5.4409,-5.4409,-5.4409,-5.4409,-5.4409,-5.4409,-5.4428,-5.4465,-5.4709,-5.5197,-5.5592,-5.5964,-5.6788,-5.7947,-5.8657,-5.9257,-5.9526,-5.9801,-5.9866,-5.9994,-6.0159,-6.0332,-6.0468,-6.0597,-6.0785,-6.0899,-6.0982,-6.1079,-6.1203,-6.1252,-6.1332,-6.1352,-6.1371,-6.1386,-6.1386,-6.14,-6.14,-6.14,-3.6948,-3.7132,-3.8456,-3.9142,-3.9452,-4.019,-4.0902,-4.1534,-4.1604,-4.1604,-4.1604,-4.1604,-4.1648,-4.1692,-4.1754,-4.1815,-4.2051,-4.2668,-4.2885,-4.3119,-4.4026,-4.5016,-4.5824,-4.6517,-4.7351,-4.8016,-4.8641,-4.8822,-4.8874,-4.8909,-4.889,-4.889,-4.889,-4.889,-4.889,-4.889,-4.889,-4.889,-4.889,-4.889,-4.889,-4.889,-4.889,-4.889,-4.889,-4.889,-4.889,-4.889,-4.889,-4.889,-4.889,-4.889,-4.8909,-4.8927,-4.9371,-5.0187,-5.0668,-5.1784,-5.2751,-5.3533,-5.3553,-5.372,-5.3885,-5.4254,-5.4289,-5.4375,-5.4409,-5.4409,-5.4409,-5.4409,-5.4409,-5.4409,-5.4409,-5.4409,-5.4409,-5.4409,-5.4409,-5.4409,-5.4409,-5.4409,-5.4409,-5.4409,-5.4409,-5.4672,-5.4747,-5.5209,-5.5736,-5.6259,-5.6635,-5.7457,-5.8484,-5.9118,-5.9639,-5.9809,-5.9963,-6.0068,-6.0198,-6.0414,-6.0578,-6.0681,-6.0836,-6.0962,-6.1041,-6.1115,-6.1203,-6.1287,-6.1318,-6.1366,-6.1386,-6.14,-6.14,-6.14,-6.14,-6.14,-6.14,-3.7027,-3.7224,-3.8818,-3.9511,-3.9688,-4.0599,-4.1331,-4.1719,-4.1754,-4.1754,-4.1754,-4.1754,-4.1797,-4.1858,-4.1902,-4.2235,-4.2541,-4.307,-4.3853,-4.4121,-4.5142,-4.5924,-4.6618,-4.7311,-4.7979,-4.8586,-4.8768,-4.8857,-4.8909,-4.889,-4.889,-4.889,-4.889,-4.889,-4.889,-4.889,-4.889,-4.889,-4.889,-4.889,-4.889,-4.889,-4.889,-4.889,-4.889,-4.889,-4.889,-4.889,-4.889,-4.889,-4.889,-4.8909,-4.8946,-4.9296,-4.9759,-5.0647,-5.191,-5.288,-5.3755,-5.4052,-5.4016,-5.4072,-5.4237,-5.4289,-5.4324,-5.4375,-5.4409,-5.4409,-5.4409,-5.4409,-5.4409,-5.4409,-5.4409,-5.4409,-5.4409,-5.4409,-5.4409,-5.4409,-5.4409,-5.4409,-5.4409,-5.4409,-5.4521,-5.4841,-5.5138,-5.5732,-5.6346,-5.687,-5.7397,-5.8235,-5.8959,-5.9493,-5.9931,-6.0068,-6.0198,-6.0321,-6.0475,-6.0671,-6.0811,-6.0922,-6.1022,-6.1117,-6.1186,-6.1236,-6.1287,-6.1337,-6.1386,-6.14,-6.14,-6.14,-6.14,-6.14,-6.14,-6.14,-6.14,-3.7066,-3.7373,-3.8876,-3.9587,-3.9934,-4.1321,-4.2012,-4.2005,-4.2005,-4.2005,-4.2005,-4.2005,-4.203,-4.2048,-4.2083,-4.2601,-4.3453,-4.3692,-4.4438,-4.5296,-4.6241,-4.6801,-4.7382,-4.8034,-4.8458,-4.8695,-4.8857,-4.8874,-4.889,-4.889,-4.889,-4.889,-4.889,-4.889,-4.889,-4.889,-4.889,-4.889,-4.889,-4.889,-4.889,-4.889,-4.889,-4.889,-4.889,-4.889,-4.889,-4.889,-4.889,-4.889,-4.889,-4.8946,-4.9241,-4.9831,-5.0629,-5.1707,-5.3157,-5.379,-5.4106,-5.4235,-5.4289,-5.4254,-5.4289,-5.4359,-5.4375,-5.4409,-5.4409,-5.4409,-5.4409,-5.4409,-5.4409,-5.4409,-5.4409,-5.4409,-5.4409,-5.4409,-5.4409,-5.4409,-5.4409,-5.4409,-5.4409,-5.4484,-5.4747,-5.5047,-5.5623,-5.6572,-5.7243,-5.789,-5.8434,-5.9019,-5.9576,-5.9728,-6.0099,-6.0275,-6.0422,-6.0559,-6.0704,-6.0877,-6.1002,-6.1098,-6.1208,-6.1242,-6.1291,-6.1322,-6.1371,-6.1405,-6.14,-6.14,-6.14,-6.14,-6.14,-6.14,-6.14,-6.14,-6.14,-3.7482,-3.8235,-3.9384,-4.0192,-4.0838,-4.202,-4.2387,-4.2097,-4.2163,-4.2205,-4.224,-4.2222,-4.2264,-4.2323,-4.2882,-4.3381,-4.4114,-4.4921,-4.5739,-4.6539,-4.7229,-4.7752,-4.8162,-4.8531,-4.8768,-4.8839,-4.8874,-4.889,-4.889,-4.889,-4.889,-4.889,-4.889,-4.889,-4.889,-4.889,-4.889,-4.889,-4.889,-4.889,-4.889,-4.889,-4.889,-4.889,-4.889,-4.889,-4.889,-4.889,-4.889,-4.889,-4.8909,-4.9111,-4.9942,-5.0238,-5.0813,-5.2498,-5.3578,-5.4303,-5.4321,-5.434,-5.4393,-5.4359,-5.4393,-5.4375,-5.4409,-5.4409,-5.4409,-5.4409,-5.4409,-5.4409,-5.4409,-5.4409,-5.4409,-5.4409,-5.4409,-5.4409,-5.4409,-5.4409,-5.4409,-5.4409,-5.4409,-5.4724,-5.5006,-5.5491,-5.6176,-5.7261,-5.8155,-5.8784,-5.926,-5.9766,-6.0049,-6.0129,-6.0313,-6.0501,-6.0657,-6.0795,-6.0942,-6.108,-6.1171,-6.1223,-6.1275,-6.1306,-6.1371,-6.1386,-6.1386,-6.1405,-6.14,-6.14,-6.14,-6.14,-6.14,-6.14,-6.14,-6.14,-6.14,-3.7777,-3.8691,-3.9687,-4.0733,-4.1875,-4.2625,-4.2765,-4.2588,-4.2552,-4.2534,-4.2552,-4.2552,-4.2552,-4.2699,-4.3404,-4.4119,-4.4769,-4.5784,-4.6724,-4.7547,-4.8029,-4.8347,-4.866,-4.8768,-4.8857,-4.8909,-4.889,-4.889,-4.889,-4.889,-4.889,-4.889,-4.889,-4.889,-4.889,-4.889,-4.889,-4.889,-4.889,-4.889,-4.889,-4.889,-4.889,-4.889,-4.889,-4.889,-4.889,-4.889,-4.8909,-4.902,-4.9129,-4.9647,-5.0514,-5.0922,-5.1903,-5.3406,-5.3981,-5.4337,-5.4375,-5.4409,-5.4409,-5.4409,-5.4409,-5.4409,-5.4409,-5.4409,-5.4409,-5.4409,-5.4409,-5.4409,-5.4409,-5.4409,-5.4409,-5.4409,-5.4409,-5.4409,-5.4409,-5.4409,-5.4409,-5.4409,-5.4631,-5.4965,-5.5375,-5.5932,-5.6715,-5.7853,-5.8708,-5.9349,-5.9703,-5.9977,-6.0217,-6.0323,-6.0546,-6.0723,-6.088,-6.0983,-6.1098,-6.1189,-6.1275,-6.1322,-6.1352,-6.1352,-6.1386,-6.1386,-6.14,-6.14,-6.14,-6.14,-6.14,-6.14,-6.14,-6.14,-6.14,-6.14,-6.14,-3.8039,-3.9044,-4.0038,-4.1487,-4.2905,-4.3178,-4.3251,-4.3287,-4.3068,-4.2975,-4.2975,-4.2957,-4.303,-4.3356,-4.4082,-4.4942,-4.5749,-4.67,-4.7549,-4.8476,-4.8495,-4.866,-4.8751,-4.8857,-4.8874,-4.8909,-4.889,-4.889,-4.889,-4.889,-4.889,-4.889,-4.889,-4.889,-4.889,-4.889,-4.889,-4.889,-4.889,-4.889,-4.889,-4.889,-4.889,-4.889,-4.889,-4.889,-4.889,-4.8909,-4.8927,-4.9278,-4.9666,-5.0219,-5.118,-5.2143,-5.3387,-5.3924,-5.4315,-5.4371,-5.4409,-5.4409,-5.4409,-5.4409,-5.4409,-5.4409,-5.4409,-5.4409,-5.4409,-5.4409,-5.4409,-5.4409,-5.4409,-5.4409,-5.4409,-5.4409,-5.4409,-5.4409,-5.4409,-5.4443,-5.4424,-5.4552,-5.4886,-5.5277,-5.6063,-5.6677,-5.7588,-5.8594,-5.9235,-5.9855,-6.0131,-6.0313,-6.0422,-6.054,-6.0719,-6.092,-6.1022,-6.1115,-6.1203,-6.1287,-6.1352,-6.1386,-6.1386,-6.1386,-6.14,-6.14,-6.14,-6.14,-6.14,-6.14,-6.14,-6.14,-6.14,-6.14,-6.14,-6.14,-6.14,-3.8708,-4.0239,-4.1796,-4.2868,-4.3338,-4.3461,-4.3548,-4.3689,-4.3618,-4.3479,-4.3375,-4.3394,-4.3687,-4.4236,-4.4986,-4.5865,-4.6783,-4.7499,-4.8237,-4.8587,-4.8732,-4.8768,-4.8839,-4.8874,-4.889,-4.889,-4.889,-4.889,-4.889,-4.889,-4.889,-4.889,-4.889,-4.889,-4.889,-4.889,-4.889,-4.889,-4.889,-4.8909,-4.8909,-4.8909,-4.889,-4.889,-4.889,-4.8909,-4.8909,-4.8946,-4.9387,-4.9887,-5.0126,-5.0978,-5.2292,-5.3406,-5.4056,-5.4371,-5.4409,-5.4409,-5.4409,-5.4409,-5.4409,-5.4409,-5.4409,-5.4409,-5.4409,-5.4409,-5.4409,-5.4409,-5.4409,-5.4409,-5.4409,-5.4409,-5.4409,-5.4409,-5.4409,-5.4409,-5.4409,-5.4458,-5.4491,-5.4825,-5.5192,-5.5885,-5.6691,-5.7602,-5.8551,-5.9229,-5.9726,-6.0179,-6.0376,-6.0527,-6.0681,-6.0811,-6.092,-6.106,-6.1169,-6.1239,-6.1287,-6.1337,-6.1386,-6.1386,-6.14,-6.14,-6.14,-6.14,-6.14,-6.14,-6.14,-6.14,-6.14,-6.14,-6.14,-6.14,-6.14,-6.14,-6.14,-3.9456,-4.0866,-4.2627,-4.3513,-4.3649,-4.3716,-4.38,-4.3865,-4.3865,-4.3851,-4.3716,-4.3723,-4.4094,-4.4886,-4.5678,-4.656,-4.7462,-4.8255,-4.8586,-4.8804,-4.8857,-4.8874,-4.8909,-4.889,-4.889,-4.889,-4.889,-4.889,-4.889,-4.889,-4.889,-4.889,-4.889,-4.889,-4.889,-4.889,-4.889,-4.889,-4.889,-4.8943,-4.8962,-4.8943,-4.889,-4.889,-4.8943,-4.8962,-4.9164,-4.9291,-4.9828,-5.0567,-5.1068,-5.218,-5.3294,-5.4018,-5.4334,-5.4409,-5.4409,-5.4409,-5.4409,-5.4409,-5.4409,-5.4409,-5.4409,-5.4409,-5.4409,-5.4409,-5.4409,-5.4409,-5.4409,-5.4409,-5.4409,-5.4409,-5.4409,-5.4409,-5.4409,-5.4424,-5.4458,-5.4524,-5.4839,-5.5362,-5.5856,-5.6481,-5.7302,-5.816,-5.9038,-5.9669,-6.0179,-6.0368,-6.0572,-6.0746,-6.088,-6.1022,-6.1117,-6.1189,-6.1255,-6.1287,-6.1352,-6.1386,-6.14,-6.14,-6.14,-6.14,-6.14,-6.14,-6.14,-6.14,-6.14,-6.14,-6.14,-6.14,-6.14,-6.14,-6.14,-6.14,-6.14,-4.0229,-4.1302,-4.2919,-4.3749,-4.3915,-4.3897,-4.3942,-4.3974,-4.4005,-4.4005,-4.3974,-4.3851,-4.4354,-4.5223,-4.587,-4.6826,-4.7694,-4.8472,-4.8802,-4.8874,-4.8909,-4.8909,-4.8909,-4.889,-4.889,-4.889,-4.889,-4.889,-4.889,-4.889,-4.889,-4.889,-4.889,-4.889,-4.889,-4.889,-4.889,-4.8909,-4.8943,-4.8996,-4.8996,-4.8996,-4.8943,-4.8996,-4.9049,-4.9139,-4.9471,-4.984,-5.0355,-5.1357,-5.2252,-5.3219,-5.3868,-5.4334,-5.4352,-5.4409,-5.4409,-5.4409,-5.4409,-5.4409,-5.4409,-5.4409,-5.4409,-5.4409,-5.4409,-5.4409,-5.4409,-5.4409,-5.4409,-5.4409,-5.4409,-5.4409,-5.4409,-5.4443,-5.4424,-5.4476,-5.4576,-5.4767,-5.5346,-5.5945,-5.6608,-5.7225,-5.7954,-5.8806,-5.9464,-6.0113,-6.0441,-6.0591,-6.0742,-6.0901,-6.1041,-6.1134,-6.1223,-6.1291,-6.1337,-6.1337,-6.1386,-6.1386,-6.14,-6.14,-6.14,-6.14,-6.14,-6.14,-6.14,-6.14,-6.14,-6.14,-6.14,-6.14,-6.14,-6.14,-6.14,-6.14,-6.14,-4.0854,-4.2369,-4.3393,-4.3865,-4.3897,-4.3942,-4.4005,-4.4023,-4.4005,-4.4005,-4.4005,-4.4103,-4.4753,-4.6205,-4.6349,-4.7129,-4.8338,-4.8837,-4.8837,-4.889,-4.889,-4.889,-4.889,-4.889,-4.889,-4.889,-4.889,-4.889,-4.889,-4.889,-4.889,-4.889,-4.889,-4.889,-4.889,-4.889,-4.8909,-4.8943,-4.8996,-4.9049,-4.9101,-4.9083,-4.9116,-4.9131,-4.9164,-4.9575,-5.0019,-5.0299,-5.1249,-5.2364,-5.3369,-5.4037,-5.4315,-5.4409,-5.4409,-5.4409,-5.4409,-5.4409,-5.4409,-5.4409,-5.4409,-5.4409,-5.4409,-5.4409,-5.4409,-5.4409,-5.4409,-5.4424,-5.4424,-5.4409,-5.4409,-5.4424,-5.4424,-5.4476,-5.4458,-5.4651,-5.4786,-5.5328,-5.5951,-5.6763,-5.7585,-5.8168,-5.8825,-5.9527,-6.0118,-6.0597,-6.07,-6.0856,-6.092,-6.106,-6.1186,-6.1255,-6.1341,-6.1371,-6.1386,-6.1386,-6.1386,-6.14,-6.14,-6.14,-6.14,-6.14,-6.14,-6.14,-6.14,-6.14,-6.14,-6.14,-6.14,-6.14,-6.14,-6.14,-6.14,-6.14,-6.14]}]]